[[{"header":{"parameterUnit":"m.s-1","parameterCategory":1,"la1":30.6,"la2":28.766,"lo1":-90.7593,"lo2":-88.6598,"dy":0.0162,"dx":0.0183,"nx":116,"ny":114,"refTime":"2024-03-28T06:00:00:Z","depth":0,"parameterNumber":2,"parameterNumberName":"U-component_of_WINDS"},"data":[0.0,0.0,0.0,0.0,0.0,0.0,0.0,0.0,0.0,0.0,0.0,0.0,0.0,0.0,0.0,0.0,0.0,0.0,0.0,0.0,0.0,0.0,0.0,0.0,0.0,0.0,0.0,0.0,0.0,0.0,0.0,0.0,0.0,0.0,0.0,0.0,0.0,0.0,0.0,0.0,0.0,0.0,0.0,0.0,0.0,0.0,0.0,0.0,0.0,0.0,0.0,0.0,0.0,0.0,0.0,0.0,0.0,0.0,0.0,0.0,0.0,0.0,0.0,0.0,0.0,0.0,0.0,0.0,0.0,0.0,0.0,0.0,0.0,0.0,0.0,0.0,0.0,0.0,0.0,0.0,0.0,0.0,0.0,0.0,0.0,0.0,0.0,0.0,0.0,0.0,0.0,0.0,0.0,0.0,0.0,0.0,0.0,0.0,0.0,0.0,0.0,0.0,0.0,0.0,0.0,0.0,0.0,0.0,0.0,0.0,0.0,0.0,0.0,0.0,0.0,0.0,0.0,0.0,0.0,0.0,0.0,0.0,0.0,0.0,0.0,0.0,0.0,0.0,0.0,0.0,0.0,0.0,0.0,0.0,0.0,0.0,0.0,0.0,0.0,0.0,0.0,0.0,0.0,0.0,0.0,0.0,0.0,0.0,0.0,0.0,0.0,0.0,0.0,0.0,0.0,0.0,0.0,0.0,0.0,0.0,0.0,0.0,0.0,0.0,0.0,0.0,0.0,0.0,0.0,0.0,0.0,0.0,0.0,0.0,0.0,0.0,0.0,0.0,0.0,0.0,0.0,0.0,0.0,0.0,0.0,0.0,0.0,0.0,0.0,0.0,0.0,0.0,0.0,0.0,0.0,0.0,0.0,0.0,0.0,0.0,0.0,0.0,0.0,0.0,0.0,0.0,0.0,0.0,0.0,0.0,0.0,0.0,0.0,0.0,0.0,0.0,0.0,0.0,0.0,0.0,0.0,0.0,0.0,0.0,0.0,0.0,0.0,0.0,0.0,0.0,0.0,0.0,0.0,0.0,0.0,0.0,0.0,0.0,0.0,0.0,0.0,0.0,0.0,0.0,0.0,0.0,0.0,0.0,0.0,0.0,0.0,0.0,0.0,0.0,0.0,0.0,0.0,0.0,0.0,0.0,0.0,0.0,0.0,0.0,0.0,0.0,0.0,0.0,0.0,0.0,0.0,0.0,0.0,0.0,0.0,0.0,0.0,0.0,0.0,0.0,0.0,0.0,0.0,0.0,0.0,0.0,0.0,0.0,0.0,0.0,0.0,0.0,0.0,0.0,0.0,0.0,0.0,0.0,0.0,0.0,0.0,0.0,0.0,0.0,0.0,0.0,0.0,0.0,0.0,0.0,0.0,0.0,0.0,0.0,0.0,0.0,0.0,0.0,0.0,0.0,0.0,0.0,0.0,0.0,0.0,0.0,0.0,0.0,0.0,0.0,0.0,0.0,0.0,0.0,0.0,0.0,0.0,0.0,0.0,0.0,0.0,0.0,0.0,0.0,0.0,0.0,0.0,0.0,0.0,0.0,0.0,0.0,0.0,0.0,0.0,0.0,0.0,0.0,0.0,0.0,0.0,0.0,0.0,0.0,0.0,0.0,0.0,0.0,0.0,0.0,0.0,0.0,0.0,0.0,0.0,0.0,0.0,0.0,0.0,0.0,0.0,0.0,0.0,0.0,0.0,0.0,0.0,0.0,0.0,0.0,0.0,0.0,0.0,0.0,0.0,0.0,0.0,0.0,0.0,0.0,0.0,0.0,0.0,0.0,0.0,0.0,0.0,0.0,0.0,0.0,0.0,0.0,0.0,0.0,0.0,0.0,0.0,0.0,0.0,0.0,0.0,0.0,0.0,0.0,0.0,0.0,0.0,0.0,0.0,0.0,0.0,0.0,0.0,0.0,0.0,0.0,0.0,0.0,0.0,0.0,0.0,0.0,0.0,0.0,0.0,0.0,0.0,0.0,0.0,0.0,0.0,0.0,0.0,0.0,0.0,0.0,0.0,0.0,0.0,0.0,0.0,0.0,0.0,0.0,0.0,0.0,0.0,0.0,0.0,0.0,0.0,0.0,0.0,0.0,0.0,0.0,0.0,0.0,0.0,0.0,0.0,0.0,0.0,0.0,0.0,0.0,0.0,0.0,0.0,0.0,0.0,0.0,0.0,0.0,0.0,0.0,0.0,0.0,0.0,0.0,0.0,0.0,0.0,0.0,0.0,0.0,0.0,0.0,0.0,0.0,0.0,0.0,0.0,0.0,0.0,0.0,0.0,0.0,0.0,0.0,0.0,0.0,0.0,0.0,0.0,0.0,0.0,0.0,0.0,0.0,0.0,0.0,0.0,0.0,0.0,0.0,0.0,0.0,0.0,0.0,0.0,0.0,0.0,0.0,0.0,0.0,0.0,0.0,0.0,0.0,0.0,0.0,0.0,0.0,0.0,0.0,0.0,0.0,0.0,0.0,0.0,0.0,0.0,0.0,0.0,0.0,0.0,0.0,0.0,0.0,0.0,0.0,0.0,0.0,0.0,0.0,0.0,0.0,0.0,0.0,0.0,0.0,0.0,0.0,0.0,0.0,0.0,0.0,0.0,0.0,0.0,0.0,0.0,0.0,0.0,0.0,0.0,0.0,0.0,0.0,0.0,0.0,0.0,0.0,0.0,0.0,0.0,0.0,0.0,0.0,0.0,0.0,0.0,0.0,0.0,0.0,0.0,0.0,0.0,0.0,0.0,0.0,0.0,0.0,0.0,0.0,0.0,0.0,0.0,0.0,0.0,0.0,0.0,0.0,0.0,0.0,0.0,0.0,0.0,0.0,0.0,0.0,0.0,0.0,0.0,0.0,0.0,0.0,0.0,0.0,0.0,0.0,0.0,0.0,0.0,0.0,0.0,0.0,0.0,0.0,0.0,0.0,0.0,0.0,0.0,0.0,0.0,0.0,0.0,0.0,0.0,0.0,0.0,0.0,0.0,0.0,0.0,0.0,0.0,0.0,0.0,0.0,0.0,0.0,0.0,0.0,0.0,0.0,0.0,0.0,0.0,0.0,0.0,0.0,0.0,0.0,0.0,0.0,0.0,0.0,0.0,0.0,0.0,0.0,0.0,0.0,0.0,0.0,0.0,0.0,0.0,0.0,0.0,0.0,0.0,0.0,0.0,0.0,0.0,0.0,0.0,0.0,0.0,0.0,0.0,0.0,0.0,0.0,0.0,0.0,0.0,0.0,0.0,0.0,0.0,0.0,0.0,0.0,0.0,0.0,0.0,0.0,0.0,0.0,0.0,0.0,0.0,0.0,0.0,0.0,0.0,0.0,0.0,0.0,0.0,0.0,0.0,0.0,0.0,0.0,0.0,0.0,0.0,0.0,0.0,0.0,0.0,0.0,0.0,0.0,0.0,0.0,0.0,0.0,0.0,0.0,0.0,0.0,0.0,0.0,0.0,0.0,0.0,0.0,0.0,0.0,0.0,0.0,0.0,0.0,0.0,0.0,0.0,0.0,0.0,0.0,0.0,0.0,0.0,0.0,0.0,0.0,0.0,0.0,0.0,0.0,0.0,0.0,0.0,0.0,0.0,0.0,0.0,0.0,0.0,0.0,0.0,0.0,0.0,0.0,0.0,0.0,0.0,0.0,0.0,0.0,0.0,0.0,0.0,0.0,0.0,0.0,0.0,0.0,0.0,0.0,0.0,0.0,0.0,0.0,0.0,0.0,0.0,0.0,0.0,0.0,0.0,0.0,0.0,0.0,0.0,0.0,0.0,0.0,0.0,0.0,0.0,0.0,0.0,0.0,0.0,0.0,0.0,0.0,0.0,0.0,0.0,0.0,0.0,0.0,0.0,0.0,0.0,0.0,0.0,0.0,0.0,0.0,0.0,0.0,0.0,0.0,0.0,0.0,0.0,0.0,0.0,0.0,0.0,0.0,0.0,0.0,0.0,0.0,0.0,0.0,0.0,0.0,0.0,0.0,0.0,0.0,0.0,0.0,0.0,0.0,0.0,0.0,0.0,0.0,0.0,0.0,0.0,0.0,0.0,0.0,0.0,0.0,0.0,0.0,0.0,0.0,0.0,0.0,0.0,0.0,0.0,0.0,0.0,0.0,0.0,0.0,0.0,0.0,0.0,0.0,0.0,0.0,0.0,0.0,0.0,0.0,0.0,0.0,0.0,0.0,0.0,0.0,0.0,0.0,0.0,0.0,0.0,0.0,0.0,0.0,0.0,0.0,0.0,0.0,0.0,0.0,0.0,0.0,0.0,0.0,0.0,0.0,0.0,0.0,0.0,0.0,0.0,0.0,0.0,0.0,0.0,0.0,0.0,0.0,0.0,0.0,0.0,0.0,0.0,0.0,0.0,0.0,0.0,0.0,0.0,0.0,0.0,0.0,0.0,0.0,0.0,0.0,0.0,0.0,0.0,0.0,0.0,0.0,0.0,0.0,0.0,0.0,0.0,0.0,0.0,0.0,0.0,0.0,0.0,0.0,0.0,0.0,0.0,0.0,0.0,0.0,0.0,0.0,0.0,0.0,0.0,0.0,0.0,0.0,0.0,0.0,0.0,0.0,0.0,0.0,0.0,0.0,0.0,0.0,0.0,0.0,0.0,0.0,0.0,0.0,0.0,0.0,0.0,0.0,0.0,0.0,0.0,0.0,0.0,0.0,0.0,0.0,0.0,0.0,0.0,0.0,0.0,0.0,0.0,0.0,0.0,0.0,0.0,0.0,0.0,0.0,0.0,0.0,0.0,0.0,0.0,0.0,0.0,0.0,0.0,0.0,0.0,0.0,0.0,0.0,0.0,0.0,0.0,0.0,0.0,0.0,0.0,0.0,0.0,0.0,0.0,0.0,0.0,0.0,0.0,0.0,0.0,0.0,0.0,0.0,0.0,0.0,0.0,0.0,0.0,0.0,0.0,0.0,0.0,0.0,0.0,0.0,0.0,0.0,0.0,0.0,0.0,0.0,0.0,0.0,0.0,0.0,0.0,0.0,0.0,0.0,0.0,0.0,0.0,0.0,0.0,0.0,0.0,0.0,0.0,0.0,0.0,0.0,0.0,0.0,0.0,0.0,0.0,0.0,0.0,0.0,0.0,0.0,0.0,0.0,0.0,0.0,0.0,0.0,0.0,0.0,0.0,0.0,0.0,0.0,0.0,0.0,0.0,0.0,0.0,0.0,0.0,0.0,0.0,0.0,0.0,0.0,0.0,0.0,0.0,0.0,0.0,0.0,0.0,0.0,0.0,0.0,0.0,0.0,0.0,0.0,0.0,0.0,0.0,0.0,0.0,0.0,0.0,0.0,0.0,0.0,0.0,0.0,0.0,0.0,0.0,0.0,0.0,0.0,0.0,0.0,0.0,0.0,0.0,0.0,0.0,0.0,0.0,0.0,0.0,0.0,0.0,0.0,0.0,0.0,0.0,0.0,0.0,0.0,0.0,0.0,0.0,0.0,0.0,0.0,0.0,0.0,0.0,0.0,0.0,0.0,0.0,0.0,0.0,0.0,0.0,0.0,0.0,0.0,0.0,0.0,0.0,0.0,0.0,0.0,0.0,0.0,0.0,0.0,0.0,0.0,0.0,0.0,0.0,0.0,0.0,0.0,0.0,0.0,0.0,0.0,0.0,0.0,0.0,0.0,0.0,0.0,0.0,0.0,0.0,0.0,0.0,0.0,0.0,0.0,0.0,0.0,0.0,0.0,0.0,0.0,0.0,0.0,0.0,0.0,0.0,0.0,0.0,0.0,0.0,0.0,0.0,0.0,0.0,0.0,0.0,0.0,0.0,0.0,0.0,0.0,0.0,0.0,0.0,0.0,0.0,0.0,0.0,0.0,0.0,0.0,0.0,0.0,0.0,0.0,0.0,0.0,0.0,0.0,0.0,0.0,0.0,0.0,0.0,0.0,0.0,0.0,0.0,0.0,0.0,0.0,0.0,0.0,0.0,0.0,0.0,0.0,0.0,0.0,0.0,0.0,0.0,0.0,0.0,0.0,0.0,0.0,0.0,0.0,0.0,0.0,0.0,0.0,0.0,0.0,0.0,0.0,0.0,0.0,0.0,0.0,0.0,0.0,0.0,0.0,0.0,0.0,0.0,0.0,3.1055,0.0,0.0,0.0,0.0,0.0,0.0,0.0,0.0,0.0,0.0,0.0,0.0,0.0,0.0,0.0,0.0,0.0,0.0,0.0,0.0,0.0,0.0,0.0,0.0,2.3477,2.4062,2.4961,2.4648,2.457,2.5,0.0,0.0,0.0,0.0,0.0,2.5515,2.539,2.539,2.539,2.539,2.539,2.5341,2.5341,2.539,2.5428,0.0,0.0,0.0,0.0,0.0,0.0,0.0,0.0,0.0,0.0,0.0,0.0,0.0,0.0,0.0,0.0,0.0,0.0,0.0,0.0,0.0,0.0,0.0,0.0,0.0,0.0,0.0,0.0,0.0,0.0,0.0,0.0,0.0,0.0,0.0,0.0,0.0,0.0,0.0,0.0,0.0,0.0,0.0,0.0,0.0,0.0,0.0,0.0,0.0,0.0,0.0,0.0,0.0,0.0,0.0,0.0,0.0,0.0,0.0,0.0,0.0,0.0,0.0,0.0,0.0,0.0,0.0,0.0,0.0,0.0,0.0,3.2539,0.0,0.0,0.0,0.0,0.0,0.0,0.0,0.0,0.0,0.0,0.0,0.0,0.0,0.0,0.0,0.0,0.0,0.0,0.0,0.0,0.0,2.2656,2.4023,2.4336,2.4766,2.5625,2.4883,2.4766,2.5625,2.4883,0.0,0.0,0.0,0.0,2.5515,2.539,2.5341,2.539,2.562,2.5823,2.5976,2.614,2.6217,2.6256,2.5746,0.0,0.0,0.0,0.0,0.0,0.0,0.0,0.0,0.0,0.0,0.0,0.0,0.0,0.0,0.0,0.0,0.0,0.0,0.0,0.0,0.0,0.0,0.0,0.0,0.0,0.0,0.0,0.0,0.0,0.0,0.0,0.0,0.0,0.0,0.0,0.0,0.0,0.0,0.0,0.0,0.0,0.0,0.0,0.0,0.0,0.0,0.0,0.0,0.0,0.0,0.0,0.0,0.0,0.0,0.0,0.0,0.0,0.0,0.0,0.0,0.0,0.0,0.0,3.8036,3.8476,3.9062,3.9062,3.9219,3.9375,3.7031,3.5,3.332,0.0,0.0,0.0,0.0,0.0,0.0,0.0,0.0,0.0,0.0,0.0,0.0,0.0,0.0,0.0,0.0,0.0,0.0,0.0,0.0,2.3125,2.332,2.3984,2.4766,2.5625,2.4883,2.4766,2.5625,2.4883,2.4805,0.0,0.0,2.5493,2.5505,2.5428,2.5351,2.5303,2.6815,2.7923,2.8637,2.9381,2.9738,2.9622,2.6776,2.6372,2.7773,0.0,0.0,0.0,0.0,0.0,0.0,0.0,0.0,0.0,0.0,0.0,0.0,0.0,0.0,0.0,0.0,0.0,0.0,0.0,0.0,0.0,0.0,0.0,0.0,0.0,0.0,0.0,0.0,0.0,0.0,0.0,0.0,0.0,0.0,0.0,0.0,0.0,0.0,0.0,0.0,0.0,3.0364,3.0314,0.0,0.0,0.0,0.0,0.0,0.0,0.0,0.0,0.0,0.0,0.0,0.0,0.0,0.0,3.8623,4.0391,4.0936,4.0318,4.1277,4.1406,4.0859,4.0859,4.1641,4.2969,4.1875,0.0,3.7578,3.543,0.0,0.0,0.0,0.0,0.0,0.0,0.0,0.0,0.0,0.0,0.0,0.0,0.0,0.0,0.0,0.0,0.0,0.0,0.0,0.0,0.0,2.5273,2.5703,2.5586,2.6602,2.6797,2.5703,2.625,2.6317,2.574,2.5575,2.5505,2.5505,2.4947,2.5149,2.6102,2.7747,2.8994,2.9843,3.0201,3.0405,3.0328,2.8936,2.8264,2.8086,2.6875,0.0,0.0,0.0,0.0,0.0,0.0,0.0,0.0,0.0,0.0,0.0,0.0,0.0,0.0,0.0,0.0,0.0,0.0,0.0,0.0,0.0,0.0,0.0,0.0,0.0,0.0,0.0,0.0,0.0,0.0,0.0,0.0,0.0,0.0,0.0,0.0,0.0,0.0,0.0,3.1338,3.1943,2.9944,3.1737,3.2557,0.0,0.0,0.0,0.0,0.0,0.0,0.0,0.0,0.0,3.8401,4.1316,4.2624,4.2124,4.4492,4.5519,4.5149,4.5768,4.6133,4.625,4.5742,4.5937,4.6562,4.5703,4.4414,4.2656,3.9101,3.7031,3.5937,0.0,0.0,0.0,0.0,0.0,3.4492,0.0,0.0,0.0,0.0,0.0,0.0,0.0,0.0,0.0,0.0,0.0,0.0,2.5361,2.6295,2.6721,2.6526,2.8137,2.8348,2.6406,2.7148,2.7075,2.5765,2.5582,2.5505,2.5505,2.5226,2.5803,2.7313,2.9164,3.0535,3.1364,3.1607,3.1684,3.1684,3.1531,3.0685,2.9302,2.7848,2.7148,2.6912,0.0,0.0,0.0,0.0,0.0,0.0,0.0,0.0,0.0,0.0,0.0,0.0,0.0,0.0,0.0,0.0,0.0,0.0,0.0,0.0,0.0,0.0,0.0,0.0,0.0,0.0,0.0,0.0,0.0,0.0,0.0,0.0,0.0,0.0,0.0,0.0,0.0,3.2408,3.3237,3.0151,3.3186,3.443,0.0,0.0,0.0,0.0,0.0,0.0,3.8384,4.081,4.2285,4.2646,4.5432,4.6624,4.5932,4.806,4.9185,4.9161,4.9204,4.957,5.0156,4.9297,4.9023,4.918,4.832,4.7695,4.6953,4.2422,3.9648,3.8125,3.6367,3.6094,3.6601,3.5937,3.6094,3.6875,0.0,0.0,0.0,0.0,0.0,0.0,0.0,0.0,0.0,0.0,0.0,2.2786,2.5254,2.6299,2.7451,2.9159,2.8656,2.8236,2.8163,2.6719,2.5785,2.5688,2.5582,2.5505,2.5505,2.6947,2.8113,2.8964,3.1481,3.3158,3.403,3.4864,3.5224,3.5224,3.4389,3.357,3.2629,2.9491,2.9023,3.0233,2.7735,0.0,0.0,0.0,0.0,0.0,0.0,0.0,0.0,0.0,0.0,0.0,0.0,0.0,0.0,0.0,0.0,0.0,0.0,0.0,0.0,0.0,0.0,0.0,0.0,0.0,0.0,0.0,0.0,0.0,0.0,0.0,0.0,0.0,0.0,0.0,0.0,0.0,0.0,3.1866,3.6017,0.0,0.0,0.0,0.0,3.6781,3.8343,4.0097,4.1857,4.4358,4.6416,4.7871,4.9682,5.0568,5.0356,5.076,5.0975,5.0945,5.0412,5.0156,5.0156,4.9297,4.9336,5.0078,4.9219,4.9297,4.9609,4.4414,4.1758,4.082,3.9062,3.8437,3.8476,3.8437,3.8437,3.8594,0.0,0.0,0.0,0.0,0.0,2.0586,2.0586,2.0586,2.1104,2.2478,2.2943,2.4091,2.6571,2.8044,2.913,2.9755,3.0288,2.9899,2.8281,2.7656,2.6861,2.5732,2.5564,2.5499,2.5437,2.7065,2.8576,3.001,3.1783,3.338,3.4773,3.4908,3.5096,3.525,3.4939,3.4726,3.4443,3.1138,2.9502,2.8945,2.7465,2.6333,0.0,0.0,0.0,0.0,0.0,0.0,0.0,0.0,0.0,0.0,0.0,0.0,0.0,0.0,0.0,0.0,0.0,0.0,0.0,0.0,0.0,0.0,0.0,0.0,0.0,0.0,0.0,0.0,0.0,0.0,0.0,0.0,0.0,0.0,0.0,0.0,0.0,3.6709,4.0123,0.0,3.8507,3.922,4.0178,4.1012,4.2801,4.4635,4.6432,4.8858,5.0445,5.0972,5.2539,5.3069,5.2433,5.3723,5.4116,5.3536,5.2911,5.2656,5.2578,5.1053,5.0611,5.0937,5.0,4.9796,4.9834,4.6845,4.5163,4.4258,4.1953,4.1406,4.1797,4.125,4.1406,4.1992,0.0,0.0,0.0,0.0,2.0586,2.0586,2.0586,2.0586,2.1193,2.2832,2.331,2.4721,2.8005,2.936,3.0445,3.1621,3.1554,3.071,2.9062,2.7991,2.6883,2.5732,2.5531,2.5577,2.5821,2.7456,2.8986,3.0376,3.1835,3.322,3.4507,3.4346,3.4521,3.4965,3.5072,3.5207,3.5215,3.2847,3.0907,2.9308,2.8153,2.7333,2.6722,0.0,0.0,0.0,0.0,0.0,0.0,0.0,0.0,0.0,0.0,0.0,0.0,0.0,0.0,0.0,0.0,0.0,0.0,0.0,0.0,0.0,0.0,0.0,0.0,0.0,0.0,0.0,0.0,0.0,0.0,0.0,0.0,0.0,0.0,0.0,4.0871,4.0317,4.3918,4.5372,4.2556,4.3458,4.4587,4.557,4.7345,4.9034,5.0547,5.2422,5.3555,5.3828,5.4719,5.49,5.4241,5.5511,5.59,5.5317,5.4431,5.3984,5.3945,5.2058,5.1237,5.1284,5.0664,5.0369,5.0223,4.8484,4.7469,4.68,4.4497,4.3942,4.4415,4.3794,4.3782,4.4101,0.0,0.0,0.0,2.0467,2.0547,2.0586,2.0586,2.0586,2.1163,2.2803,2.2787,2.4522,2.9368,2.9992,3.1384,3.4737,3.225,3.0539,3.0661,2.7472,2.5592,2.5582,2.5505,2.5851,2.6659,2.8275,2.9461,3.0166,3.1806,3.2889,3.3374,3.3412,3.3883,3.4713,3.4963,3.5069,3.5047,3.4534,3.3376,3.1745,2.9969,2.925,2.8983,0.0,0.0,0.0,0.0,0.0,0.0,0.0,0.0,0.0,0.0,0.0,0.0,0.0,0.0,0.0,0.0,0.0,0.0,0.0,0.0,0.0,0.0,0.0,0.0,0.0,0.0,0.0,0.0,0.0,0.0,0.0,0.0,0.0,3.6033,4.0931,4.3944,4.2581,4.7376,4.9547,4.6342,4.9157,5.0889,5.0194,5.1765,5.3164,5.3984,5.4883,5.5664,5.6367,5.6283,5.6121,5.5917,5.6109,5.6209,5.6153,5.4704,5.4023,5.3904,5.2058,5.1241,5.1164,5.1114,5.1045,5.0908,4.9164,4.8469,4.8287,4.6557,4.597,4.6078,4.5975,4.5445,4.4726,0.0,0.0,1.9535,1.9566,2.0156,2.0586,2.0586,2.0572,2.1103,2.278,2.365,2.5537,2.9265,3.0641,3.2015,3.3713,3.1651,3.0029,2.9644,2.7045,2.5522,2.5476,2.6033,2.6995,2.839,2.9296,3.0462,3.1897,3.2543,3.2959,3.3141,3.351,3.3918,3.4315,3.4405,3.4593,3.4794,3.4661,3.4281,3.365,3.166,3.0028,2.8632,0.0,0.0,0.0,0.0,0.0,0.0,0.0,0.0,0.0,0.0,0.0,0.0,0.0,0.0,0.0,0.0,0.0,0.0,0.0,0.0,0.0,0.0,0.0,0.0,0.0,0.0,0.0,0.0,0.0,0.0,0.0,3.7747,4.0681,4.2133,4.4119,4.6375,4.9029,5.1201,5.2222,5.1376,5.2298,5.2859,5.2759,5.3891,5.4687,5.4922,5.5781,5.6328,5.6523,5.64,5.626,5.6109,5.6186,5.59,5.5258,5.4939,5.4133,5.2884,5.2279,5.1687,5.1068,5.0328,4.9992,4.9876,4.8176,4.7468,4.7314,4.6391,4.605,4.6121,4.6159,4.6083,4.5859,0.0,1.8259,1.877,1.9151,1.9684,2.0195,2.0547,2.0521,2.1089,2.2772,2.3979,2.5948,2.9251,3.0597,3.1719,3.2768,3.083,2.9321,2.8725,2.6674,2.5608,2.5928,2.6418,2.7428,2.9044,2.9688,3.0624,3.1906,3.2306,3.2618,3.2834,3.2983,3.3332,3.3776,3.3666,3.3954,3.4427,3.4511,3.4649,3.4696,3.3487,3.2225,3.09,2.9014,2.8362,2.8431,2.8203,2.8515,2.9116,2.9359,0.0,0.0,0.0,0.0,0.0,0.0,0.0,0.0,0.0,0.0,0.0,0.0,0.0,0.0,0.0,0.0,0.0,0.0,0.0,0.0,0.0,0.0,0.0,0.0,4.1016,4.453,4.7681,4.8319,4.9495,5.2299,5.3567,5.4318,5.4531,5.4643,5.4791,5.4952,5.5513,5.5859,5.5859,5.6328,5.6601,5.6601,5.6484,5.6352,5.6201,5.6251,5.5827,5.4885,5.4718,5.3916,5.2558,5.2046,5.1563,0.0,4.999,4.9528,4.9375,4.772,4.6989,0.0,0.0,0.0,0.0,0.0,4.6216,4.6229,0.0,1.7587,1.803,1.8889,1.9202,1.9609,2.0469,2.0534,2.1074,2.2637,2.386,2.5743,2.8838,2.9849,3.0672,3.16,2.9807,2.8401,2.78,2.6348,2.5898,2.6732,2.6841,2.7648,2.9329,2.9928,3.0511,3.113,3.1731,3.2255,3.2664,3.2371,3.2637,3.3229,3.305,3.3311,3.3856,3.4202,3.4677,3.518,3.5039,3.4783,3.4073,3.0864,3.0365,3.134,3.0636,3.0125,2.983,3.0404,0.0,0.0,0.0,0.0,0.0,0.0,0.0,0.0,0.0,0.0,0.0,0.0,0.0,0.0,0.0,0.0,0.0,0.0,0.0,0.0,0.0,0.0,0.0,0.0,4.4258,4.724,5.202,5.2521,5.274,5.3605,5.4989,5.5994,5.6302,5.6343,5.6464,5.6718,5.664,5.6601,5.6601,0.0,0.0,0.0,0.0,5.6344,5.6191,5.6325,5.5861,5.4746,5.4329,5.355,5.2499,5.1619,5.1202,5.1029,4.9894,4.9356,4.9125,4.7548,4.6855,4.674,4.6078,4.5857,4.5982,4.6098,4.6136,0.0,0.0,1.6329,1.7126,1.8017,1.8779,1.9609,2.0469,2.0511,2.0787,2.1822,2.293,2.4429,2.6392,2.7811,2.8726,2.9077,2.811,2.7214,2.6427,2.6199,2.6466,2.7294,2.8169,2.932,3.0844,3.1421,3.1976,3.259,3.3142,3.3259,3.3008,3.3568,3.3764,3.3587,3.3552,3.3325,3.2957,3.3577,3.4582,3.5705,3.4665,3.3878,3.3276,3.2067,3.1368,3.0858,2.9666,3.058,3.2188,3.1069,3.1835,3.3064,3.1718,3.082,0.0,0.0,0.0,0.0,0.0,0.0,0.0,0.0,0.0,0.0,0.0,0.0,0.0,0.0,0.0,0.0,0.0,0.0,0.0,4.3086,4.668,4.9999,5.2209,5.3586,5.4688,5.5549,5.6379,5.6977,5.7131,5.7312,5.7494,5.7654,5.6992,5.6601,5.6601,5.6601,0.0,5.6601,5.6562,5.6462,5.6191,5.6325,5.5537,5.3858,0.0,0.0,5.1484,5.1896,5.1639,5.0875,4.9856,4.9009,4.8279,4.7355,4.6701,4.6215,4.5983,4.6006,4.6225,4.6264,4.6264,4.6267,0.0,1.5586,1.6231,1.7086,1.8037,1.8941,1.9779,2.0192,2.0697,2.1544,2.2413,2.3599,2.5277,2.6376,2.7056,2.7297,2.6569,2.6223,2.6569,2.67,2.729,2.8487,2.949,3.0342,3.108,3.2032,3.2583,3.2674,3.3223,3.328,3.2858,3.3002,3.3007,3.285,3.266,3.2784,3.3107,3.3466,3.4684,3.6295,3.5618,3.5061,3.4588,3.3507,3.282,3.2316,3.1145,3.1488,3.2348,3.1525,3.1763,3.2314,3.1921,3.1231,3.0547,0.0,0.0,0.0,0.0,0.0,0.0,0.0,0.0,0.0,0.0,0.0,0.0,0.0,0.0,3.582,3.7617,0.0,4.3164,4.5312,4.8906,5.1875,5.3086,5.4651,5.576,5.6018,5.6302,5.6533,5.6785,5.69,5.7017,5.7224,5.6836,5.6601,5.6601,5.6601,5.6601,5.6601,5.6601,5.6518,5.6313,5.6443,5.5577,5.3723,5.4271,5.3189,5.0703,5.1434,5.1244,5.0279,4.9279,4.8625,4.8105,4.6931,4.6321,4.61,4.6018,4.6115,4.6289,4.6289,4.6289,4.6289,0.0,1.5234,1.5559,1.6457,1.7256,1.8073,1.9082,1.9768,2.0466,2.1281,2.1883,2.2787,2.414,2.4874,2.5295,2.5424,2.4994,2.5394,2.6981,2.7261,2.8104,2.972,3.0659,3.1054,3.0847,3.2254,3.2773,3.2255,3.2755,3.2887,3.2647,3.2165,3.2,3.2093,3.19,3.238,3.3297,3.3581,3.491,3.6718,3.6738,3.6668,3.6448,3.4942,3.417,3.3769,3.2689,3.1912,3.1391,3.1303,3.0893,3.0546,3.1277,3.1095,3.0596,3.0575,2.9799,0.0,0.0,0.0,0.0,0.0,0.0,0.0,0.0,3.2877,3.4272,3.5477,3.6869,3.8633,4.1211,4.3203,4.5273,4.7695,5.082,5.3203,5.3906,5.5234,5.604,5.5808,5.5955,5.6186,5.6417,5.6483,5.6628,5.6835,5.6719,5.6601,5.6601,5.6601,5.6601,5.6601,5.6601,5.6523,5.6406,5.652,5.5672,5.3815,5.393,5.2656,5.0234,5.0712,5.0426,4.9483,4.8469,4.8068,4.8009,4.6552,4.6009,4.6142,4.6142,4.6201,4.6289,4.6289,4.6289,4.6289,0.0,1.5234,1.5559,1.6457,1.6748,1.7383,1.9059,1.926,1.9581,2.0504,2.11,2.1515,2.1795,2.2501,2.2893,2.2741,2.3294,2.4511,2.6532,2.7491,2.8725,3.042,3.1466,3.1541,3.0665,3.2203,3.2674,3.2004,3.2291,3.2581,3.2942,3.232,3.2239,3.2569,3.3053,3.3034,3.2704,3.3879,3.5336,3.6788,3.6734,3.7118,3.7564,3.6177,3.481,3.3349,3.1732,3.0662,2.9966,2.9598,2.9817,3.0279,3.0506,3.054,3.05,3.0497,2.9408,2.8374,2.9128,2.8161,2.7146,2.8076,2.9608,3.1678,0.0,3.6044,3.7149,3.8965,3.9968,4.1133,4.3086,4.5469,4.7773,4.9609,5.2148,5.3906,5.3984,5.4726,5.5221,5.521,5.6533,5.7422,5.7285,5.7556,5.7729,5.7734,5.7031,5.6601,5.6601,5.6601,5.6601,5.6601,5.6601,5.6523,5.6406,5.6518,5.5676,5.3815,5.393,5.2656,5.0195,5.0134,4.9596,4.8603,4.7581,4.728,4.7434,4.6485,4.6155,4.6275,4.6275,4.6279,4.6289,4.6289,4.6289,4.6289,0.0,0.0,1.5399,1.5793,1.6318,1.6914,1.7617,1.8125,1.852,1.8881,1.9588,2.0224,2.0695,2.191,2.2615,2.2312,2.304,2.4388,2.645,2.7859,2.9363,3.0988,3.2363,3.2696,3.18,3.2669,3.2863,3.2295,3.2126,3.2036,3.2047,3.1823,3.2029,3.2543,3.2816,3.3215,3.3694,3.4265,3.537,3.6742,3.7182,3.7024,3.6452,3.5521,3.3596,3.1412,3.0931,3.0034,0.0,2.8907,2.9088,2.9459,3.0036,3.0011,2.9752,2.9737,2.8953,2.8078,2.7868,2.801,2.8489,2.9484,3.1406,3.3662,3.6073,3.8009,3.9663,4.103,4.2286,4.372,4.5624,4.7266,4.875,0.0,5.1914,5.3242,5.3242,5.3516,5.3661,5.3619,5.3862,5.4571,5.5911,5.6188,5.6523,5.7109,5.6797,5.6601,5.6601,5.6601,5.6601,5.6601,5.6601,5.6562,5.6523,5.6055,5.5179,5.3914,5.3461,5.1914,4.9453,4.9926,4.9254,4.7713,4.7301,4.6875,4.65,4.6307,4.6247,4.6286,4.6286,4.6284,4.6289,4.6289,4.6289,4.6289,0.0,0.0,0.0,1.4967,1.5711,1.6396,1.6601,1.7161,1.7626,1.7823,1.8377,1.9065,1.9895,2.1058,2.1723,2.1607,2.2362,2.3646,2.5649,2.7287,2.9028,3.0844,3.2347,3.2794,3.2109,3.269,3.2688,3.1982,3.1759,3.1594,3.1421,3.1259,3.1632,3.2527,3.2706,3.3426,3.4472,3.4685,3.5485,3.6631,3.7068,3.643,3.5184,3.4328,3.1985,2.9268,2.9392,2.8502,2.7248,2.7377,2.7425,2.7653,2.8727,2.8899,2.8785,2.8859,2.8333,2.7652,2.7251,2.8202,2.9661,3.1114,3.3589,3.6118,3.7848,4.0099,4.2163,4.3201,4.4277,4.5546,4.7261,4.8125,4.8906,5.0039,5.1406,5.2344,5.2344,5.2344,5.2226,5.1914,5.1191,5.149,5.3546,5.4169,5.4922,5.6133,5.625,5.6367,5.6601,5.6601,5.6601,5.6601,5.6601,5.6601,5.6601,5.5742,5.4844,5.3984,5.2851,5.1133,4.8906,4.902,4.8282,4.6908,4.69,4.6542,4.5975,4.6204,4.6289,4.6289,4.6289,4.6289,4.6289,4.6289,4.6289,4.6289,0.0,0.0,0.0,0.0,1.4824,1.5728,1.6561,1.664,1.6965,1.786,1.7968,1.8252,1.9043,1.9189,1.9386,1.9832,2.0627,2.1831,2.3666,2.5226,2.7199,2.9626,3.0856,3.1296,3.0864,3.1947,3.1913,3.0664,3.0931,3.116,3.1373,3.0815,3.121,3.2527,3.3186,3.3878,3.4532,3.519,3.5924,3.6554,3.5917,3.5214,3.4386,3.2913,3.0274,2.7222,2.6693,2.5366,2.3894,2.4281,2.4316,2.4412,2.5958,2.6958,2.7684,2.7955,2.7472,2.7031,2.7851,2.8661,2.9941,3.2474,3.5714,3.8789,4.0664,4.2878,4.4893,4.595,4.6005,4.6215,4.7374,4.7617,4.8203,4.9922,5.0898,5.1445,5.1445,5.1445,5.1133,5.0351,4.9492,4.934,0.0,5.1818,5.3476,5.5195,5.5351,5.5703,5.6562,5.6601,5.6601,5.6601,5.6601,5.6601,5.6601,5.5742,5.4844,5.3984,5.2266,5.0547,4.8828,4.7031,4.619,4.6142,4.6121,4.6102,4.6094,4.625,4.6289,4.6289,4.6289,4.6289,4.6289,4.6289,4.6289,4.6289,0.0,0.0,0.0,0.0,0.0,1.5504,1.5788,1.5802,1.5935,1.6213,1.6714,0.0,0.0,0.0,0.0,0.0,2.02,2.1324,2.2129,2.4107,2.5829,2.6989,2.8913,2.9882,2.9748,3.0783,3.1115,3.0664,3.0625,3.09,3.1385,3.0768,3.1234,3.2523,3.3186,3.3602,3.3873,3.4565,3.4688,3.4478,3.3689,3.266,3.1399,2.9617,2.7577,2.5571,0.0,2.3709,2.3374,2.3523,2.3773,2.4081,2.4631,2.528,2.6047,2.6952,2.7417,2.7968,2.937,3.1203,3.3288,3.5919,3.8747,4.1328,4.3164,4.4667,4.5437,4.4646,4.3974,4.3477,4.3388,4.3789,4.4726,4.6484,4.8437,4.9726,4.9726,5.0234,5.0078,4.8633,4.8203,0.0,0.0,0.0,0.0,5.3437,5.4101,5.4805,5.5703,5.6289,5.6601,5.6601,5.6524,5.6232,5.5742,5.4765,5.3906,5.3125,5.082,4.9141,4.8008,4.668,4.6054,4.5968,4.6082,4.6061,4.5986,4.6205,4.6289,4.6289,4.6289,4.6289,4.6289,4.6289,4.6289,4.6289,0.0,0.0,0.0,0.0,0.0,0.0,0.0,0.0,0.0,0.0,0.0,0.0,0.0,0.0,0.0,0.0,0.0,2.0639,2.0766,2.2446,2.3871,2.4788,2.6302,2.7366,2.784,2.8273,2.8425,2.8323,2.8445,2.8806,2.9303,2.9192,2.9809,3.1157,3.1782,3.225,3.2465,3.2856,3.2728,3.2017,3.1148,2.9939,2.8487,2.6962,2.5562,0.0,2.3127,2.2848,2.3045,2.3165,2.3428,2.379,2.4174,2.4663,2.5394,2.6823,2.7838,2.9074,3.1714,3.4029,3.6373,3.9007,4.1357,4.3281,4.4219,4.4805,4.4755,4.3093,4.1969,4.1119,4.0388,4.0381,4.1328,4.3633,4.5234,4.6562,4.7812,4.8437,4.8398,4.7266,4.7422,4.7617,0.0,0.0,0.0,5.2109,5.332,5.4258,5.4805,5.5976,5.6328,5.5703,5.5849,5.5586,5.4843,5.3854,5.2656,5.1328,4.9687,4.8281,4.7109,4.6484,4.6085,4.5969,4.6123,4.6113,4.6003,4.6225,4.6289,4.6289,4.6289,4.6289,4.6289,4.6289,4.6289,4.6289,0.0,0.0,0.0,0.0,0.0,0.0,0.0,0.0,0.0,0.0,0.0,0.0,0.0,0.0,0.0,0.0,0.0,0.0,1.9653,2.0329,2.1467,2.3033,2.3239,2.3915,2.5261,2.4754,2.4315,2.3983,2.4649,2.5196,2.5515,2.6169,2.7144,2.8455,2.9175,2.9743,3.0235,3.031,2.9971,2.9346,2.8278,2.7127,2.5854,2.5133,2.4242,2.3299,2.284,2.2669,2.2721,2.3069,2.3224,2.3468,2.4521,2.5145,2.5813,2.7682,2.8812,3.039,3.4686,3.7047,3.893,4.1562,4.3489,4.4531,4.3867,4.3554,4.2929,4.1288,4.0052,3.9015,3.8179,3.7525,3.8202,4.1484,4.168,4.2539,4.5859,4.6406,4.6484,0.0,0.0,0.0,0.0,0.0,0.0,5.1172,0.0,5.3828,5.3945,5.5547,5.5703,5.4062,5.4671,5.4682,5.393,5.2948,5.125,4.8906,4.8906,4.8008,4.6289,4.6289,4.6211,4.6093,4.6251,4.6232,4.6095,4.6236,4.6289,4.6289,4.6289,4.6289,4.6289,4.6289,4.6289,4.6289,0.0,0.0,0.0,0.0,0.0,0.0,0.0,0.0,0.0,0.0,0.0,0.0,0.0,0.0,0.0,0.0,0.0,0.0,1.8932,1.9585,2.0094,2.0336,2.1405,2.2141,2.2494,2.3481,2.3951,2.3916,2.3683,2.4256,2.5485,2.4705,2.5082,2.6391,2.7049,2.7145,2.687,2.7344,2.7454,2.7026,2.5552,2.499,2.4814,2.3499,2.2819,2.2564,2.2439,2.2398,2.2453,2.2755,2.3576,2.459,2.5426,2.6619,2.7984,2.9564,3.1437,3.3662,3.6774,3.9273,4.1426,4.3534,4.4353,4.4531,4.3867,4.219,4.0096,3.7739,3.5974,3.4171,3.2104,3.4107,3.6612,3.8239,4.1562,0.0,4.6094,4.7969,0.0,4.7422,0.0,4.9297,4.8633,4.9141,0.0,0.0,5.0937,5.1719,5.2969,5.4062,5.4453,5.4023,5.4091,5.3763,5.3051,5.2136,5.0742,4.8906,4.8906,4.8008,4.6289,4.6289,4.6211,4.6094,4.6228,4.6202,4.6095,4.6236,4.6289,4.6289,4.6289,4.6289,4.6289,4.6289,4.6289,4.6289,0.0,0.0,0.0,0.0,0.0,0.0,0.0,0.0,0.0,0.0,0.0,0.0,0.0,0.0,0.0,0.0,0.0,0.0,0.0,1.9003,1.9109,1.8843,1.9522,1.9926,2.005,2.1105,2.1576,2.1479,2.1623,2.2227,2.3211,2.2626,2.2998,2.4182,2.467,2.4858,2.4876,2.5084,2.5037,0.0,0.0,2.3317,2.3227,2.2564,2.2327,2.2327,2.2327,2.2453,2.2868,2.3844,2.4801,2.5804,2.7215,2.8657,3.0194,3.2315,3.4397,3.6587,3.9264,4.1476,4.3401,4.4876,4.4984,4.4258,4.2461,4.0281,3.7705,3.4352,3.2792,3.1465,2.9648,3.1557,3.4091,3.6236,3.9357,4.2383,4.4805,4.6758,4.7851,0.0,4.8789,0.0,4.8945,4.9687,5.0195,0.0,5.084,5.1451,5.2005,5.3224,5.3555,5.2812,5.3065,5.2852,5.2064,5.1261,5.0195,4.8906,4.8437,4.7578,4.6289,4.625,4.6211,4.6172,0.0,4.6257,4.6173,4.6273,4.6289,4.6289,4.6289,4.6289,4.6289,4.6289,4.6289,4.6289,0.0,0.0,0.0,0.0,0.0,0.0,0.0,0.0,0.0,0.0,1.5703,0.0,0.0,0.0,0.0,0.0,0.0,0.0,0.0,0.0,1.8467,1.8211,1.7997,1.7944,1.8191,1.8697,1.8814,1.8529,1.9342,1.996,2.0305,2.0395,2.0988,2.1967,2.2248,2.278,2.3409,2.3096,2.2927,2.2797,2.2537,2.2141,2.1735,0.0,2.2327,2.2327,2.2327,2.2668,2.3424,2.5374,2.6372,2.7142,2.9418,3.0982,3.2582,3.5334,3.73,3.91,4.1635,4.341,4.4718,4.5542,4.5101,4.3587,4.0272,3.7965,3.533,3.1284,3.0286,2.9886,2.9017,2.9929,3.1891,3.5251,3.6755,3.9022,4.3281,4.4609,4.5781,4.7422,4.8359,4.8906,4.8906,4.957,5.0038,4.999,5.1334,5.1894,5.1222,5.262,5.2689,5.1094,5.1797,5.1836,5.1055,5.0391,4.9648,4.8867,4.7885,4.702,4.6278,4.6015,4.6055,4.6289,0.0,0.0,4.6289,4.6289,4.6289,4.6289,4.6289,4.6289,4.6289,4.6289,4.6289,4.6289,0.0,0.0,0.0,0.0,0.0,0.0,0.0,0.0,0.0,0.0,1.7383,1.6435,0.0,0.0,0.0,0.0,0.0,0.0,0.0,0.0,0.0,1.82,1.8154,1.8147,1.8203,1.8888,1.9211,1.9227,1.9143,1.95,2.0281,1.945,1.9432,2.0182,2.0575,2.0803,2.0931,2.1267,2.1582,2.184,2.1771,2.1956,2.218,2.2265,0.0,0.0,2.2327,2.2507,2.3089,2.5039,2.6971,2.8927,3.1111,3.3393,3.5628,3.7356,3.9082,4.0843,4.2819,4.3974,4.4731,4.4933,4.3839,4.1839,3.8458,3.521,3.2052,2.911,2.8394,2.8093,2.7198,3.0044,3.3224,3.5418,3.7704,4.0482,4.4257,4.5508,4.6445,4.7461,4.8359,4.8906,4.8906,4.9023,0.0,0.0,0.0,5.0544,5.1164,5.1426,5.1147,5.0234,5.0469,5.0547,5.0351,4.9531,4.8984,4.8711,4.7835,4.696,4.6109,4.5347,4.5508,4.625,0.0,0.0,4.6289,4.6289,4.6289,4.6289,4.6289,4.6289,4.6289,4.6289,4.6289,4.6289,0.0,0.0,0.0,0.0,0.0,0.0,0.0,1.7344,1.7969,1.9727,1.9601,1.8999,1.8068,1.864,1.8943,0.0,0.0,0.0,0.0,0.0,0.0,0.0,1.8073,1.8188,1.8564,1.9083,1.9568,1.999,0.0,1.9845,2.0273,1.9564,1.963,2.0345,2.0313,2.0671,2.1334,2.1334,2.1558,2.1978,2.2128,2.2219,2.2327,0.0,0.0,0.0,2.2717,2.2943,2.3481,2.5283,2.6957,2.8883,3.192,3.4373,3.65,3.8404,4.0234,4.1905,4.3245,4.4487,4.5319,4.4917,4.32,4.0584,3.6612,3.3299,3.026,2.7144,2.678,2.711,2.7264,2.9275,3.1684,3.4029,3.5446,3.7843,4.2304,4.3359,4.4648,4.7266,4.7969,4.8203,4.8203,4.8644,4.8666,0.0,0.0,4.9266,4.9663,4.9682,4.955,4.9335,4.9375,4.9453,4.9531,4.8672,4.8145,4.802,4.7062,4.6159,4.5384,4.5367,4.5469,4.5586,4.5664,0.0,4.6289,4.6289,4.6289,4.6289,4.6289,4.6289,4.6289,4.6289,4.6601,4.6914,0.0,0.0,0.0,0.0,0.0,0.0,1.7724,1.8123,1.8906,2.0898,2.1679,2.1565,2.0185,1.9787,1.9401,0.0,0.0,0.0,0.0,0.0,0.0,0.0,0.0,1.8065,1.8642,0.0,0.0,2.0256,2.0398,0.0,0.0,0.0,0.0,0.0,2.0559,2.1083,2.2136,2.1877,2.1973,0.0,0.0,2.2587,0.0,0.0,0.0,0.0,0.0,2.3405,2.3929,2.5337,2.6585,2.8116,3.1393,3.4054,3.6292,3.8208,4.0465,4.2461,4.3164,4.4726,4.5898,4.4844,4.2649,3.9561,3.5034,3.1949,2.9077,2.5741,2.5729,2.6568,2.739,2.8395,2.994,3.2413,3.3035,3.497,4.0037,4.1016,4.2656,4.6562,4.7226,0.0,4.7305,4.7932,0.0,0.0,0.0,0.0,4.8238,4.8279,4.8319,4.8396,4.8394,4.8476,4.8633,4.7721,4.7306,4.7332,4.6352,4.5526,4.4961,4.5414,4.5458,4.5195,4.5781,0.0,0.0,4.6289,4.6289,4.6289,4.6289,4.6289,4.6289,4.6289,4.6719,4.7266,0.0,0.0,0.0,0.0,0.0,0.0,1.7714,1.8681,2.0078,2.2539,2.2937,2.292,2.2769,2.1904,2.0929,0.0,0.0,0.0,0.0,0.0,0.0,0.0,0.0,0.0,0.0,0.0,0.0,1.9509,2.0435,0.0,0.0,0.0,0.0,0.0,0.0,2.1239,2.1687,2.2068,0.0,0.0,0.0,0.0,0.0,0.0,0.0,0.0,0.0,2.3406,2.3833,2.4704,2.5761,2.6971,2.8462,3.1768,3.5169,3.5919,3.9056,4.2344,4.2461,4.4375,4.5898,4.4219,4.1824,3.8723,3.4182,3.1035,2.8297,2.5428,2.5598,2.6325,2.6415,2.7905,2.9713,3.1607,3.2617,3.4775,3.9293,4.0664,4.2187,4.4922,4.5937,4.6406,4.6406,4.6488,0.0,0.0,0.0,0.0,4.8048,4.822,4.7987,4.7345,4.7462,4.7578,4.7734,4.6745,4.659,4.7216,4.6275,4.5757,4.568,4.5086,4.5259,4.5976,4.5351,0.0,0.0,4.6289,4.6289,4.6289,4.6289,4.6289,4.6289,4.6289,4.6367,4.6562,0.0,0.0,0.0,0.0,0.0,0.0,1.8414,1.9052,2.0353,2.3476,2.3844,2.3814,2.3832,2.298,2.1789,2.0172,0.0,0.0,0.0,0.0,0.0,0.0,0.0,0.0,0.0,0.0,1.9777,2.0068,2.0416,0.0,0.0,0.0,0.0,0.0,0.0,0.0,2.204,2.2231,0.0,0.0,0.0,0.0,0.0,0.0,0.0,0.0,0.0,0.0,2.4046,2.436,2.4864,2.5467,2.6059,2.8252,3.1155,3.4121,3.7436,4.0391,4.1992,4.4297,4.5854,4.4075,4.0889,3.7215,3.3532,2.9845,2.6682,2.4978,2.4949,2.5454,2.6173,2.6466,2.7405,2.9775,2.9709,3.1033,3.5923,3.6555,3.8242,4.2891,4.375,4.457,0.0,0.0,0.0,0.0,0.0,0.0,4.6547,4.6642,4.6604,4.6355,4.6448,4.6512,4.659,4.6244,4.618,4.6352,4.5988,4.5526,4.5026,4.5312,4.5385,4.5404,4.5648,0.0,0.0,4.6289,4.6289,4.6289,4.6289,4.6289,4.6289,4.6289,4.6953,4.7773,0.0,0.0,0.0,0.0,0.0,1.6128,1.8511,1.9097,2.0299,2.3242,2.382,2.3945,2.3966,2.3134,2.2024,2.0675,2.0127,0.0,0.0,0.0,0.0,0.0,0.0,0.0,0.0,0.0,1.9845,2.0167,2.0544,2.0592,0.0,0.0,0.0,0.0,0.0,0.0,0.0,0.0,0.0,0.0,0.0,0.0,0.0,0.0,0.0,0.0,0.0,0.0,0.0,0.0,0.0,2.4635,2.4804,2.5826,2.7672,3.1482,3.5057,3.8233,4.0301,4.2919,4.4721,4.3191,3.9643,3.5801,3.2806,2.8906,2.5629,2.4616,2.4469,2.4754,2.562,2.5791,2.6403,2.8377,2.8257,2.9399,3.3549,3.3952,3.5664,4.0664,0.0,4.2695,0.0,4.5932,0.0,0.0,0.0,0.0,0.0,4.5586,4.5663,4.5796,4.5834,4.5873,4.5911,4.5988,4.595,4.5796,4.5757,4.5449,4.4927,4.558,4.5673,4.531,0.0,0.0,0.0,4.6289,4.6289,4.6328,4.6562,4.668,4.668,4.668,4.7617,4.8672,0.0,0.0,0.0,0.0,0.0,0.0,1.7663,1.8695,1.9922,2.1602,2.2561,2.3124,2.3093,2.2239,2.1637,2.1694,2.0589,0.0,0.0,0.0,0.0,0.0,0.0,0.0,0.0,0.0,2.0089,1.9418,2.0893,2.1401,2.0993,2.0985,2.1175,2.1591,0.0,0.0,0.0,0.0,0.0,0.0,0.0,0.0,2.419,0.0,0.0,0.0,0.0,0.0,0.0,0.0,0.0,0.0,0.0,2.5062,2.5514,2.7562,3.1844,3.6122,3.6949,3.97,4.2097,4.1155,3.8098,3.4611,3.1834,2.8365,2.5427,2.4394,2.4356,2.4485,2.4541,2.6209,2.7614,2.7714,2.932,3.1222,3.3041,3.4106,3.5664,0.0,0.0,4.0937,4.3476,4.5055,0.0,0.0,0.0,0.0,0.0,4.5586,4.5663,4.5796,4.5796,4.5834,4.5911,4.5834,4.5796,4.5796,4.568,4.568,4.5813,4.5875,4.5968,0.0,0.0,0.0,0.0,4.6289,4.6289,4.6406,4.7266,4.7578,4.7578,4.7578,4.8125,4.8789,0.0,0.0,0.0,0.0,0.0,0.0,1.6911,1.7854,1.9048,2.0741,2.1696,2.2439,2.2962,2.22,2.1642,2.1634,2.062,0.0,0.0,0.0,0.0,0.0,0.0,0.0,0.0,1.9725,2.0238,1.9792,2.1016,2.1516,2.1417,2.1111,2.1205,2.1599,2.1599,0.0,0.0,0.0,0.0,0.0,0.0,2.4092,2.419,0.0,0.0,0.0,0.0,0.0,0.0,0.0,0.0,0.0,0.0,0.0,0.0,2.6078,2.9168,3.2651,3.4129,3.6151,3.7617,3.6704,3.416,3.1466,2.9808,2.7065,2.4764,2.4282,2.4226,2.4377,2.4634,2.525,2.6157,2.7586,2.8434,2.9504,3.1204,3.2817,0.0,3.8203,4.1953,4.4609,0.0,0.0,0.0,0.0,0.0,0.0,0.0,4.5586,4.5624,4.5663,4.5757,4.5757,4.5719,4.5757,4.5757,4.5663,4.5719,4.5796,4.5873,4.5982,0.0,0.0,0.0,0.0,0.0,4.6289,4.6289,4.6328,4.6601,4.707,4.7617,4.7617,4.8516,4.957,0.0,0.0,0.0,0.0,0.0,0.0,1.6483,1.7124,1.8009,1.9394,2.0282,2.1158,2.1984,2.1559,2.1347,2.1616,2.074,0.0,0.0,0.0,0.0,0.0,0.0,0.0,1.861,1.9891,2.0372,2.0014,2.1262,2.1864,2.1864,2.1606,2.1635,2.1853,2.1853,2.2032,0.0,0.0,0.0,0.0,2.3976,2.419,2.419,0.0,0.0,0.0,0.0,0.0,0.0,0.0,0.0,0.0,0.0,0.0,0.0,0.0,2.693,2.91,3.1195,3.301,3.4118,3.3441,3.1451,2.9358,2.8231,2.6116,2.4356,2.4226,2.419,2.4284,2.451,2.4941,2.5669,2.702,2.797,2.891,3.0022,3.175,0.0,3.7226,0.0,0.0,0.0,0.0,0.0,0.0,0.0,0.0,0.0,4.5586,4.5586,4.5586,4.568,4.568,4.5586,4.568,4.568,4.5586,4.5757,4.5808,4.5866,4.5962,0.0,0.0,0.0,0.0,0.0,4.6289,4.6289,4.6328,4.6641,4.7305,4.8086,4.8086,4.8984,5.0,0.0,0.0,0.0,0.0,0.0,0.0,0.0,1.656,1.7004,1.7784,1.8663,1.9536,2.0385,2.0489,2.0803,2.1635,2.1015,0.0,0.0,0.0,0.0,0.0,0.0,0.0,1.8693,2.0076,2.0581,2.0083,2.163,2.2395,2.2395,2.2429,2.2429,2.2367,2.2367,2.2361,0.0,0.0,0.0,0.0,2.4089,2.419,0.0,0.0,0.0,0.0,0.0,0.0,0.0,0.0,0.0,0.0,0.0,0.0,0.0,0.0,0.0,0.0,0.0,3.01,3.1272,3.0996,2.9622,2.8048,2.7043,2.5466,0.0,2.419,2.419,2.4226,2.4282,2.5174,2.6019,2.6265,2.7903,2.9235,2.9558,3.1172,0.0,0.0,3.9961,0.0,0.0,0.0,0.0,0.0,0.0,0.0,0.0,4.5586,4.5586,4.5586,4.5586,4.5586,4.5586,4.5586,4.5586,4.5624,4.5757,4.5773,4.5711,4.5873,0.0,0.0,0.0,0.0,0.0,4.6289,4.6289,4.6367,4.7187,4.8047,4.8828,4.8867,4.9414,5.0,0.0,0.0,0.0,0.0,0.0,0.0,0.0,0.0,0.0,0.0,1.8648,1.9525,2.0336,2.0986,2.1497,0.0,0.0,0.0,0.0,0.0,0.0,0.0,0.0,0.0,1.9452,2.0308,2.0825,2.0914,2.2429,2.3139,2.3139,2.3714,2.365,2.3148,2.3148,2.2941,0.0,0.0,0.0,0.0,2.4085,2.419,0.0,0.0,0.0,0.0,2.4908,2.5072,0.0,0.0,0.0,0.0,0.0,0.0,0.0,0.0,2.5303,2.5398,2.5865,0.0,2.6577,2.6529,2.5987,2.5394,0.0,2.4634,2.419,2.419,2.419,2.4431,2.5208,2.5185,2.5754,2.782,2.8262,2.882,3.0143,3.3626,0.0,3.875,4.1601,0.0,0.0,0.0,0.0,0.0,0.0,0.0,0.0,4.5586,4.5624,4.5757,4.5624,4.5586,4.5586,4.5586,4.5624,4.5757,4.5834,4.556,4.4986,4.5714,0.0,0.0,0.0,0.0,4.6133,4.625,4.6289,4.6328,4.6523,4.7148,4.8008,4.8633,4.9023,4.9258,0.0,0.0,0.0,0.0,0.0,0.0,0.0,0.0,0.0,0.0,1.8367,1.9468,2.0312,2.1218,2.19,0.0,0.0,0.0,0.0,0.0,0.0,0.0,0.0,1.9775,1.9932,2.0498,2.0987,2.137,2.2411,2.3067,2.3425,2.3819,2.3796,2.3395,2.3148,2.3021,0.0,0.0,0.0,2.397,2.4129,0.0,0.0,0.0,0.0,0.0,2.5072,2.5226,0.0,2.5303,2.5303,2.5303,0.0,0.0,0.0,0.0,2.5303,2.5283,2.5065,2.526,2.55,2.5352,2.5189,2.5028,2.4928,2.4543,2.419,2.419,2.419,2.4377,2.5028,2.4955,2.5423,2.7383,2.7884,2.8801,3.0937,0.0,3.6328,3.8437,4.0625,0.0,0.0,0.0,0.0,0.0,0.0,0.0,0.0,4.5663,4.5719,4.5719,4.5703,4.5679,4.568,4.524,4.5047,4.5103,4.4793,4.46,4.4542,4.5103,4.5295,0.0,0.0,0.0,4.6094,4.625,4.6289,4.6289,4.6289,4.6836,4.7656,4.8125,4.8281,4.8437,0.0,0.0,0.0,0.0,0.0,0.0,0.0,0.0,0.0,0.0,0.0,0.0,0.0,0.0,0.0,0.0,0.0,0.0,0.0,0.0,0.0,0.0,2.0001,1.9982,2.0391,2.0637,2.1113,2.1843,2.2351,2.2983,2.3659,2.3823,2.3806,2.3608,2.3136,2.3063,2.3293,0.0,0.0,2.419,2.4247,0.0,0.0,0.0,0.0,0.0,0.0,0.0,0.0,2.5244,2.5254,2.5303,2.5244,0.0,0.0,0.0,0.0,0.0,2.5041,2.5639,2.6231,2.5677,2.5493,2.5422,2.5245,2.4688,2.419,2.419,2.4228,2.4339,2.4632,2.4873,2.5423,2.6584,2.7808,2.9515,3.2067,3.332,3.4805,3.7031,0.0,0.0,0.0,0.0,0.0,0.0,0.0,0.0,0.0,4.5526,4.5526,4.5449,4.5428,4.5389,4.5411,4.4662,4.4316,4.4316,4.3697,4.3722,4.4316,4.4449,4.4872,0.0,0.0,0.0,4.6087,4.621,4.6289,4.6289,4.6289,4.6758,4.7422,4.7539,4.7539,4.7539,0.0,0.0,0.0,0.0,0.0,0.0,0.0,0.0,0.0,0.0,0.0,0.0,0.0,0.0,0.0,0.0,0.0,0.0,0.0,0.0,0.0,2.2307,2.0667,2.0284,2.1279,2.0968,2.151,2.2968,2.3755,2.435,2.4809,2.5734,2.5681,2.4746,2.4264,2.3883,2.3651,2.3963,0.0,2.4209,2.4408,0.0,0.0,0.0,0.0,0.0,0.0,0.0,0.0,2.5099,2.5182,2.5283,2.5099,0.0,0.0,0.0,0.0,0.0,2.4929,2.5937,2.6688,2.5066,2.4578,2.4413,2.4375,2.4282,2.419,2.419,2.4321,2.4666,2.5388,2.5808,2.6605,0.0,0.0,3.2076,0.0,0.0,3.6836,0.0,0.0,0.0,0.0,0.0,0.0,0.0,0.0,0.0,0.0,4.4586,4.4636,4.4855,4.3991,4.3551,4.3618,4.4064,4.4355,4.4449,4.4344,4.4383,4.4449,4.4487,4.4526,0.0,0.0,4.5138,4.5852,4.6036,4.6133,4.6133,4.625,4.6367,4.6601,4.7344,4.7148,4.6601,0.0,0.0,0.0,0.0,0.0,0.0,0.0,0.0,0.0,0.0,0.0,0.0,0.0,0.0,0.0,0.0,0.0,0.0,0.0,0.0,2.3875,2.2898,2.1742,2.1568,2.2465,2.2392,2.2932,2.4122,2.4774,2.5259,2.5638,2.5562,2.5432,2.5207,2.4179,2.3692,2.3729,2.406,2.419,2.4209,0.0,0.0,0.0,0.0,0.0,0.0,0.0,0.0,0.0,0.0,2.5224,2.5293,2.5203,0.0,0.0,0.0,0.0,0.0,2.4902,2.5355,2.564,2.4613,2.4948,2.5364,2.4961,2.4598,2.4357,2.4357,2.451,2.4798,2.5242,0.0,2.7281,3.0151,0.0,3.3228,3.453,0.0,0.0,0.0,0.0,0.0,0.0,0.0,0.0,0.0,0.0,0.0,0.0,0.0,4.3843,4.3898,4.3387,4.2909,4.2447,4.2777,4.3201,4.3756,4.3294,4.3294,4.3756,4.4179,4.4372,4.4316,0.0,4.5439,4.581,4.5936,4.5998,4.6011,4.6129,4.6172,4.6328,4.7266,4.793,4.8398,0.0,0.0,0.0,0.0,0.0,0.0,0.0,0.0,0.0,0.0,0.0,0.0,0.0,0.0,0.0,0.0,0.0,0.0,0.0,2.4491,2.43,2.3621,2.317,2.3182,2.3618,2.3677,2.4228,2.5308,2.5711,2.6121,2.6552,2.5482,2.5219,2.5568,2.4188,2.3656,2.3821,2.4097,2.4228,2.4303,0.0,0.0,0.0,0.0,0.0,0.0,0.0,0.0,0.0,0.0,0.0,0.0,0.0,0.0,0.0,2.5303,2.5303,2.5252,2.4902,2.494,2.4926,2.4358,2.5144,2.5988,2.5731,2.5356,2.5127,2.5313,2.5528,2.5636,2.5374,2.6326,0.0,3.1553,3.2981,3.4023,0.0,0.0,0.0,0.0,0.0,0.0,0.0,0.0,0.0,0.0,0.0,0.0,0.0,0.0,4.3018,4.2941,4.2694,4.2217,4.1508,4.1508,4.1931,4.2777,4.2316,4.2547,4.3393,4.4008,4.4393,4.4624,4.5201,4.5565,4.5757,4.5834,4.5873,4.589,4.6014,4.603,4.6163,4.7137,4.8511,4.9766,0.0,0.0,0.0,0.0,0.0,0.0,0.0,0.0,0.0,0.0,0.0,0.0,0.0,0.0,0.0,0.0,0.0,0.0,0.0,2.4988,2.5395,2.5332,2.5034,2.4804,2.4609,2.402,2.4597,2.6504,2.6652,2.7068,2.7765,2.6933,2.6334,2.5922,2.5063,2.4485,2.4153,2.419,2.4284,2.4513,2.47,0.0,0.0,0.0,0.0,0.0,0.0,0.0,0.0,0.0,0.0,0.0,0.0,0.0,2.5303,2.5303,2.5303,2.5252,2.4902,2.5341,2.5646,2.4506,2.43,2.474,2.6209,2.6691,2.7008,2.7699,0.0,0.0,0.0,2.7938,2.9901,3.1719,3.3473,0.0,0.0,0.0,0.0,0.0,0.0,0.0,0.0,0.0,0.0,0.0,0.0,0.0,0.0,0.0,0.0,4.211,4.1193,4.0677,4.0585,4.0585,4.1046,4.1893,4.2662,4.3431,4.4201,4.4278,4.4739,4.547,4.4739,4.4855,4.5624,4.5757,4.5813,4.5808,4.588,4.5906,4.6021,4.6891,4.7908,4.8789,0.0,0.0,0.0,0.0,0.0,0.0,0.0,0.0,0.0,0.0,0.0,2.2773,2.3085,0.0,0.0,0.0,0.0,0.0,0.0,2.5041,2.5512,2.5486,2.5226,2.522,2.5476,2.563,2.5978,2.66,2.6895,2.7573,2.8526,2.6264,2.5622,2.6322,2.4777,2.4125,2.419,2.419,2.4303,2.451,2.4716,2.4836,0.0,0.0,0.0,0.0,0.0,0.0,0.0,0.0,2.5303,2.5303,2.5214,2.5234,2.5303,2.5303,2.5303,2.5273,2.4993,2.5158,2.5215,2.4534,2.4497,2.494,0.0,2.6916,2.7403,2.8124,2.9087,0.0,0.0,0.0,3.1002,3.3288,3.4246,0.0,0.0,0.0,0.0,0.0,0.0,0.0,0.0,0.0,0.0,0.0,0.0,0.0,0.0,0.0,0.0,4.0385,4.0446,4.0239,3.9738,4.0239,4.0392,4.0277,4.22,4.297,4.2816,4.4393,4.4701,4.4085,4.4778,4.5278,4.5586,4.5624,4.568,4.568,4.5796,4.6552,4.7564,4.7897,4.8928,5.0176,0.0,0.0,0.0,0.0,0.0,0.0,0.0,0.0,2.0586,0.0,0.0,0.0,0.0,2.418,0.0,0.0,0.0,0.0,2.3937,2.4641,2.5232,2.5495,2.5303,2.5359,2.5668,2.6599,2.6927,2.6577,2.6863,2.7426,2.8213,2.6016,2.5585,2.6507,2.4944,2.4361,2.4557,2.43,2.4339,2.4607,2.4746,2.4942,0.0,0.0,0.0,0.0,0.0,0.0,0.0,0.0,2.539,2.5341,2.5303,2.5303,2.5303,2.5303,2.5303,2.5206,2.4759,2.4801,2.4879,2.4332,2.47,2.5565,2.7113,2.7846,2.8616,3.0089,3.0662,3.0921,3.0971,0.0,0.0,0.0,0.0,0.0,0.0,0.0,0.0,0.0,0.0,0.0,0.0,0.0,0.0,0.0,0.0,0.0,0.0,0.0,0.0,0.0,3.9446,3.9431,3.8892,3.9431,3.9546,3.9315,4.1316,4.2124,4.1893,4.4162,4.4547,4.3547,4.497,4.5586,4.5586,4.5586,4.5586,4.5586,4.5719,4.6488,4.7625,4.8163,4.9163,5.0314,0.0,0.0,0.0,0.0,0.0,0.0,0.0,0.0,2.0586,2.0586,2.1367,0.0,0.0,0.0,0.0,0.0,0.0,0.0,2.3002,2.3821,2.4662,2.5466,2.5505,2.5341,2.5024,2.6629,2.7189,2.6612,2.6612,2.6597,2.6585,2.6585,2.6602,2.6539,2.5768,2.5421,2.5348,2.452,2.4445,2.4804,2.4804,2.5057,2.539,0.0,0.0,0.0,0.0,0.0,0.0,0.0,2.5466,2.539,2.5303,2.5303,2.5303,2.5303,2.5303,2.5091,2.4099,2.4407,2.4752,2.3761,2.479,2.6575,2.8798,2.9712,3.099,3.4055,3.3201,3.1917,3.1915,3.1348,0.0,0.0,0.0,0.0,0.0,0.0,0.0,0.0,0.0,0.0,0.0,0.0,0.0,0.0,0.0,0.0,0.0,0.0,0.0,0.0,3.8007,3.8007,3.8007,3.8007,3.843,3.9277,4.0085,4.0931,4.1854,4.3547,4.4316,4.4355,4.5201,4.5586,4.5586,4.5586,4.5586,4.5586,4.5586,4.5586,4.5817,4.7509,4.8202,4.8567,0.0,0.0,0.0,0.0,0.0,0.0,0.0,0.0,2.0586,2.0586,2.1367,0.0,0.0,0.0,0.0,0.0,0.0,0.0,2.3868,2.4161,2.4684,2.5534,2.5543,2.539,2.5072,2.5399,2.6296,2.7662,2.7102,2.6743,2.6597,2.6029,2.5752,2.5731,2.5531,2.509,2.4539,2.445,2.4559,2.4818,2.4904,2.5115,2.5409,0.0,0.0,0.0,0.0,0.0,0.0,0.0,0.0,0.0,2.5303,2.5341,2.5351,2.5303,2.5341,2.5303,2.4955,2.5022,2.5258,2.545,2.626,2.7623,2.9715,3.0182,0.0,0.0,3.3517,3.2776,3.2852,0.0,0.0,0.0,0.0,0.0,0.0,0.0,0.0,0.0,0.0,0.0,0.0,0.0,0.0,0.0,0.0,0.0,0.0,0.0,0.0,0.0,3.77,3.77,3.7084,3.77,3.8123,3.8392,3.9238,4.0392,4.1854,4.3547,4.4316,4.4355,4.5201,4.5586,4.5586,4.5586,4.5586,4.5586,4.5586,4.597,4.6624,4.7702,4.8509,4.924,0.0,0.0,0.0,0.0,0.0,0.0,2.0586,2.0586,2.0586,2.0586,2.1055,2.1523,0.0,0.0,0.0,2.2461,2.2501,0.0,2.3689,2.4099,2.4674,2.5529,2.5536,2.5567,2.5687,2.5562,2.6091,2.7257,2.6391,2.5857,2.5761,2.5866,2.5878,2.5878,2.6209,2.5915,2.5164,2.5041,2.4907,2.4818,2.4968,2.5214,2.5447,0.0,0.0,0.0,0.0,0.0,0.0,0.0,0.0,0.0,2.5341,2.5341,2.5313,2.4928,2.4851,2.4812,2.4428,2.4543,2.4985,2.5707,2.7051,2.8654,3.0591,3.1741,0.0,0.0,3.4685,3.4168,3.4285,3.3091,0.0,0.0,0.0,0.0,0.0,0.0,0.0,0.0,0.0,0.0,0.0,0.0,0.0,0.0,0.0,0.0,0.0,0.0,0.0,0.0,3.6738,3.6738,3.6238,3.6738,3.7353,3.8007,3.8546,3.9854,4.1816,4.2854,4.3316,4.3355,4.4586,4.5278,4.5586,4.5586,4.5586,4.5586,4.5586,4.5932,4.6471,4.7317,4.7971,4.8548,0.0,0.0,1.9396,2.0265,0.0,0.0,2.0586,2.0586,2.0586,2.0586,2.0586,2.0898,0.0,0.0,0.0,2.176,2.1751,2.2115,2.3081,2.384,2.4647,2.5468,2.5496,2.5829,2.6467,2.6467,2.6297,2.5929,2.5035,2.4568,2.4479,2.5943,2.6576,2.6539,2.731,2.7236,2.645,2.5857,2.5281,2.4818,2.5031,2.5291,2.5495,2.5553,0.0,0.0,0.0,0.0,0.0,0.0,0.0,0.0,2.5341,2.5303,2.5159,2.4428,2.4168,2.3937,2.3235,2.3629,2.4437,2.5313,2.7495,2.9829,3.1405,3.3832,3.5875,3.6343,0.0,3.5592,3.5572,3.3699,0.0,0.0,0.0,0.0,0.0,0.0,0.0,0.0,0.0,0.0,0.0,0.0,0.0,0.0,0.0,0.0,0.0,0.0,0.0,3.5391,3.5468,3.5493,3.5493,3.5493,3.6315,0.0,3.7969,3.9238,4.1585,4.1739,4.1893,4.2124,4.3624,4.4778,4.5586,4.5509,4.5509,4.5586,4.5586,4.5586,4.5701,4.6586,4.6894,4.7048,0.0,0.0,2.0111,2.035,0.0,0.0,2.0586,2.0586,2.0586,2.0586,2.0586,2.0664,2.0859,2.0703,0.0,2.2611,2.2096,2.2614,2.4726,2.4508,2.4689,2.5538,2.5543,2.5523,2.5582,2.5572,2.5461,2.5197,2.5513,2.5174,2.4302,2.5862,2.6245,2.5695,2.6502,2.6392,2.5625,2.5157,2.4911,2.4832,2.5191,2.5395,2.5505,2.558,2.5646,0.0,0.0,0.0,0.0,0.0,0.0,0.0,2.539,2.539,2.5351,2.512,2.462,2.4245,2.4659,2.4889,2.5428,2.6967,2.959,3.1851,3.2233,3.3363,3.4051,3.3158,3.3955,3.4466,3.3219,0.0,0.0,0.0,0.0,0.0,0.0,0.0,0.0,0.0,0.0,0.0,0.0,0.0,0.0,0.0,0.0,0.0,0.0,0.0,0.0,3.4507,3.5161,3.5493,3.5493,3.5493,3.6007,0.0,3.7661,3.8661,3.9892,4.12,4.2508,4.3778,4.4124,4.4778,4.5547,4.4855,4.497,4.5586,4.5586,4.5586,4.5701,4.6586,4.6894,4.7009,0.0,0.0,0.0,0.0,0.0,0.0,0.0,0.0,2.1055,2.0664,2.0586,2.0586,2.0586,2.0586,0.0,0.0,2.2364,2.3055,2.4754,2.4889,2.5078,2.5566,2.5529,2.5466,2.5341,2.5303,2.5171,2.4904,2.5263,2.5051,2.4376,2.5498,2.5805,2.5458,2.6245,2.6135,2.5404,2.5394,2.516,2.4859,2.5252,2.5502,2.5575,2.5613,2.566,2.5667,2.5698,0.0,0.0,0.0,0.0,0.0,0.0,0.0,2.5274,2.4889,2.4476,2.4245,2.4639,2.4745,2.5313,2.7852,3.0318,3.213,3.2154,3.289,3.3134,3.1661,3.2737,3.3727,3.292,0.0,0.0,0.0,0.0,0.0,0.0,0.0,0.0,0.0,0.0,0.0,0.0,0.0,0.0,0.0,0.0,0.0,0.0,3.403,3.4391,3.4199,3.5045,3.5493,3.5493,3.5493,3.5892,3.6699,3.7161,3.8046,3.9354,4.0585,4.1893,4.3124,4.3547,4.4201,4.497,4.4932,4.5201,4.5586,4.5586,4.5586,4.5663,4.6124,4.6278,4.6355,0.0,0.0,0.0,0.0,0.0,0.0,0.0,0.0,0.0,2.0703,2.0586,2.0586,2.0586,2.0742,2.1147,0.0,0.0,0.0,2.4464,2.5139,2.555,2.5586,2.5529,2.5475,2.539,2.5341,2.5138,2.4804,2.4804,2.476,2.4685,2.5189,2.5424,2.5421,2.6144,2.609,2.5463,2.5743,2.5439,2.4904,2.5346,2.5543,2.56,2.5676,2.5675,2.56,2.5648,2.5543,2.5391,2.5391,0.0,0.0,0.0,0.0,2.5005,2.4553,2.4168,2.3984,2.4319,2.4455,2.5284,2.8313,3.0314,3.1506,3.1571,3.2301,3.2532,3.0852,3.1912,3.3024,0.0,0.0,0.0,0.0,0.0,0.0,0.0,0.0,0.0,0.0,0.0,0.0,0.0,0.0,0.0,0.0,0.0,0.0,3.275,3.3586,3.3968,3.3776,3.4584,3.5045,3.5045,3.5199,3.5622,3.6276,3.6699,3.7777,3.9315,4.0123,4.0969,4.1854,4.2739,4.3547,4.4355,4.5086,4.547,4.5586,4.5586,4.5586,4.5586,4.5586,4.5586,4.5624,0.0,0.0,0.0,0.0,0.0,0.0,0.0,0.0,0.0,0.0,2.0586,2.0586,2.0586,2.1289,2.2031,2.2845,2.3676,2.4476,2.5274,0.0,0.0,2.5586,2.5535,2.5473,2.539,2.5341,2.5138,2.4804,2.4804,2.4982,2.5277,2.5523,2.5579,2.5441,2.587,2.5922,2.5633,2.5277,2.5108,2.5095,2.5391,2.5529,2.56,2.5676,2.5675,2.5592,2.5618,2.5138,2.4453,2.4453,2.4453,0.0,0.0,0.0,2.4476,2.5043,2.4206,2.3368,2.486,2.5736,2.6736,2.8621,2.989,3.066,3.066,3.1456,3.1686,0.0,3.1106,0.0,0.0,0.0,0.0,0.0,0.0,0.0,0.0,0.0,0.0,0.0,0.0,0.0,0.0,0.0,0.0,0.0,0.0,0.0,3.0948,3.1758,3.2184,3.2045,3.2814,3.3237,3.3237,3.4007,3.443,3.4545,3.6776,3.8354,3.9315,4.0123,4.0969,4.1854,4.2739,4.3547,4.4316,4.4432,4.4932,4.5586,4.5586,4.5586,4.5586,4.5586,4.5586,4.5624,0.0,0.0,0.0,0.0,0.0,0.0,0.0,0.0,0.0,0.0,0.0,2.1133,2.0664,2.0937,2.1719,2.3047,2.3444,2.4185,2.5486,2.5615,2.5665,2.5664,2.5548,2.5499,2.5466,2.5341,2.5171,2.4917,2.4847,2.5051,2.5579,2.6117,2.634,2.6246,2.6412,2.6255,2.5834,2.5259,2.5082,2.5183,2.5413,2.5264,2.497,2.5503,2.5317,2.4895,2.5398,2.5321,2.4978,2.5033,2.5039,2.5033,2.4981,0.0,0.0,0.0,2.4949,2.4522,2.5196,2.6005,2.6774,2.7572,2.8418,2.9137,2.9202,2.955,2.9691,2.8986,2.9463,0.0,0.0,0.0,0.0,0.0,0.0,0.0,0.0,0.0,0.0,0.0,0.0,0.0,0.0,0.0,0.0,0.0,0.0,3.0818,3.0643,3.1443,3.185,3.1761,3.2519,3.2929,3.2955,3.3776,3.443,3.4968,3.7007,3.82,3.8623,3.9892,4.07,4.1162,4.2508,4.3316,4.3701,4.4624,4.524,4.5586,4.5586,4.5586,4.5586,4.5586,4.5586,4.5624,0.0,0.0,0.0,0.0,0.0,0.0,0.0,0.0,0.0,0.0,0.0,2.1406,2.0977,0.0,0.0,0.0,2.3672,2.4278,2.5543,2.5673,2.5703,2.5703,2.5587,2.5499,2.5515,2.539,2.5203,2.4991,2.485,2.5211,2.6005,2.6767,2.7307,2.7605,2.7436,2.6881,2.6062,2.559,2.5487,2.559,2.5304,2.4849,2.4453,2.4883,2.4717,2.43,2.4988,2.5226,0.0,0.0,2.5271,2.5309,2.5251,2.5249,0.0,0.0,0.0,2.5503,2.5434,2.5851,2.639,2.6659,2.7225,2.7791,2.813,0.0,2.8191,0.0,0.0,0.0,0.0,0.0,0.0,0.0,0.0,0.0,0.0,0.0,0.0,0.0,0.0,0.0,0.0,0.0,0.0,0.0,0.0,3.0859,3.0703,3.1262,3.1532,3.1453,3.2018,3.2301,3.2366,3.3378,3.443,3.5545,3.7199,3.8007,3.8046,3.9738,4.0508,4.0585,4.2124,4.2893,4.3201,4.4662,4.5393,4.5586,4.5586,4.5586,4.5586,4.5586,4.5586,4.5624,0.0,0.0,0.0,0.0,0.0,0.0,0.0,0.0,0.0,0.0,0.0,2.0977,2.1758,2.2578,2.3398,2.4258,2.5078,2.5586,2.5702,2.5703,2.5703,2.5703,2.5587,0.0,2.5515,2.539,2.5203,2.4991,2.485,2.5512,2.686,2.7474,2.84,2.9526,2.8897,2.7733,2.6276,2.6431,2.6582,2.6583,2.4917,2.4339,2.4336,2.3594,2.3711,2.4292,2.4285,0.0,0.0,0.0,0.0,0.0,0.0,0.0,2.4591,0.0,0.0,0.0,2.5514,2.5543,2.5746,2.6574,2.6892,2.718,0.0,0.0,2.8045,0.0,0.0,0.0,0.0,0.0,0.0,0.0,0.0,0.0,0.0,0.0,0.0,0.0,0.0,0.0,0.0,0.0,0.0,0.0,0.0,3.0859,3.0703,3.0689,3.0645,3.0556,3.0621,3.0621,3.0621,3.225,3.3865,3.5545,3.7199,3.8007,3.8046,3.9738,4.0508,4.0546,4.147,4.2354,4.3162,4.4008,4.4855,4.5586,4.5586,4.5586,4.5586,4.5586,4.5586,4.574,0.0,0.0,0.0,0.0,0.0,0.0,0.0,0.0,0.0,0.0,0.0,0.0,0.0,2.3008,2.3516,2.4336,2.5195,2.5703,2.5703,2.5703,2.5703,2.5703,2.562,2.555,2.5515,2.5428,2.5321,2.5203,2.5018,2.546,2.6443,2.7097,2.7466,2.7547,2.8212,2.8084,2.7248,2.6215,2.5851,2.5919,2.5272,2.4456,2.3633,2.3867,2.3394,0.0,0.0,0.0,0.0,0.0,0.0,0.0,0.0,0.0,0.0,0.0,2.5644,2.5601,2.5559,2.5522,2.5575,2.5947,2.6063,2.6176,2.65,2.6624,2.6523,2.6211,0.0,0.0,0.0,0.0,0.0,0.0,0.0,0.0,0.0,0.0,0.0,0.0,0.0,0.0,0.0,0.0,0.0,0.0,0.0,0.0,3.082,3.073,3.0655,3.0621,3.0583,3.1107,3.2213,3.2848,3.4236,3.6416,3.7507,3.8277,3.8854,3.9969,4.0508,4.0508,4.0816,4.1777,4.3201,4.4586,4.5316,4.5586,4.5586,4.5586,4.5586,4.5586,4.5586,4.5624,0.0,0.0,0.0,2.3812,0.0,2.4034,2.2681,2.2994,2.3348,2.3124,0.0,0.0,0.0,0.0,2.3945,2.4766,2.5352,2.5699,2.5662,2.5658,2.5681,2.5664,2.5586,2.5559,2.5514,2.5428,2.539,2.5303,2.5099,2.5425,2.6199,2.6609,2.6737,2.6732,2.7373,2.7594,0.0,0.0,0.0,2.59,2.5305,2.4495,2.3633,0.0,0.0,0.0,0.0,0.0,0.0,0.0,0.0,0.0,0.0,0.0,0.0,0.0,0.0,2.5593,2.5584,2.5545,2.5523,2.5568,2.5609,2.5624,2.5699,2.5691,2.5658,2.5658,0.0,0.0,0.0,0.0,0.0,0.0,0.0,0.0,0.0,0.0,0.0,0.0,0.0,0.0,0.0,0.0,0.0,0.0,0.0,0.0,3.0898,3.0774,3.0694,3.071,3.0941,3.1787,3.3232,3.3507,3.4583,3.6454,3.7199,3.8007,3.8892,3.97,4.0239,4.0508,4.0816,4.1585,4.2777,4.4162,4.4932,4.5201,4.547,4.5586,4.5586,4.5586,4.5778,4.6086,2.5428,2.5341,2.5303,2.5264,2.5264,2.5072,2.4312,2.4197,2.3944,2.3277,0.0,0.0,0.0,0.0,0.0,2.5625,2.5703,2.5671,2.562,2.5582,2.5582,2.5584,2.5547,2.5499,2.5498,2.5437,2.539,2.5303,2.5099,2.5399,2.6161,2.6034,2.6502,2.7407,2.6555,2.6312,2.6544,0.0,2.6649,2.661,0.0,2.43,2.4297,0.0,0.0,0.0,2.3325,2.4088,0.0,2.4514,0.0,0.0,0.0,0.0,0.0,0.0,0.0,0.0,0.0,0.0,0.0,2.5581,2.5586,2.5625,2.5664,2.5634,2.5592,2.5582,0.0,0.0,0.0,0.0,0.0,0.0,0.0,0.0,0.0,0.0,0.0,0.0,0.0,0.0,0.0,0.0,0.0,0.0,0.0,3.0898,3.0898,3.0781,3.0739,3.0744,3.1603,3.2462,3.332,3.4116,3.4865,3.5661,3.6353,3.7161,3.8046,3.8892,3.9738,4.0508,4.1393,4.1777,4.1816,4.2739,4.3585,4.4393,4.524,4.5586,4.5586,4.5586,4.6124,4.6971,2.5418,2.5341,2.512,2.4543,2.4928,2.5034,2.4265,2.4169,2.4358,0.0,0.0,0.0,2.5234,2.5352,2.543,2.5664,2.5703,2.5671,2.562,2.5582,2.5609,2.5607,2.5598,2.5585,2.5579,2.5505,2.5428,2.539,2.5273,2.5329,2.5548,2.5505,2.5619,2.5894,2.5663,2.557,2.5649,2.5649,0.0,2.5823,2.535,2.4849,0.0,0.0,0.0,0.0,0.0,2.4082,2.4543,0.0,2.5125,2.5227,0.0,0.0,0.0,0.0,0.0,0.0,2.5584,0.0,0.0,0.0,0.0,0.0,2.5535,2.5527,2.535,0.0,0.0,0.0,0.0,0.0,0.0,0.0,0.0,0.0,0.0,0.0,0.0,0.0,0.0,0.0,0.0,0.0,0.0,0.0,3.0547,3.0898,3.0898,3.1445,3.1793,3.1802,3.2583,3.3422,3.4297,3.4432,3.5223,3.6612,3.6661,3.7161,3.8046,3.8892,3.9431,3.9662,4.0508,4.0854,4.0969,4.247,4.3585,4.4316,4.4586,4.5047,4.5586,4.5586,4.574,4.597,2.5437,2.5301,2.505,2.4649,2.4917,2.506,2.4688,2.4695,2.4929,0.0,0.0,0.0,2.5625,2.5703,2.5703,2.5703,2.5676,2.5634,2.5546,2.5523,2.5505,2.5505,2.5532,2.5579,2.5547,2.5517,2.5451,2.539,2.5341,2.5303,2.5303,2.5303,2.5303,2.5303,2.5303,2.5303,2.5303,0.0,0.0,0.0,2.5505,0.0,0.0,2.4884,2.4523,0.0,0.0,0.0,2.512,2.4928,2.5129,0.0,0.0,0.0,0.0,0.0,0.0,0.0,0.0,0.0,0.0,0.0,0.0,0.0,2.5059,2.4975,2.4709,0.0,0.0,0.0,0.0,0.0,0.0,0.0,0.0,0.0,0.0,0.0,0.0,0.0,0.0,0.0,0.0,0.0,0.0,3.0156,3.0625,3.1055,3.1406,3.1914,3.2344,3.2695,3.3516,3.418,3.4687,3.4979,3.5546,3.6458,3.6315,3.6853,3.8007,3.8546,3.9123,3.9815,4.0277,4.0508,4.0585,4.2008,4.3047,4.3855,4.4586,4.5163,4.5586,4.5586,4.5817,4.6124,0.0,2.5225,2.5065,2.5224,2.5111,2.5077,2.537,2.5466,2.5507,0.0,2.5664,2.5703,2.5703,2.5703,2.5703,2.5703,2.5634,2.5558,2.5496,2.5429,2.539,2.539,2.5466,2.5492,2.5508,2.5515,2.5473,2.5428,2.5341,2.5303,2.5303,2.5303,2.5303,2.5303,2.5303,2.5303,2.5303,0.0,0.0,2.5486,2.5505,2.559,0.0,0.0,2.5593,2.5389,2.4678,2.5293,2.6236,2.4745,2.4756,0.0,0.0,0.0,0.0,0.0,2.5437,0.0,0.0,0.0,0.0,0.0,0.0,0.0,2.458,2.4378,2.4091,2.3214,0.0,0.0,0.0,0.0,0.0,0.0,0.0,0.0,0.0,0.0,0.0,0.0,0.0,0.0,0.0,3.0391,3.0898,3.0898,3.0976,3.1367,3.2148,3.2383,3.2812,3.3516,3.4375,3.4844,3.4844,3.5547,3.5841,3.5714,3.5713,3.6507,3.7853,3.8046,3.8969,4.0354,4.0469,4.0546,4.07,4.1585,4.2393,4.3278,4.4816,4.5509,4.5586,4.5586,4.6086,4.6778,2.5214,2.5094,2.4991,2.5065,2.5041,2.5077,2.5283,2.5428,2.549,2.5507,2.5615,2.5703,2.5703,2.5703,2.5703,2.5703,2.5634,2.5563,2.5493,2.5457,2.539,2.539,2.5475,2.5511,2.5586,2.5584,2.5563,2.5466,2.5428,2.5341,2.5303,2.5303,2.5303,2.5303,2.5303,2.5303,2.5303,0.0,0.0,2.5486,2.5505,0.0,2.5703,2.559,2.5537,2.5473,2.5185,2.5303,2.5495,2.5236,2.5255,2.5398,0.0,0.0,0.0,0.0,0.0,0.0,0.0,0.0,0.0,0.0,0.0,0.0,2.512,2.5082,2.4851,0.0,2.3887,0.0,0.0,0.0,0.0,0.0,0.0,0.0,0.0,0.0,0.0,0.0,0.0,0.0,0.0,3.0391,3.0898,3.0898,3.1562,3.2031,3.2187,3.3476,3.4297,3.4453,3.5273,3.5742,3.5742,3.5859,3.5837,3.5702,3.6318,3.6762,3.7007,3.8392,3.92,3.9546,4.02,4.0893,4.1623,4.2508,4.2931,4.3201,4.4162,4.497,4.5586,4.5586,4.5701,4.5932,2.5132,2.5069,2.4991,2.4991,2.4991,2.5077,2.5283,2.5428,2.552,2.5512,2.5609,2.5703,2.5703,2.5703,2.5696,2.5654,2.5577,2.5514,2.5438,2.539,2.5341,2.5341,2.5466,2.5515,2.5559,2.5583,2.5562,2.5483,2.5446,2.539,2.5303,2.5303,2.5082,2.4736,2.512,2.5082,2.4736,0.0,2.539,2.5486,2.5505,0.0,2.5678,2.5596,2.5522,2.5468,2.5389,2.5341,2.538,2.5851,2.5697,0.0,0.0,2.539,2.539,0.0,2.5301,2.5209,0.0,0.0,0.0,2.5056,0.0,0.0,0.0,2.461,2.4466,2.3629,2.3437,0.0,0.0,0.0,0.0,0.0,0.0,0.0,0.0,0.0,0.0,0.0,0.0,0.0,0.0,3.0117,3.0898,3.0898,3.1719,3.2383,3.2773,3.4023,3.4883,3.5312,3.5781,3.6016,3.6016,3.5976,3.6077,3.637,3.6767,3.7339,3.8046,3.8892,3.9508,3.9931,4.0315,4.0969,4.1893,4.2739,4.3355,4.3778,4.4624,4.5201,4.5586,4.5586,4.5586,4.5663,2.507,2.4981,2.493,2.4943,2.4955,2.5077,2.5283,2.5428,2.5575,2.5741,2.5888,2.6016,2.6172,0.0,0.0,0.0,2.5925,2.566,2.6082,2.561,2.5303,2.5303,2.5428,2.5506,2.5489,2.5574,2.558,2.5524,2.5492,2.539,2.5341,2.5341,2.4966,2.4399,2.5005,2.4928,0.0,0.0,0.0,2.5486,0.0,2.5584,2.5695,2.5618,2.5552,2.5505,2.5428,2.5341,2.5418,2.612,2.589,2.5303,2.5303,2.5303,0.0,0.0,0.0,0.0,0.0,0.0,0.0,0.0,0.0,2.4981,0.0,0.0,0.0,2.3428,2.3274,0.0,0.0,0.0,0.0,0.0,0.0,0.0,0.0,0.0,0.0,0.0,0.0,0.0,0.0,2.9961,3.0898,3.0898,3.1836,3.2695,3.3359,3.4375,3.5273,3.5976,3.6016,3.6094,3.625,3.625,3.6582,3.725,3.7411,3.8146,3.9315,3.9469,3.9892,4.0508,4.0662,4.1239,4.2124,4.297,4.3816,4.4624,4.5316,4.5586,4.5586,4.5586,4.5586,4.5624,2.4861,2.4832,2.479,2.467,2.485,2.5077,2.5283,2.5428,2.5824,2.6711,2.6836,0.0,0.0,0.0,0.0,0.0,0.0,0.0,2.8626,0.0,2.5303,2.5303,2.539,2.5421,2.5489,2.5574,2.5586,2.5585,2.5596,2.5543,2.5466,2.5428,2.5351,2.5236,2.5303,0.0,0.0,0.0,2.539,0.0,2.5505,2.5584,0.0,2.5546,2.5529,2.5466,2.5351,2.5303,2.5303,0.0,2.538,2.5303,0.0,2.5303,2.5244,2.5088,0.0,0.0,0.0,0.0,0.0,0.0,2.5446,0.0,0.0,0.0,2.4935,2.5014,0.0,0.0,0.0,0.0,0.0,0.0,0.0,0.0,0.0,0.0,0.0,0.0,0.0,0.0,0.0,0.0,3.0898,3.0898,3.2383,3.3281,3.3398,3.4961,3.5898,3.6016,3.6016,3.6367,3.7148,3.7148,3.748,3.8152,3.893,3.93,3.9315,4.0046,4.0392,4.0546,4.1316,4.2162,4.3008,4.3816,4.4662,4.547,4.5547,4.5586,4.5586,4.5586,4.5586,4.5817,2.467,2.4716,2.4775,2.4716,2.4877,2.5077,2.5283,2.5824,2.6257,2.6209,2.7109,0.0,0.0,0.0,0.0,0.0,0.0,2.7171,0.0,0.0,2.5534,2.6043,2.562,2.5677,2.6242,2.583,2.5586,2.5586,2.5593,2.5556,2.5505,2.5466,2.5205,2.4706,2.5149,0.0,2.462,0.0,2.539,0.0,0.0,0.0,0.0,2.5571,2.5466,2.539,2.5303,2.5303,2.5303,0.0,2.5303,0.0,0.0,0.0,0.0,0.0,0.0,0.0,0.0,0.0,0.0,0.0,0.0,0.0,2.4856,0.0,2.5003,0.0,0.0,0.0,0.0,0.0,0.0,0.0,2.5159,0.0,0.0,0.0,0.0,0.0,0.0,0.0,0.0,0.0,0.0,0.0,0.0,3.3398,3.3398,3.5039,3.6016,3.6016,3.6484,3.6914,3.7305,3.7812,3.838,3.9054,3.9432,3.9723,4.0008,4.0354,4.0777,4.1277,4.1662,4.2547,4.3816,4.4162,4.4816,4.5586,4.5586,4.5586,4.5586,4.5586,4.5586,4.5778,2.4526,2.4607,2.4731,2.4746,2.4891,2.5153,2.559,2.632,2.6787,2.6679,2.7773,0.0,2.9297,3.0502,0.0,0.0,2.9671,2.8502,0.0,0.0,2.6082,2.6236,2.6159,2.6207,2.642,2.61,2.5817,2.5586,2.5625,2.5619,2.5535,2.5535,2.5196,2.4576,2.5409,2.5274,2.4466,0.0,2.562,2.5486,2.5505,2.5543,2.5644,2.5523,2.5422,2.5303,2.5303,2.5303,2.5303,2.5303,2.5303,0.0,2.5303,0.0,0.0,0.0,0.0,0.0,2.5959,0.0,0.0,0.0,0.0,0.0,0.0,0.0,0.0,0.0,0.0,0.0,0.0,0.0,0.0,0.0,0.0,2.5313,0.0,0.0,0.0,0.0,0.0,0.0,0.0,0.0,0.0,3.0898,3.2266,3.3164,3.3398,3.4844,3.5742,3.5976,3.6836,3.7422,3.7656,3.8516,3.9278,3.991,3.9947,4.0239,4.0854,4.0854,4.1316,4.2162,4.2393,4.3162,4.4316,4.4547,4.5009,4.5586,4.5586,4.5586,4.5586,4.5586,4.574,4.6086,2.4526,2.453,2.451,2.4613,2.4823,2.5382,2.6474,2.6756,2.7411,2.9138,2.9258,0.0,0.0,0.0,0.0,0.0,0.0,3.0648,3.1468,0.0,2.7082,2.5418,2.6928,2.7082,0.0,2.6321,2.6367,2.5586,2.5664,2.5703,2.5703,2.5625,2.5533,2.5479,2.6292,2.6149,2.5303,2.6197,2.6159,2.5486,2.5505,2.5504,2.5517,0.0,2.5428,2.5303,2.5303,0.0,0.0,2.5303,2.5303,0.0,0.0,0.0,0.0,0.0,0.0,0.0,0.0,0.0,0.0,2.6123,0.0,0.0,0.0,0.0,2.5769,0.0,0.0,0.0,0.0,0.0,0.0,0.0,0.0,0.0,0.0,0.0,0.0,0.0,0.0,0.0,0.0,0.0,0.0,3.0898,3.1719,3.2578,3.3359,3.4258,3.5117,3.5976,3.6836,3.7695,3.8555,3.9414,4.0176,4.0774,4.0771,4.1101,4.1777,4.1777,4.2239,4.3085,4.3893,4.4239,4.4355,4.5201,4.5547,4.5586,4.5586,4.5586,4.5586,4.5586,4.6124,4.6971,2.4716,2.4459,2.4339,2.453,2.4654,2.4964,2.5685,2.7161,2.8964,0.0,0.0,0.0,0.0,3.5881,3.664,0.0,0.0,3.2622,3.1775,3.0352,0.0,0.0,0.0,2.9033,0.0,0.0,2.7229,2.6445,2.5898,2.5664,2.5703,2.5664,2.5623,2.5572,2.5863,2.5754,0.0,0.0,0.0,0.0,0.0,2.5931,2.6312,0.0,0.0,2.5303,2.5303,2.5303,0.0,2.5303,2.5303,2.5303,2.5303,2.5303,2.5244,2.5065,2.531,0.0,0.0,0.0,2.6002,2.6301,0.0,0.0,0.0,0.0,0.0,0.0,0.0,0.0,0.0,0.0,0.0,0.0,0.0,0.0,0.0,0.0,0.0,0.0,0.0,0.0,0.0,0.0,0.0,3.0859,3.1172,3.1953,0.0,3.4219,3.5351,3.6797,3.7695,3.8594,3.9453,4.0312,4.1072,4.1652,4.1081,4.1485,4.2717,4.2194,4.2694,4.4025,4.4295,4.4718,4.5163,4.547,4.5586,4.5586,4.5586,4.5586,4.5663,4.624,4.6663,4.7086,2.4804,2.4497,2.4266,2.4442,2.4623,2.4836,2.5224,2.721,0.0,0.0,3.3808,0.0,3.5898,0.0,3.8207,0.0,3.6133,3.443,3.2699,3.1775,0.0,2.9159,3.0237,0.0,0.0,0.0,0.0,0.0,2.6206,2.5977,2.5703,2.5703,2.5664,2.5625,2.5906,2.582,2.5398,2.5746,2.5726,0.0,0.0,2.5956,0.0,0.0,2.56,2.5726,0.0,2.5303,2.5303,2.5303,2.5303,2.5303,2.5303,2.5303,2.5244,2.5065,2.531,2.5664,2.5764,2.5875,0.0,2.6573,2.6228,0.0,2.6078,0.0,0.0,0.0,0.0,0.0,0.0,0.0,0.0,0.0,0.0,0.0,0.0,2.6294,0.0,0.0,0.0,0.0,0.0,0.0,3.0312,3.0859,3.0898,3.1641,0.0,0.0,3.5195,3.7226,3.8164,3.9023,3.9883,4.1055,4.1826,4.2187,4.1932,4.2486,4.3744,4.322,4.3697,4.4978,4.4961,4.5218,4.5586,4.5586,4.5586,4.5586,4.5586,4.5778,4.6124,4.6701,4.7278,4.8048,2.479,2.4497,2.4321,2.4462,2.4708,0.0,0.0,0.0,2.9738,0.0,3.5393,3.6131,3.6249,3.8912,4.0276,3.9161,3.7647,3.6084,3.443,3.3506,0.0,0.0,3.0891,3.0237,2.6851,0.0,0.0,0.0,0.0,2.6523,2.5742,2.5703,2.5664,2.5625,2.6485,0.0,2.5473,2.6362,2.6254,2.5514,2.5634,2.5648,2.5551,2.5514,2.5964,2.6505,2.561,2.5303,2.5303,2.5303,2.5303,2.5303,2.5303,2.5341,2.5321,2.5065,2.5056,2.5235,2.5815,2.6405,2.6898,2.6953,0.0,0.0,0.0,0.0,2.8657,0.0,0.0,0.0,0.0,0.0,0.0,0.0,0.0,0.0,0.0,0.0,0.0,0.0,0.0,0.0,0.0,3.0351,3.0859,3.0898,3.0898,3.1641,0.0,0.0,3.4726,3.7266,3.8203,3.9101,4.0,4.1601,4.2422,4.2422,4.3203,4.402,4.4755,4.4743,4.5113,4.5797,4.5812,4.5719,4.5586,4.5586,4.5586,4.5586,4.5586,4.6163,4.6971,4.7009,4.8086,4.974,2.4607,2.4978,2.5096,0.0,2.4339,2.5426,0.0,0.0,0.0,0.0,3.8066,3.7754,3.9453,4.0282,4.0588,4.0292,3.8661,0.0,0.0,0.0,0.0,3.1121,3.266,3.2275,2.9467,2.9264,0.0,2.83,0.0,2.6091,2.6641,2.5937,2.5625,2.5664,2.5892,2.5857,2.5562,2.5823,2.5774,2.5591,2.5673,2.6,0.0,0.0,2.5956,2.6505,2.561,2.5303,2.5303,2.5303,2.5303,2.5303,2.5303,2.5726,2.6069,2.512,2.5693,2.6487,2.5726,2.6113,2.6868,2.7605,2.7603,2.7587,0.0,0.0,0.0,0.0,0.0,0.0,0.0,0.0,0.0,0.0,0.0,0.0,0.0,0.0,0.0,2.979,0.0,0.0,3.0428,3.0117,3.0195,3.0859,3.0898,0.0,0.0,0.0,0.0,3.8203,3.9101,4.0273,4.1758,4.2187,4.3008,4.4141,4.3766,4.4344,4.5714,4.5138,4.5289,4.6027,4.5932,4.5834,4.5757,4.5624,4.5586,4.5586,4.5586,4.6509,4.7855,4.8509,4.9817,5.1318,2.4559,2.4814,0.0,2.4301,0.0,0.0,3.0035,0.0,0.0,4.0312,3.8639,0.0,4.0708,4.087,4.0716,4.0639,3.9008,0.0,3.7238,0.0,0.0,3.2314,3.3122,3.2275,2.939,2.9198,0.0,2.8163,0.0,2.6334,2.6883,2.6008,2.5625,2.5664,2.5703,2.5881,2.6157,2.6193,2.618,2.6179,2.585,0.0,0.0,2.5683,2.5736,2.5967,2.5495,2.5303,2.5303,2.5303,2.5303,2.5303,2.5303,2.589,2.6376,2.5143,2.5921,2.6919,2.5743,2.6245,2.7264,2.792,2.8201,2.8461,2.917,2.9883,3.0275,0.0,0.0,0.0,0.0,0.0,0.0,0.0,0.0,0.0,0.0,0.0,0.0,0.0,3.029,0.0,3.0668,3.0348,3.0351,3.0859,3.125,0.0,0.0,0.0,0.0,3.8555,3.9805,4.0937,4.1875,4.2969,4.3789,4.4336,4.4648,4.5285,4.6192,4.5706,4.5713,4.6093,4.5959,4.5843,4.5796,4.5663,4.5586,4.5663,4.6394,4.7509,4.8779,4.9663,5.0587,5.1471,2.4804,2.4635,0.0,0.0,0.0,0.0,0.0,3.1313,0.0,3.9056,0.0,3.6606,4.0058,4.0446,4.0446,4.0508,0.0,3.77,3.7046,3.593,3.4622,3.3083,3.2852,3.1275,2.8121,2.8709,2.8313,0.0,0.0,2.6682,2.6786,2.5952,2.5583,2.5586,2.5664,2.6094,0.0,2.6728,2.6767,2.6758,2.6016,2.5609,2.5517,2.5481,2.5428,2.5303,2.5283,2.5244,2.5244,2.5244,2.536,2.5437,2.5437,2.61,2.6683,2.5484,2.6261,2.7257,2.6039,2.6796,2.8,2.8217,2.897,2.9712,2.9954,3.0163,3.0355,3.0379,3.0379,3.0417,0.0,0.0,0.0,0.0,0.0,0.0,0.0,0.0,0.0,0.0,0.0,0.0,3.1113,3.0997,3.0937,3.1055,0.0,0.0,0.0,0.0,0.0,3.8555,4.0273,0.0,4.1523,0.0,4.457,4.4062,4.5586,4.6289,4.6289,4.6289,4.625,4.6132,4.5981,4.588,4.5796,4.568,4.5701,4.5932,4.7625,4.874,4.951,5.0356,5.0779,5.1087,2.5724,0.0,0.0,0.0,0.0,3.134,3.4186,3.4673,3.4124,3.2503,3.1758,3.2673,3.6136,3.77,3.9008,4.0392,3.8969,0.0,0.0,0.0,0.0,3.366,3.2545,3.0968,2.8929,2.839,2.8016,0.0,0.0,0.0,2.6776,2.5867,2.5473,2.5586,2.5625,2.5742,2.5898,2.5892,0.0,2.5898,2.5742,2.5609,2.5517,2.5481,2.5428,2.5293,2.5111,2.5065,2.5065,2.5065,2.5523,2.6135,2.6135,2.7301,2.8411,2.7138,2.7959,2.8986,2.7738,2.8081,2.8846,2.9089,2.9302,2.9533,2.9924,3.0028,3.0136,3.0355,3.0379,3.0609,3.1352,0.0,0.0,0.0,0.0,0.0,0.0,0.0,0.0,0.0,0.0,3.3042,0.0,0.0,0.0,0.0,0.0,0.0,0.0,0.0,0.0,0.0,0.0,0.0,0.0,0.0,4.457,4.5859,4.6133,4.6289,4.6289,4.6289,4.6289,4.6249,4.6119,4.5979,4.5873,4.5873,4.6201,4.6932,4.8548,4.9279,4.951,5.0356,5.1125,5.1856,0.0,0.0,0.0,0.0,0.0,0.0,0.0,3.5493,0.0,3.3263,3.3032,3.3647,3.5301,3.6238,3.7738,4.0277,3.8161,3.5968,3.4276,3.366,3.316,3.2737,3.2045,0.0,2.8506,2.8082,2.7708,2.7285,0.0,0.0,2.6679,2.5813,2.5429,2.5522,2.6046,2.6328,0.0,0.0,0.0,2.6328,2.5898,2.5609,2.5517,2.5481,2.5697,2.5946,2.5715,2.5615,2.5678,2.5678,2.5945,2.6416,2.696,2.8038,2.8833,2.7555,2.8412,2.9438,2.8144,2.8374,2.9067,2.9312,2.9493,2.9757,3.051,3.0428,3.0484,3.1482,3.1352,3.1352,3.216,3.2622,0.0,0.0,0.0,0.0,0.0,0.0,0.0,0.0,0.0,0.0,0.0,0.0,0.0,0.0,0.0,0.0,0.0,0.0,0.0,0.0,0.0,0.0,0.0,0.0,0.0,4.5625,4.6094,4.6289,4.6289,4.6289,4.6289,4.6289,4.617,4.6046,4.6044,4.6329,4.7224,4.8412,4.9125,4.9663,5.0164,5.101,5.1895,5.2761,0.0,2.9806,0.0,0.0,3.2801,0.0,3.507,3.5493,3.5493,3.5493,3.5493,3.5493,3.5493,3.5493,3.6546,3.92,3.7102,3.5002,3.3558,3.2776,3.2083,3.1468,3.1429,3.039,2.8198,2.8005,2.7467,0.0,0.0,0.0,0.0,2.5697,2.539,0.0,0.0,0.0,0.0,0.0,2.6719,2.6641,2.5977,2.5726,2.574,2.5558,2.6023,2.6738,2.6288,2.6312,2.6529,2.6719,2.6669,2.6772,2.7773,2.8675,2.914,2.8048,2.8676,2.9475,2.8344,2.8521,2.9044,2.9286,2.9566,3.0057,3.101,3.0987,3.1187,3.2609,3.2545,3.2429,3.3045,3.3314,0.0,0.0,0.0,0.0,0.0,0.0,0.0,0.0,0.0,0.0,3.3751,0.0,0.0,0.0,0.0,0.0,0.0,0.0,0.0,0.0,0.0,4.3164,4.2695,0.0,4.5781,0.0,4.5976,4.6289,4.6289,4.6289,4.6289,4.6289,4.6172,4.6265,4.646,4.7093,4.8251,4.9682,4.9702,5.0125,5.0818,5.1664,5.2569,5.3435,0.0,0.0,0.0,0.0,0.0,0.0,0.0,3.5493,3.5493,3.5493,3.5493,3.5493,3.5493,3.5493,3.5622,3.593,3.5943,3.5753,3.5277,3.2352,3.0609,3.0533,3.0533,3.0044,2.9006,2.8275,2.7467,0.0,0.0,0.0,0.0,0.0,0.0,0.0,0.0,0.0,0.0,2.582,2.582,2.582,2.5742,2.6071,2.6572,2.5781,2.6293,2.7292,2.6336,2.6503,2.7236,2.8045,2.7956,2.7637,2.8466,2.9449,3.0164,2.9623,2.9564,2.9588,2.9045,2.8938,2.9035,2.9021,2.9596,3.0294,3.0885,3.154,3.2193,3.2787,3.3468,3.3968,3.4045,3.4737,3.5276,0.0,0.0,0.0,0.0,0.0,0.0,3.5353,0.0,0.0,0.0,3.5705,0.0,0.0,3.5117,0.0,0.0,0.0,0.0,3.8594,0.0,4.2851,4.3555,4.4609,0.0,4.6172,4.625,4.6289,4.6289,4.6289,4.6289,4.6289,4.6289,4.6718,4.7491,4.8093,4.9007,5.0048,5.0548,5.0798,5.0991,5.178,5.2627,5.3551,0.0,0.0,0.0,0.0,0.0,0.0,0.0,3.5493,3.5493,3.5493,3.5493,3.5493,3.5493,3.5493,3.5493,3.5493,3.5816,3.5002,3.2582,3.1148,3.0379,3.0379,3.0379,2.9929,2.889,2.9236,2.8236,0.0,0.0,0.0,0.0,0.0,0.0,0.0,0.0,2.5835,2.6406,2.6406,2.6758,2.7266,2.7266,2.7401,2.7544,2.7181,2.7572,2.8218,2.7629,2.7759,2.8283,2.899,2.8837,2.8504,2.9475,3.0035,3.0318,2.9851,2.9677,2.9626,2.9156,2.8975,2.8975,2.8975,2.9724,3.0671,3.1506,3.2048,3.2787,3.4183,3.4737,3.5122,3.5622,3.5584,3.5661,0.0,0.0,0.0,0.0,0.0,0.0,0.0,0.0,3.5853,0.0,0.0,0.0,0.0,0.0,0.0,0.0,0.0,0.0,3.9375,0.0,4.3359,4.3711,4.5078,4.5976,4.6289,4.6289,4.6289,4.6289,4.6289,4.6289,4.6328,4.6836,4.7578,4.8437,4.9126,4.9903,5.0797,5.1462,5.1741,5.1896,5.3282,5.4073,5.4574,3.4375,0.0,3.5102,0.0,3.5493,3.5493,3.5493,3.5493,3.5493,3.5493,3.5493,3.5493,3.5493,3.5493,3.5493,3.5493,3.5816,3.442,3.0667,3.0379,3.0379,3.0379,3.0379,0.0,2.9225,2.9994,2.8956,2.6082,2.6341,0.0,0.0,0.0,0.0,0.0,2.5777,2.6345,2.7231,2.7262,2.7656,2.8281,2.8257,2.8325,2.8327,2.8135,2.853,2.9072,2.8676,2.8745,2.9148,2.9623,2.9559,2.9411,3.0163,3.0379,3.0318,2.9851,2.9677,2.9626,2.9156,2.8975,2.8975,2.8975,2.9931,3.1086,3.2015,3.2672,3.3604,3.5182,3.5699,3.5968,3.6276,3.6276,3.6353,3.6661,0.0,0.0,0.0,0.0,0.0,0.0,3.5956,3.6129,3.5931,3.6208,0.0,0.0,0.0,0.0,0.0,0.0,0.0,0.0,0.0,0.0,0.0,4.5547,4.6289,4.6289,4.6289,4.6289,4.6289,4.6289,4.6445,4.6719,4.7344,4.8242,4.9336,4.9844,5.0664,5.1679,5.2172,5.2505,5.2923,5.4417,5.5191,5.5615,3.3876,3.3834,3.4189,3.5285,3.5493,3.5493,3.5493,3.5493,3.5493,3.5493,3.5493,3.5493,3.5493,3.5493,3.5493,3.5493,3.5816,3.442,3.0667,3.0379,3.0379,0.0,0.0,3.0379,3.0379,3.0379,2.9583,2.7852,0.0,0.0,2.7852,0.0,2.5803,2.6687,2.6679,2.7228,2.8096,2.8171,2.8203,2.8201,2.8208,2.8511,2.8922,2.8242,2.8769,2.9805,2.9064,2.9194,2.9729,2.9939,3.0163,3.0379,3.0379,3.0379,3.0318,2.9851,2.9677,2.9626,2.9156,2.8975,2.8975,2.8975,3.021,3.1542,3.209,3.3487,3.4832,3.5383,3.6122,3.6469,3.5661,3.6853,3.77,3.6853,0.0,0.0,0.0,0.0,0.0,0.0,3.6425,3.6684,3.5975,0.0,0.0,0.0,0.0,0.0,0.0,0.0,0.0,4.1133,4.2812,0.0,4.4961,4.5859,4.6289,4.6289,4.6289,4.6289,4.6289,4.6289,4.6758,4.7578,4.7617,4.8594,5.0195,5.0195,5.1172,5.2656,5.2539,5.3008,5.39,5.4784,5.5615,5.6522,3.3902,3.4405,3.5086,3.5465,3.5493,3.5493,3.5493,3.5493,3.4647,3.234,3.2032,3.2032,3.2032,3.4109,3.5493,0.0,3.5816,3.5389,0.0,3.3878,3.284,3.0494,3.0379,3.0379,3.0379,3.0379,2.9006,2.612,0.0,0.0,0.0,2.7698,2.7428,2.6649,2.7257,2.8027,2.8835,2.8891,2.9264,2.9882,2.9847,2.9976,3.0104,2.9679,2.9794,3.0174,2.9602,2.9618,2.9832,2.9946,3.0163,3.0379,3.0379,3.0379,3.0318,2.9851,2.9677,2.9626,2.9156,2.9402,2.9843,2.9843,3.1017,3.2367,3.2899,3.4162,3.5461,3.6171,3.6507,3.6969,3.793,3.8046,3.8084,3.843,3.7469,0.0,0.0,0.0,0.0,0.0,3.6907,3.7294,0.0,3.7461,0.0,0.0,0.0,0.0,0.0,0.0,0.0,0.0,4.3672,0.0,4.5,4.5859,4.6289,4.6289,4.6289,4.6601,4.7187,4.7187,4.7656,4.8516,4.9101,4.9687,5.0273,5.1445,5.2226,5.2812,5.3945,5.457,5.4999,5.6484,5.7193,5.7545,3.4492,3.4695,3.5016,3.5412,3.5493,3.507,3.3763,3.357,3.2801,3.0686,3.0379,3.0379,3.0379,3.3455,0.0,3.5493,3.5816,3.5921,3.5702,3.557,3.3955,3.0533,3.0379,3.0379,3.0379,0.0,0.0,2.5303,2.6572,2.7572,2.8302,2.8736,2.8467,2.7544,2.8104,2.8835,2.966,2.9682,3.0062,3.0628,3.0567,3.0588,3.0636,3.0362,3.0129,2.9877,2.9943,2.9883,2.9908,3.0452,3.0765,3.0941,3.1237,3.1121,3.0739,2.9999,2.9775,2.9644,2.9249,2.9655,3.021,3.021,3.1421,3.2921,3.4045,3.5196,3.6199,3.7007,3.7469,3.7892,3.8661,3.8892,3.8892,3.8815,3.7892,3.7084,3.6738,0.0,0.0,0.0,0.0,0.0,0.0,3.8348,0.0,0.0,0.0,0.0,0.0,0.0,0.0,4.2851,4.4258,0.0,4.5508,4.6016,4.6289,4.6289,4.6641,4.7226,4.8086,4.8086,4.8555,4.9414,4.9961,5.0351,5.0742,5.2148,5.2891,5.332,5.4765,5.5703,5.6406,5.75,5.8281,5.8906,3.5493,3.4675,0.0,0.0,3.5301,0.0,3.0879,3.0379,3.0379,3.0379,3.0379,3.0379,3.0379,3.3455,3.5507,3.5545,0.0,0.0,0.0,3.5676,3.3955,3.0533,3.0379,3.0379,3.0379,3.0379,2.8725,2.5303,2.861,3.0302,3.0379,2.9302,2.8929,2.9094,2.9143,2.9644,3.0379,3.0467,3.0506,3.0506,3.0506,3.0544,3.0559,3.0414,2.9785,2.9129,3.0038,3.0143,3.0007,3.1276,3.1749,3.1915,3.2646,3.2338,3.1492,3.0417,2.9899,2.968,2.9509,2.9865,3.0283,3.0356,3.1593,3.3364,3.5442,3.6379,3.7046,3.7892,3.8738,3.9084,3.8315,3.9431,3.9969,3.843,3.8084,3.7738,3.6892,0.0,0.0,0.0,0.0,0.0,0.0,3.9296,3.9453,0.0,0.0,0.0,0.0,0.0,4.2109,4.375,4.4648,4.5469,4.6289,4.6289,4.6328,4.6406,4.7266,4.8164,4.8984,4.8984,4.9453,5.0273,5.0273,5.0742,5.1562,5.2422,5.3281,5.418,5.5117,5.6484,5.789,5.8047,5.9062,6.039,0.0,0.0,3.5168,3.5427,3.334,3.134,3.0533,3.0379,3.0379,3.0379,3.0379,3.0379,3.0379,3.3455,3.5622,3.5853,3.5933,3.6016,3.6016,3.5676,3.3955,3.0533,3.0379,3.0379,3.0379,3.0379,2.8725,2.5303,2.7428,2.9159,3.0379,3.011,2.9698,2.9121,2.9813,3.0198,3.0379,3.0417,3.0467,3.0506,3.0429,3.0506,3.0547,3.0076,2.951,2.908,2.9645,3.043,3.1219,3.1597,3.2095,3.2646,3.2827,3.234,3.1609,3.1121,3.0366,2.9784,3.0213,3.0722,3.1274,3.1898,3.3608,3.5308,3.6046,3.6993,3.793,3.8815,3.9161,3.9431,3.9815,4.0239,4.0354,3.9969,3.8815,3.793,3.7738,3.6969,0.0,0.0,3.8617,3.9658,4.1101,4.0286,4.0195,0.0,0.0,0.0,0.0,4.2734,4.3594,4.4648,4.5547,4.6094,4.6289,4.6289,4.6641,4.7305,4.8164,4.9062,4.9883,4.9883,5.0351,5.1133,5.1133,5.1601,5.2461,5.332,5.4219,5.5156,5.668,5.7539,5.8047,5.9336,6.0078,6.0508,3.5493,3.5493,3.4993,3.3417,3.1609,3.0379,3.0379,3.0379,3.0379,3.0379,3.0379,3.0994,3.2571,3.4378,3.5635,3.5951,3.5991,3.6016,3.6016,3.5676,3.3955,3.0533,3.0379,3.0379,3.0379,3.0379,2.9494,2.761,2.8582,2.9506,3.0379,3.0379,3.016,2.9698,3.0198,3.0379,3.0379,3.0379,3.0417,3.0467,3.0417,3.0429,3.0508,3.0506,3.0397,3.0274,3.1028,3.1644,3.2134,3.2685,3.3122,3.3558,3.3968,3.3519,3.2785,3.2538,3.1386,3.0385,3.0996,3.1555,3.2228,3.3376,3.508,3.6587,3.7146,3.7938,3.8815,3.9662,3.9854,3.9969,4.0431,4.0508,4.0239,3.9469,3.8584,3.7853,3.7469,3.7007,0.0,3.8599,3.911,4.0075,4.1915,4.133,4.1368,4.2773,0.0,0.0,4.3516,4.4023,4.4492,4.5,4.5859,4.6289,4.6289,4.6719,4.7344,4.8203,4.9062,4.9922,5.0742,5.0742,5.1211,5.1992,5.1992,5.25,5.3359,5.4219,5.4883,5.5469,5.7226,5.8125,5.8633,5.9922,6.0664,6.1055,3.5493,3.5369,3.432,3.1436,3.0532,3.0228,3.0367,3.0379,3.0379,3.0379,3.0379,3.1686,3.5109,3.5032,3.5069,3.5935,3.6016,3.6016,3.6016,3.5676,3.3955,3.0533,3.0379,3.0379,3.0379,3.0379,3.0379,3.0379,3.0379,3.0379,3.0379,3.0379,3.0379,3.0379,3.0379,3.0379,3.0379,3.0379,3.0456,3.0571,3.0547,3.0585,3.0777,3.1379,3.1648,3.1813,3.2765,3.2987,3.2936,3.3876,3.4276,3.4545,3.5276,3.4903,3.4182,3.4031,3.2804,3.1506,3.189,3.2464,3.3356,3.4934,3.631,3.7548,3.8504,3.9202,3.9892,4.07,4.0893,4.0854,4.07,4.07,4.02,3.8623,3.8277,3.793,3.7199,0.0,3.77,3.9369,3.9638,4.0431,4.2299,4.2376,4.2692,4.3723,4.3747,4.4062,0.0,4.5,4.5078,4.5195,4.5898,4.6367,4.6484,4.75,4.8359,4.9101,4.9961,5.0742,5.1406,5.1523,5.1992,5.2695,5.2851,5.3398,5.4258,5.5,5.5469,5.5859,5.7461,5.8633,5.9492,6.0312,6.1055,6.1719,3.5493,3.4697,3.3895,3.3352,3.102,2.9494,3.0305,3.0379,3.0379,3.0379,3.0379,3.1686,3.5109,3.2917,3.2482,3.5702,3.6016,3.6016,3.6016,3.5676,3.3955,3.0533,3.0379,3.0379,3.0379,3.0379,3.0379,3.0379,3.0379,3.0379,3.0379,3.0379,3.0379,3.0379,3.0379,3.0379,3.0379,3.0379,3.0852,3.1494,3.1245,3.1555,3.2161,3.21,3.2126,3.2155,3.2559,3.3102,3.3662,3.4068,3.4699,3.5315,3.5468,3.4903,3.4285,3.4757,3.4491,3.385,3.3018,3.3697,3.4971,3.6429,3.7498,3.8563,3.9883,4.0806,4.1662,4.2508,4.2701,4.247,4.1739,4.1585,4.1277,4.0277,3.9546,3.9046,3.8931,0.0,3.9238,4.0215,4.0969,4.2124,4.3948,4.3547,4.3596,4.453,4.4064,4.4062,4.4961,4.5,4.5351,4.6055,4.6211,4.6641,4.7383,4.8984,4.9844,5.0,5.082,5.1289,5.1406,5.2148,5.2578,5.2734,5.3476,5.4297,5.5117,5.5234,5.6172,5.7617,5.8594,5.9492,6.0312,6.1172,6.1562,6.1719,3.4576,3.2753,3.1201,3.1201,3.0424,2.9915,3.0343,3.0379,3.0379,3.0379,3.0379,3.1686,3.5109,3.407,3.3906,3.5819,3.6016,3.6016,3.6016,3.5676,3.3955,3.0533,3.0379,3.0492,3.0675,3.0501,3.0379,3.0379,3.1648,3.1768,3.0923,3.0923,3.1311,3.1866,3.1278,3.1249,3.1737,3.1275,3.1583,3.2352,3.2223,3.239,3.2737,3.2956,3.313,3.3333,3.3772,3.4273,3.4717,3.4864,3.5161,3.5493,3.5493,3.5518,3.5552,3.5698,3.5436,3.5045,3.4843,3.554,3.6666,3.7929,3.8997,4.0079,4.1342,4.2078,4.2624,4.3008,4.3085,4.297,4.2585,4.2124,4.1662,4.1277,4.0123,0.0,0.0,3.9931,4.0239,4.1085,4.197,4.3008,4.4256,4.4239,4.4459,4.5325,4.5221,4.5273,4.5664,4.5703,4.6094,4.6953,4.6992,4.7422,4.8281,4.957,5.0195,5.0234,5.1484,5.2109,5.2148,5.3008,5.3672,5.4101,5.4531,5.5195,5.6055,5.6523,5.7187,5.8047,5.9336,6.0078,6.0508,6.1367,6.1719,6.1719,3.2669,3.0723,2.8975,2.8975,2.9801,3.0379,3.0379,3.0379,3.0379,3.0379,3.0379,3.1686,3.5109,3.5493,3.5588,3.5857,3.5972,3.6016,3.6016,3.5771,3.4071,3.0544,3.0379,3.0509,3.0791,3.0527,3.0535,3.0789,3.2564,3.281,3.1715,3.1715,3.2232,3.3159,3.2172,3.2157,3.2852,3.2237,3.2404,3.3108,3.3094,3.3185,3.3377,3.3891,3.4221,3.448,3.4999,3.5331,3.5493,3.5493,3.5608,3.5762,3.5762,3.6339,3.6972,3.674,3.6631,3.663,3.6878,3.7488,3.8294,3.956,4.0602,4.1585,4.2736,4.3194,4.3431,4.3624,4.3662,4.3624,4.3431,4.2816,4.2316,4.2124,0.0,0.0,0.0,4.1085,4.1431,4.2277,4.297,4.3701,4.4547,4.4847,4.5239,4.591,4.6156,4.6289,4.6289,4.6484,4.7109,4.8164,4.8203,4.8516,4.9219,5.0039,5.0469,5.0508,5.1992,5.2695,5.2734,5.3828,5.4687,5.5312,5.5508,5.6094,5.6953,5.7617,5.8125,5.8594,5.9883,6.0508,6.0781,6.1445,6.1719,6.1719,2.9342,2.9159,2.8975,2.8975,2.9801,3.0379,3.0379,3.0379,3.0379,3.0379,3.0379,3.1686,3.5109,3.5493,3.552,3.5534,3.5827,3.6016,3.6016,3.5966,3.4299,3.0544,3.0379,3.0402,3.0447,3.0402,3.0939,3.1958,3.2146,3.2364,3.2605,3.2605,3.2838,3.3197,3.2657,3.2584,3.2891,3.2852,3.3182,3.3729,3.3729,3.4068,3.4606,3.4885,3.5025,3.507,3.5364,3.5479,3.5493,3.5493,3.5993,3.6608,3.6608,3.7224,3.7916,3.7862,3.8776,3.9616,3.9051,3.9202,3.9896,4.148,4.217,4.2774,4.3901,4.4184,4.4432,4.524,4.5432,4.5163,4.4355,4.4162,4.3855,4.3124,0.0,0.0,4.2893,4.2893,4.3201,4.4008,4.4162,4.4586,4.5603,4.5753,4.5905,4.6088,4.6211,4.6289,4.6289,4.707,4.8281,4.9961,5.0,5.0039,5.0117,5.0898,5.1328,5.1328,5.2266,5.2695,5.2773,5.4453,5.5234,5.5351,5.6133,5.6992,5.7812,5.7851,5.8828,6.0234,6.0351,6.0898,6.1601,6.168,6.1719,6.1719,2.8975,2.8975,2.8975,2.8975,2.9801,3.0379,3.0379,3.0379,3.0379,3.0379,3.0379,3.0879,3.2186,3.4224,3.5493,3.5493,3.5609,3.5788,3.5976,3.5994,3.4432,3.0871,3.0491,3.0379,3.0379,3.0379,3.0963,3.209,3.2806,3.3064,3.2896,3.3228,3.3533,3.3794,3.3298,3.341,3.3971,3.3624,3.3811,3.4358,3.4358,3.458,3.4955,3.5064,3.5522,3.6108,3.6224,3.657,3.7046,3.7046,3.7238,3.7608,3.8146,3.8862,3.9746,4.0854,4.1519,4.1934,4.1769,4.1431,4.1439,4.2586,4.3126,4.3693,4.4858,4.5086,4.5201,4.5509,4.5586,4.5509,4.5163,4.4662,4.4393,4.4624,0.0,4.3278,4.3778,4.3855,4.397,4.4239,4.4778,4.524,4.5642,4.5757,4.5873,4.5913,4.6502,4.6872,4.6872,4.827,4.9648,5.0898,5.1484,5.1758,5.1758,5.2031,5.2461,5.3008,5.3906,5.4297,5.4336,5.5547,5.6094,5.6133,5.6445,5.7109,5.793,5.8476,5.9375,6.0469,6.1015,6.1406,6.1719,6.1719,6.1719,6.1719,2.886,2.8975,2.9112,2.9397,2.9977,3.0379,3.0379,3.0379,3.0379,3.0379,3.0379,3.0379,3.0379,3.3455,3.5493,3.5493,3.5493,3.5615,3.5831,3.593,3.4453,3.1055,3.0691,3.1023,3.1968,3.1468,3.1713,3.2821,3.3394,3.3525,3.3265,3.3618,3.3954,3.42,3.3928,3.4127,3.4695,3.4334,3.4338,3.4588,3.4936,3.5191,3.5399,3.5647,3.6247,3.6964,3.6964,3.7325,3.784,3.7954,3.8354,3.8892,3.9492,4.0438,4.1591,4.3047,4.347,4.3537,4.3795,4.3559,4.3263,4.3617,4.4091,4.4633,4.5414,4.5586,4.5586,4.5586,4.5586,4.5586,4.5586,4.5124,4.4893,4.5509,4.4624,4.4085,4.4624,4.4701,4.4701,4.4701,4.524,4.5586,4.5586,4.5932,4.6172,4.6201,4.7081,4.774,4.7999,4.9523,5.082,5.1719,5.2617,5.3242,5.3516,5.3242,5.3281,5.3594,5.4765,5.5312,5.5312,5.6211,5.6601,5.6601,5.6875,5.75,5.8359,5.9219,6.0078,6.0859,6.1484,6.1719,6.1719,6.1719,6.1719,6.1719,2.8535,2.9035,2.9312,3.0228,3.0379,3.0379,3.0379,3.0379,3.039,3.039,3.0429,3.0429,3.0429,3.3468,3.5493,3.5493,3.5493,3.5507,3.5507,3.5821,3.4492,3.1094,3.0937,3.2361,3.543,3.3814,3.3401,3.4398,3.3723,3.353,3.3807,3.3807,3.3954,3.42,3.4551,3.4713,3.4733,3.5019,3.4755,3.4298,3.5453,3.592,3.5979,3.6782,3.7255,3.7508,3.7508,3.7508,3.7583,3.7932,3.9161,4.0508,4.0508,4.17,4.3278,4.4085,4.4316,4.4418,4.4972,4.5323,4.5438,4.4776,4.5099,4.5586,4.5586,4.5586,4.5586,4.5586,4.5586,4.5586,4.5586,4.5624,4.5624,4.5624,4.5624,4.5624,4.5624,4.5624,4.5624,4.5624,4.5624,4.5624,4.5624,4.6471,4.7009,4.7009,4.7932,4.8894,4.976,5.075,5.168,5.25,5.3476,5.4414,5.5273,5.4453,5.3594,5.2734,5.4492,5.5312,5.5351,5.6211,5.6601,5.664,5.7539,5.8398,5.9258,6.0078,6.0898,6.1719,6.1719,6.1719,6.1719,6.1719,6.1719,6.1719,2.9375,2.9456,2.9312,3.0228,3.0379,3.0379,3.0379,3.0379,3.0492,3.072,3.2618,3.3158,3.0992,3.3577,3.5493,3.5493,3.5493,3.5588,3.5841,3.593,3.5547,3.4531,3.4492,3.4788,3.5482,3.5007,3.4846,3.519,3.4431,3.4013,3.3807,3.3807,3.4154,3.4776,3.5131,3.5131,3.4969,3.5848,3.5677,3.485,3.5806,3.6285,3.6483,3.6721,3.7347,3.8163,3.9013,3.97,4.0311,4.1251,4.1893,4.2431,4.297,4.3932,4.4893,4.5124,4.5201,4.5186,4.5125,4.5323,4.5514,4.5055,4.5263,4.5586,4.5586,4.5586,4.5586,4.5586,4.6086,4.6509,4.6509,4.6971,4.7355,4.7355,4.7355,4.7355,4.7355,4.7355,4.7355,4.7355,4.7355,4.7355,4.7355,4.7625,4.7778,4.7778,4.9163,5.0433,5.1356,5.2282,5.3254,5.4297,5.4609,5.4922,5.5312,5.5039,5.5078,5.543,5.5976,5.6211,5.625,5.7109,5.75,5.7578,5.8437,5.9297,6.0078,6.0312,6.0898,6.1719,6.1719,6.1719,6.1719,6.1719,6.1719,6.1797,2.7999,2.9019,2.9712,3.0318,3.0379,3.0379,3.0379,3.0379,3.0472,3.0686,3.2329,3.2817,3.1092,3.3643,3.5493,3.5493,3.5493,3.5593,3.58,3.5925,3.6016,3.6016,3.5864,3.571,3.5507,3.5493,3.5493,3.5493,3.4755,3.4165,3.3807,3.3807,3.4064,3.4541,3.5206,3.5303,3.5055,3.6218,3.6239,3.5605,3.6413,3.6934,3.7192,3.7404,3.804,3.8939,4.0008,4.0781,4.1474,4.2693,4.3316,4.3701,4.4547,4.5163,4.5586,4.5586,4.5586,4.5568,4.5361,4.5438,4.555,4.5361,4.5438,4.5586,4.5586,4.5855,4.6124,4.6124,4.6778,4.7355,4.7355,4.7778,4.8086,4.8086,4.8086,4.8086,4.8086,4.8086,4.8086,4.8086,4.8086,4.8086,4.8086,4.8394,4.8894,4.9548,5.0894,5.1933,5.251,5.3415,5.4233,5.4983,5.5414,5.5664,5.582,5.582,5.5898,5.6094,5.6797,5.7109,5.7148,5.8008,5.8398,5.8476,5.9297,5.9961,6.043,6.0781,6.1211,6.1719,6.1719,6.1719,6.1719,6.1719,6.1914,6.2305,2.577,2.8268,3.0379,3.0379,3.0379,3.0379,3.0379,3.0379,3.0379,3.0379,3.0379,3.0624,3.1262,3.3838,3.5493,3.5493,3.5493,3.5493,3.5493,3.5821,3.5976,3.5972,3.565,3.5493,3.5493,3.5493,3.5465,3.5354,3.4715,3.4165,3.3807,3.3807,3.388,3.4091,3.5106,3.5425,3.5312,3.6414,3.6693,3.6486,3.7331,3.7858,3.8143,3.8722,3.9296,3.9896,4.0835,4.1336,4.1739,4.2923,4.3816,4.4547,4.5355,4.5586,4.5586,4.5586,4.5586,4.5586,4.5586,4.5586,4.5624,4.5701,4.5701,4.5701,4.5701,4.6394,4.7009,4.7009,4.7663,4.824,4.824,4.8279,4.8317,4.8317,4.8317,4.8317,4.8317,4.8317,4.8317,4.8317,4.8317,4.8355,4.8432,4.924,5.0356,5.1895,5.2818,5.3318,5.3318,5.4262,5.4839,5.5014,5.5903,5.6445,5.6601,5.668,5.6289,5.543,5.7109,5.789,5.793,5.8867,5.9297,5.9336,6.0156,6.0508,6.0586,6.1367,6.1719,6.1719,6.1719,6.1719,6.1719,6.1719,6.2265,6.3008,2.9168,3.0086,3.0379,3.0379,3.0379,3.0379,3.0379,3.0379,3.0379,3.0379,3.0379,3.1455,3.4197,3.5109,3.5493,3.5493,3.5493,3.5493,3.5493,3.5821,3.5868,3.562,3.5547,3.5493,3.5493,3.5493,3.5069,3.4165,3.433,3.4165,3.3807,3.3807,3.4504,3.5752,3.6021,3.6462,3.7,3.7897,3.7897,3.7367,3.8799,3.9412,3.9577,4.0585,4.1054,4.1349,4.2762,4.3297,4.3531,4.4651,4.5163,4.5355,4.5547,4.5586,4.5586,4.5586,4.5586,4.5586,4.5586,4.5586,4.574,4.6432,4.6624,4.6624,4.6624,4.724,4.7855,4.7855,4.8509,4.9125,4.9125,4.9663,5.0125,5.0125,5.0125,5.0125,5.0125,5.0125,5.0125,5.0125,5.0125,5.0394,5.101,5.1856,5.2549,5.2895,5.3741,5.4203,5.4203,5.5011,5.5609,5.5917,5.6136,5.6347,5.6601,5.7265,5.7187,5.6328,5.7383,5.789,5.7969,5.9453,6.0156,6.0195,6.1055,6.1406,6.1445,6.1601,6.1719,6.1719,6.1719,6.1719,6.1719,6.1719,6.2265,6.3203,3.0506,3.0646,3.0379,3.0379,3.0379,3.0379,3.0379,3.1763,3.284,3.284,3.284,3.3493,3.5301,3.5493,3.5493,3.5493,3.6969,3.7199,3.5622,3.565,3.6414,3.7829,3.7892,3.7161,3.5532,3.6502,3.597,3.3807,3.4189,3.4165,3.3807,3.436,3.4998,3.5716,3.6523,3.711,3.7581,3.8358,3.8689,3.8726,3.9533,4.012,4.0519,4.1311,4.1717,4.198,4.3185,4.3992,4.4576,4.5342,4.5586,4.5586,4.5586,4.5586,4.5586,4.5586,4.5586,4.5586,4.5586,4.5893,4.6317,4.6778,4.7509,4.7971,4.7586,4.8125,4.8702,4.8702,4.974,5.0471,5.0087,5.1048,5.1741,5.1356,5.1625,5.1895,5.1895,5.1895,5.1895,5.1895,5.1895,5.2049,5.2472,5.3318,5.3818,5.3818,5.4587,5.5241,5.5665,5.5703,5.6186,5.7264,5.6961,5.7049,5.7695,5.8242,5.8281,5.7851,5.8672,5.9101,5.914,6.043,6.1015,6.1055,6.1484,6.1719,6.1719,6.1719,6.1719,6.1719,6.1719,6.1719,6.1719,6.1719,6.25,6.3867,3.0811,3.0686,3.0462,3.0402,3.0379,3.0379,3.0379,3.3301,3.5493,3.5493,3.5493,3.5493,3.5493,3.6007,3.6353,3.6353,3.8892,3.9315,3.6546,3.6353,3.7584,4.0392,4.0406,3.9051,3.6274,3.7605,3.6875,3.3807,3.4413,3.4399,3.3939,3.5008,3.5428,3.5358,3.6846,3.7581,3.7734,3.8542,3.9276,3.99,4.0194,4.0708,4.1364,4.1832,4.2183,4.2523,4.329,4.4303,4.5213,4.5495,4.5586,4.5586,4.5586,4.5586,4.5624,4.5778,4.5817,4.5855,4.597,4.6547,4.7163,4.7278,4.8355,4.9279,4.8856,4.9317,4.9779,4.9663,5.0971,5.1856,5.1048,5.2164,5.2972,5.2241,5.2741,5.3203,5.3203,5.3203,5.3203,5.3203,5.3318,5.3433,5.3433,5.4318,5.4934,5.4934,5.5665,5.6472,5.7165,5.6549,5.6879,5.844,5.7893,5.8031,5.8906,5.9219,5.9375,5.9414,6.0234,6.0547,6.043,6.1289,6.1719,6.1719,6.1719,6.1719,6.1719,6.1719,6.1719,6.1719,6.1719,6.1719,6.1719,6.1914,6.3047,6.4687,3.0811,3.0857,3.0732,3.0441,3.0379,3.0379,3.0379,3.3301,3.5493,3.5493,3.5493,3.5493,3.5493,3.8084,3.9815,3.9815,4.0239,4.0315,3.9854,3.9815,4.0008,4.0469,4.0004,3.9504,3.905,3.7667,3.5943,3.3807,3.5132,3.5287,3.4344,3.5118,3.5851,3.6519,3.7182,3.7881,3.8579,3.9386,3.979,4.001,4.1405,4.2029,4.2246,4.3287,4.3692,4.381,4.4597,4.5166,4.5532,4.5586,4.5586,4.5586,4.5586,4.5586,4.574,4.6509,4.674,4.6894,4.7586,4.7855,4.8125,4.8856,4.924,4.974,5.1087,5.1471,5.1356,5.0664,5.1856,5.2779,5.1895,5.2549,5.3164,5.3049,5.3126,5.3203,5.3203,5.3203,5.3203,5.3203,5.3857,5.4318,5.4318,5.5742,5.6665,5.6665,5.7473,5.8011,5.8127,5.8011,5.8127,5.8517,5.8406,5.8542,5.8906,5.9687,6.0117,6.0234,6.1094,6.1133,6.043,6.1289,6.1719,6.1719,6.1719,6.1719,6.1719,6.1719,6.1719,6.1719,6.1719,6.1719,6.1836,6.2812,6.3984,6.5234,3.0598,3.0788,3.0856,3.0711,3.2087,3.3263,3.3263,3.4532,3.5493,3.5493,3.5493,3.5493,3.5493,3.8507,4.0508,4.0508,4.0508,4.0508,4.0508,4.0508,4.0508,4.0508,3.958,3.9208,3.9427,3.7772,3.6609,3.5962,3.597,3.5402,3.4307,3.5873,3.6656,3.6756,3.7914,3.8752,3.9386,3.9753,4.0414,4.1295,4.1992,4.258,4.3051,4.3732,4.4146,4.4428,4.512,4.5341,4.5339,4.5532,4.5586,4.5701,4.6163,4.6317,4.6509,4.7317,4.7586,4.7663,4.8009,4.8471,4.8933,4.9317,5.0087,5.101,5.1741,5.2664,5.3126,5.2279,5.3087,5.3664,5.2779,5.3703,5.4434,5.401,5.4318,5.4587,5.4587,5.4587,5.478,5.5241,5.5665,5.6088,5.6588,5.728,5.7742,5.7742,5.8088,5.8511,5.8934,5.855,5.8742,5.9765,5.9419,5.9476,6.0048,6.0573,6.0866,6.1015,6.1406,6.1445,6.1133,6.1523,6.1719,6.1719,6.1719,6.1719,6.1719,6.1719,6.1719,6.1719,6.1719,6.2109,6.2773,6.3984,6.5156,6.6211]},{"header":{"parameterUnit":"m.s-1","parameterCategory":1,"la1":30.6,"la2":28.766,"lo1":-90.7593,"lo2":-88.6598,"dy":0.0162,"dx":0.0183,"nx":116,"ny":114,"refTime":"2024-03-28T06:00:00:Z","depth":0,"parameterNumber":3,"parameterNumberName":"V-component_of_WINDS"},"data":[0.0,0.0,0.0,0.0,0.0,0.0,0.0,0.0,0.0,0.0,0.0,0.0,0.0,0.0,0.0,0.0,0.0,0.0,0.0,0.0,0.0,0.0,0.0,0.0,0.0,0.0,0.0,0.0,0.0,0.0,0.0,0.0,0.0,0.0,0.0,0.0,0.0,0.0,0.0,0.0,0.0,0.0,0.0,0.0,0.0,0.0,0.0,0.0,0.0,0.0,0.0,0.0,0.0,0.0,0.0,0.0,0.0,0.0,0.0,0.0,0.0,0.0,0.0,0.0,0.0,0.0,0.0,0.0,0.0,0.0,0.0,0.0,0.0,0.0,0.0,0.0,0.0,0.0,0.0,0.0,0.0,0.0,0.0,0.0,0.0,0.0,0.0,0.0,0.0,0.0,0.0,0.0,0.0,0.0,0.0,0.0,0.0,0.0,0.0,0.0,0.0,0.0,0.0,0.0,0.0,0.0,0.0,0.0,0.0,0.0,0.0,0.0,0.0,0.0,0.0,0.0,0.0,0.0,0.0,0.0,0.0,0.0,0.0,0.0,0.0,0.0,0.0,0.0,0.0,0.0,0.0,0.0,0.0,0.0,0.0,0.0,0.0,0.0,0.0,0.0,0.0,0.0,0.0,0.0,0.0,0.0,0.0,0.0,0.0,0.0,0.0,0.0,0.0,0.0,0.0,0.0,0.0,0.0,0.0,0.0,0.0,0.0,0.0,0.0,0.0,0.0,0.0,0.0,0.0,0.0,0.0,0.0,0.0,0.0,0.0,0.0,0.0,0.0,0.0,0.0,0.0,0.0,0.0,0.0,0.0,0.0,0.0,0.0,0.0,0.0,0.0,0.0,0.0,0.0,0.0,0.0,0.0,0.0,0.0,0.0,0.0,0.0,0.0,0.0,0.0,0.0,0.0,0.0,0.0,0.0,0.0,0.0,0.0,0.0,0.0,0.0,0.0,0.0,0.0,0.0,0.0,0.0,0.0,0.0,0.0,0.0,0.0,0.0,0.0,0.0,0.0,0.0,0.0,0.0,0.0,0.0,0.0,0.0,0.0,0.0,0.0,0.0,0.0,0.0,0.0,0.0,0.0,0.0,0.0,0.0,0.0,0.0,0.0,0.0,0.0,0.0,0.0,0.0,0.0,0.0,0.0,0.0,0.0,0.0,0.0,0.0,0.0,0.0,0.0,0.0,0.0,0.0,0.0,0.0,0.0,0.0,0.0,0.0,0.0,0.0,0.0,0.0,0.0,0.0,0.0,0.0,0.0,0.0,0.0,0.0,0.0,0.0,0.0,0.0,0.0,0.0,0.0,0.0,0.0,0.0,0.0,0.0,0.0,0.0,0.0,0.0,0.0,0.0,0.0,0.0,0.0,0.0,0.0,0.0,0.0,0.0,0.0,0.0,0.0,0.0,0.0,0.0,0.0,0.0,0.0,0.0,0.0,0.0,0.0,0.0,0.0,0.0,0.0,0.0,0.0,0.0,0.0,0.0,0.0,0.0,0.0,0.0,0.0,0.0,0.0,0.0,0.0,0.0,0.0,0.0,0.0,0.0,0.0,0.0,0.0,0.0,0.0,0.0,0.0,0.0,0.0,0.0,0.0,0.0,0.0,0.0,0.0,0.0,0.0,0.0,0.0,0.0,0.0,0.0,0.0,0.0,0.0,0.0,0.0,0.0,0.0,0.0,0.0,0.0,0.0,0.0,0.0,0.0,0.0,0.0,0.0,0.0,0.0,0.0,0.0,0.0,0.0,0.0,0.0,0.0,0.0,0.0,0.0,0.0,0.0,0.0,0.0,0.0,0.0,0.0,0.0,0.0,0.0,0.0,0.0,0.0,0.0,0.0,0.0,0.0,0.0,0.0,0.0,0.0,0.0,0.0,0.0,0.0,0.0,0.0,0.0,0.0,0.0,0.0,0.0,0.0,0.0,0.0,0.0,0.0,0.0,0.0,0.0,0.0,0.0,0.0,0.0,0.0,0.0,0.0,0.0,0.0,0.0,0.0,0.0,0.0,0.0,0.0,0.0,0.0,0.0,0.0,0.0,0.0,0.0,0.0,0.0,0.0,0.0,0.0,0.0,0.0,0.0,0.0,0.0,0.0,0.0,0.0,0.0,0.0,0.0,0.0,0.0,0.0,0.0,0.0,0.0,0.0,0.0,0.0,0.0,0.0,0.0,0.0,0.0,0.0,0.0,0.0,0.0,0.0,0.0,0.0,0.0,0.0,0.0,0.0,0.0,0.0,0.0,0.0,0.0,0.0,0.0,0.0,0.0,0.0,0.0,0.0,0.0,0.0,0.0,0.0,0.0,0.0,0.0,0.0,0.0,0.0,0.0,0.0,0.0,0.0,0.0,0.0,0.0,0.0,0.0,0.0,0.0,0.0,0.0,0.0,0.0,0.0,0.0,0.0,0.0,0.0,0.0,0.0,0.0,0.0,0.0,0.0,0.0,0.0,0.0,0.0,0.0,0.0,0.0,0.0,0.0,0.0,0.0,0.0,0.0,0.0,0.0,0.0,0.0,0.0,0.0,0.0,0.0,0.0,0.0,0.0,0.0,0.0,0.0,0.0,0.0,0.0,0.0,0.0,0.0,0.0,0.0,0.0,0.0,0.0,0.0,0.0,0.0,0.0,0.0,0.0,0.0,0.0,0.0,0.0,0.0,0.0,0.0,0.0,0.0,0.0,0.0,0.0,0.0,0.0,0.0,0.0,0.0,0.0,0.0,0.0,0.0,0.0,0.0,0.0,0.0,0.0,0.0,0.0,0.0,0.0,0.0,0.0,0.0,0.0,0.0,0.0,0.0,0.0,0.0,0.0,0.0,0.0,0.0,0.0,0.0,0.0,0.0,0.0,0.0,0.0,0.0,0.0,0.0,0.0,0.0,0.0,0.0,0.0,0.0,0.0,0.0,0.0,0.0,0.0,0.0,0.0,0.0,0.0,0.0,0.0,0.0,0.0,0.0,0.0,0.0,0.0,0.0,0.0,0.0,0.0,0.0,0.0,0.0,0.0,0.0,0.0,0.0,0.0,0.0,0.0,0.0,0.0,0.0,0.0,0.0,0.0,0.0,0.0,0.0,0.0,0.0,0.0,0.0,0.0,0.0,0.0,0.0,0.0,0.0,0.0,0.0,0.0,0.0,0.0,0.0,0.0,0.0,0.0,0.0,0.0,0.0,0.0,0.0,0.0,0.0,0.0,0.0,0.0,0.0,0.0,0.0,0.0,0.0,0.0,0.0,0.0,0.0,0.0,0.0,0.0,0.0,0.0,0.0,0.0,0.0,0.0,0.0,0.0,0.0,0.0,0.0,0.0,0.0,0.0,0.0,0.0,0.0,0.0,0.0,0.0,0.0,0.0,0.0,0.0,0.0,0.0,0.0,0.0,0.0,0.0,0.0,0.0,0.0,0.0,0.0,0.0,0.0,0.0,0.0,0.0,0.0,0.0,0.0,0.0,0.0,0.0,0.0,0.0,0.0,0.0,0.0,0.0,0.0,0.0,0.0,0.0,0.0,0.0,0.0,0.0,0.0,0.0,0.0,0.0,0.0,0.0,0.0,0.0,0.0,0.0,0.0,0.0,0.0,0.0,0.0,0.0,0.0,0.0,0.0,0.0,0.0,0.0,0.0,0.0,0.0,0.0,0.0,0.0,0.0,0.0,0.0,0.0,0.0,0.0,0.0,0.0,0.0,0.0,0.0,0.0,0.0,0.0,0.0,0.0,0.0,0.0,0.0,0.0,0.0,0.0,0.0,0.0,0.0,0.0,0.0,0.0,0.0,0.0,0.0,0.0,0.0,0.0,0.0,0.0,0.0,0.0,0.0,0.0,0.0,0.0,0.0,0.0,0.0,0.0,0.0,0.0,0.0,0.0,0.0,0.0,0.0,0.0,0.0,0.0,0.0,0.0,0.0,0.0,0.0,0.0,0.0,0.0,0.0,0.0,0.0,0.0,0.0,0.0,0.0,0.0,0.0,0.0,0.0,0.0,0.0,0.0,0.0,0.0,0.0,0.0,0.0,0.0,0.0,0.0,0.0,0.0,0.0,0.0,0.0,0.0,0.0,0.0,0.0,0.0,0.0,0.0,0.0,0.0,0.0,0.0,0.0,0.0,0.0,0.0,0.0,0.0,0.0,0.0,0.0,0.0,0.0,0.0,0.0,0.0,0.0,0.0,0.0,0.0,0.0,0.0,0.0,0.0,0.0,0.0,0.0,0.0,0.0,0.0,0.0,0.0,0.0,0.0,0.0,0.0,0.0,0.0,0.0,0.0,0.0,0.0,0.0,0.0,0.0,0.0,0.0,0.0,0.0,0.0,0.0,0.0,0.0,0.0,0.0,0.0,0.0,0.0,0.0,0.0,0.0,0.0,0.0,0.0,0.0,0.0,0.0,0.0,0.0,0.0,0.0,0.0,0.0,0.0,0.0,0.0,0.0,0.0,0.0,0.0,0.0,0.0,0.0,0.0,0.0,0.0,0.0,0.0,0.0,0.0,0.0,0.0,0.0,0.0,0.0,0.0,0.0,0.0,0.0,0.0,0.0,0.0,0.0,0.0,0.0,0.0,0.0,0.0,0.0,0.0,0.0,0.0,0.0,0.0,0.0,0.0,0.0,0.0,0.0,0.0,0.0,0.0,0.0,0.0,0.0,0.0,0.0,0.0,0.0,0.0,0.0,0.0,0.0,0.0,0.0,0.0,0.0,0.0,0.0,0.0,0.0,0.0,0.0,0.0,0.0,0.0,0.0,0.0,0.0,0.0,0.0,0.0,0.0,0.0,0.0,0.0,0.0,0.0,0.0,0.0,0.0,0.0,0.0,0.0,0.0,0.0,0.0,0.0,0.0,0.0,0.0,0.0,0.0,0.0,0.0,0.0,0.0,0.0,0.0,0.0,0.0,0.0,0.0,0.0,0.0,0.0,0.0,0.0,0.0,0.0,0.0,0.0,0.0,0.0,0.0,0.0,0.0,0.0,0.0,0.0,0.0,0.0,0.0,0.0,0.0,0.0,0.0,0.0,0.0,0.0,0.0,0.0,0.0,0.0,0.0,0.0,0.0,0.0,0.0,0.0,0.0,0.0,0.0,0.0,0.0,0.0,0.0,0.0,0.0,0.0,0.0,0.0,0.0,0.0,0.0,0.0,0.0,0.0,0.0,0.0,0.0,0.0,0.0,0.0,0.0,0.0,0.0,0.0,0.0,0.0,0.0,0.0,0.0,0.0,0.0,0.0,0.0,0.0,0.0,0.0,0.0,0.0,0.0,0.0,0.0,0.0,0.0,0.0,0.0,0.0,0.0,0.0,0.0,0.0,0.0,0.0,0.0,0.0,0.0,0.0,0.0,0.0,0.0,0.0,0.0,0.0,0.0,0.0,0.0,0.0,0.0,0.0,0.0,0.0,0.0,0.0,0.0,0.0,0.0,0.0,0.0,0.0,0.0,0.0,0.0,0.0,0.0,0.0,0.0,0.0,0.0,0.0,0.0,0.0,0.0,0.0,0.0,0.0,0.0,0.0,0.0,0.0,0.0,0.0,0.0,0.0,0.0,0.0,0.0,0.0,0.0,0.0,0.0,0.0,0.0,0.0,0.0,0.0,0.0,0.0,0.0,0.0,0.0,0.0,0.0,0.0,0.0,0.0,0.0,0.0,0.0,0.0,0.0,0.0,0.0,0.0,0.0,0.0,0.0,0.0,0.0,0.0,0.0,0.0,0.0,0.0,0.0,0.0,0.0,0.0,0.0,0.0,0.0,0.0,0.0,0.0,0.0,0.0,0.0,0.0,0.0,0.0,0.0,0.0,0.0,0.0,0.0,0.0,0.0,0.0,0.0,0.0,0.0,0.0,0.0,0.0,0.0,0.0,0.0,0.0,0.0,0.0,0.0,0.0,0.0,0.0,0.0,0.0,0.0,0.0,0.0,0.0,0.0,0.0,0.0,0.0,0.0,0.0,0.0,0.0,0.0,0.0,0.0,0.0,0.0,0.0,0.0,0.0,0.0,0.0,0.0,0.0,0.0,0.0,0.0,0.0,0.0,0.0,0.0,0.0,0.0,0.0,0.0,0.0,0.0,0.0,0.0,0.0,0.0,0.0,0.0,0.0,0.0,0.0,0.0,0.0,0.0,0.0,0.0,0.0,0.0,0.0,0.0,0.0,0.0,0.0,0.0,0.0,0.0,0.0,0.0,0.0,0.0,0.0,0.0,0.0,0.0,0.0,0.0,0.0,0.0,0.0,0.0,0.0,0.0,0.0,0.0,0.0,0.0,0.0,-0.4442,-0.4477,-0.4477,-0.4477,-0.4477,-0.4477,-0.4525,-0.4525,-0.4477,-0.4484,0.0,0.0,0.0,0.0,0.0,0.0,0.0,0.0,0.0,0.0,0.0,0.0,0.0,0.0,0.0,0.0,0.0,0.0,0.0,0.0,0.0,0.0,0.0,0.0,0.0,0.0,0.0,0.0,0.0,0.0,0.0,0.0,0.0,0.0,0.0,0.0,0.0,0.0,0.0,0.0,0.0,0.0,0.0,0.0,0.0,0.0,0.0,0.0,0.0,0.0,0.0,0.0,0.0,0.0,0.0,0.0,0.0,0.0,0.0,0.0,0.0,0.0,0.0,0.0,0.0,0.0,0.0,0.0,0.0,0.0,0.0,0.0,0.0,0.0,0.0,0.0,0.0,0.0,0.0,0.0,0.0,0.0,0.0,0.0,0.0,0.0,0.0,0.0,0.0,0.0,0.0,0.0,0.0,0.0,0.0,0.0,0.0,0.0,0.0,0.0,0.0,0.0,0.0,0.0,0.0,0.0,-0.4442,-0.4477,-0.4525,-0.4477,-0.4518,-0.4495,-0.4522,-0.4492,-0.4505,-0.4512,-0.4482,0.0,0.0,0.0,0.0,0.0,0.0,0.0,0.0,0.0,0.0,0.0,0.0,0.0,0.0,0.0,0.0,0.0,0.0,0.0,0.0,0.0,0.0,0.0,0.0,0.0,0.0,0.0,0.0,0.0,0.0,0.0,0.0,0.0,0.0,0.0,0.0,0.0,0.0,0.0,0.0,0.0,0.0,0.0,0.0,0.0,0.0,0.0,0.0,0.0,0.0,0.0,0.0,0.0,0.0,0.0,0.0,0.0,0.0,0.0,0.0,0.0,0.0,0.0,-0.0913,0.0,0.0,0.0,0.0,0.0,0.0,0.0,0.0,0.0,0.0,0.0,0.0,0.0,0.0,0.0,0.0,0.0,0.0,0.0,0.0,0.0,0.0,0.0,0.0,0.0,0.0,0.0,0.0,0.0,0.0,0.0,0.0,0.0,0.0,0.0,0.0,0.0,0.0,0.0,0.0,-0.4095,-0.4497,-0.4484,-0.447,-0.4519,-0.4487,-0.4485,-0.4472,-0.4522,-0.4511,-0.4493,-0.4481,-0.283,0.0,0.0,0.0,0.0,0.0,0.0,0.0,0.0,0.0,0.0,0.0,0.0,0.0,0.0,0.0,0.0,0.0,0.0,0.0,0.0,0.0,0.0,0.0,0.0,0.0,0.0,0.0,0.0,0.0,0.0,0.0,0.0,0.0,0.0,0.0,0.0,0.0,0.0,0.0,0.0,0.0,0.0,-0.5286,-0.5345,0.0,0.0,0.0,0.0,0.0,0.0,0.0,0.0,0.0,0.0,0.0,0.0,0.0,0.0,-0.681,-0.6669,-0.5389,-0.2996,-0.0991,0.0,0.0,0.0,0.0,0.0,0.0,0.0,0.0,0.0,0.0,0.0,0.0,0.0,0.0,0.0,0.0,0.0,0.0,0.0,0.0,0.0,0.0,0.0,0.0,0.0,0.0,0.0,0.0,0.0,0.0,0.0,0.0,0.0,0.0,0.0,0.0,0.0,-0.0747,-0.2479,-0.3822,-0.4497,-0.4497,-0.4511,-0.4491,-0.4485,-0.483,-0.5178,-0.5531,-0.5529,-0.5498,-0.5484,-0.5494,-0.347,0.0,0.0,0.0,0.0,0.0,0.0,0.0,0.0,0.0,0.0,0.0,0.0,0.0,0.0,0.0,0.0,0.0,0.0,0.0,0.0,0.0,0.0,0.0,0.0,0.0,0.0,0.0,0.0,0.0,0.0,0.0,0.0,0.0,0.0,0.0,0.0,0.0,0.0,0.0,0.0,0.0,-0.5385,-0.5776,-0.5415,-0.5596,-0.5668,0.0,0.0,0.0,0.0,0.0,0.0,0.0,0.0,0.0,-0.6944,-0.7285,-0.7516,-0.7428,-0.7246,-0.5892,-0.3355,-0.1099,0.0,0.0,0.0,0.0,0.0,0.0,0.0,0.0,0.0,0.0,0.0,0.0,0.0,0.0,0.0,0.0,0.0,0.0,0.0,0.0,0.0,0.0,0.0,0.0,0.0,0.0,0.0,0.0,0.0,-0.1218,-0.1321,-0.14,-0.139,-0.1228,-0.0804,-0.0058,0.0,-0.136,-0.4369,-0.4511,-0.4497,-0.4497,-0.4278,-0.4376,-0.4816,-0.5339,-0.5866,-0.631,-0.6287,-0.6302,-0.6302,-0.6272,-0.4517,-0.1407,-0.0425,0.0,0.0294,0.0,0.0,0.0,0.0,0.0,0.0,0.0,0.0,0.0,0.0,0.0,0.0,0.0,0.0,0.0,0.0,0.0,0.0,0.0,0.0,0.0,0.0,0.0,0.0,0.0,0.0,0.0,0.0,0.0,0.0,0.0,0.0,0.0,0.0,0.0,0.0,0.0,-0.5133,-0.6085,-0.5588,-0.5926,-0.6071,0.0,0.0,0.0,0.0,0.0,0.0,-0.4713,-0.5735,-0.6697,-0.7616,-0.8011,-0.8221,-0.8099,-0.7935,-0.6475,-0.3653,-0.1181,0.0,0.0,0.0,0.0,0.0,0.0,0.0,0.0,0.0,0.0,0.0,0.0,0.0,0.0,0.0,0.0,0.0,0.0,0.0,0.0,0.0,0.0,0.0,0.0,0.0,0.0,0.0,0.0,-0.3711,-0.4567,-0.4934,-0.515,-0.5142,-0.4603,-0.303,-0.0184,0.0,-0.1351,-0.4356,-0.4511,-0.4497,-0.4497,-0.3607,-0.4014,-0.5761,-0.6119,-0.6295,-0.6307,-0.6304,-0.629,-0.629,-0.6296,-0.5995,-0.5241,-0.1546,0.0,0.033,0.3898,0.0,0.0,0.0,0.0,0.0,0.0,0.0,0.0,0.0,0.0,0.0,0.0,0.0,0.0,0.0,0.0,0.0,0.0,0.0,0.0,0.0,0.0,0.0,0.0,0.0,0.0,0.0,0.0,0.0,0.0,0.0,0.0,0.0,0.0,0.0,0.0,0.0,0.0,-0.5978,-0.6513,0.0,0.0,0.0,0.0,-0.599,-0.403,-0.2804,-0.2835,-0.2907,-0.4572,-0.8118,-0.8649,-0.8803,-0.8879,-0.8608,-0.6937,-0.3898,-0.132,0.0,0.0,0.0,0.0,0.0,0.0,0.0,0.0,0.0,0.0,0.0,0.0,0.0,0.0,0.0,0.0,0.0,0.0,0.0,0.0,0.0,0.0,0.0,0.0,0.0,-0.1106,-0.4115,-0.6579,-0.7769,-0.6934,-0.6153,-0.5728,-0.5986,-0.3317,-0.1175,-0.0062,0.0,-0.0879,-0.2932,-0.3026,-0.3527,-0.4657,-0.4408,-0.4846,-0.6106,-0.6973,-0.7706,-0.8268,-0.8703,-0.8426,-0.7573,-0.7347,-0.6829,-0.5996,-0.4654,-0.2516,0.0126,0.1379,0.3175,0.0,0.0,0.0,0.0,0.0,0.0,0.0,0.0,0.0,0.0,0.0,0.0,0.0,0.0,0.0,0.0,0.0,0.0,0.0,0.0,0.0,0.0,0.0,0.0,0.0,0.0,0.0,0.0,0.0,0.0,0.0,0.0,0.0,0.0,0.0,0.0,0.0,-0.6638,-0.7075,0.0,-0.679,-0.6563,-0.5736,-0.4039,-0.4215,-0.3415,-0.1114,-0.0959,-0.1541,-0.2894,-0.7034,-0.9238,-0.9245,-0.9352,-0.7606,-0.4331,-0.1386,0.0,0.0115,0.4018,0.365,0.0,0.0,0.2174,0.5678,0.5337,0.3158,0.0,0.0,0.0,0.0,0.0,0.0,0.0,0.0,0.0,0.0,0.0,0.0,0.0,0.0,0.0,-0.0879,-0.3412,-0.7127,-0.9059,-0.7767,-0.6711,-0.6125,-0.6218,-0.3595,-0.1408,-0.0063,-0.0977,-0.1939,-0.2932,-0.2965,-0.3538,-0.4727,-0.4903,-0.5438,-0.6457,-0.7277,-0.8206,-0.9165,-0.9606,-0.9412,-0.8637,-0.8016,-0.7403,-0.6765,-0.6459,-0.4344,-0.128,-0.0799,0.0775,0.2868,0.0,0.0,0.0,0.0,0.0,0.0,0.0,0.0,0.0,0.0,0.0,0.0,0.0,0.0,0.0,0.0,0.0,0.0,0.0,0.0,0.0,0.0,0.0,0.0,0.0,0.0,0.0,0.0,0.0,0.0,0.0,0.0,0.0,0.0,0.0,-0.776,-0.7746,-0.8041,-0.7898,-0.7217,-0.7272,-0.6365,-0.4388,-0.383,-0.257,-0.011,0.0,0.0,0.0,-0.5148,-0.845,-0.9564,-0.9788,-0.8105,-0.4596,-0.1544,0.0,0.0235,0.6162,0.6746,0.2912,0.1991,0.3743,0.7506,0.8005,0.6039,0.2657,0.1748,0.1919,0.2619,0.1721,0.0764,0.0,0.0,0.0,0.0,-0.0223,0.0,0.0,0.0,-0.0045,-0.06,-0.1995,-0.5313,-0.7439,-0.7186,-0.6924,-0.6599,-0.6125,-0.5832,-0.4156,-0.0401,-0.2827,-0.4455,-0.4511,-0.4497,-0.4558,-0.4701,-0.4986,-0.566,-0.6688,-0.7051,-0.7744,-0.8865,-0.8875,-0.9079,-0.9301,-0.8313,-0.7855,-0.777,-0.6791,-0.551,-0.3968,-0.2556,-0.2238,-0.2154,0.0,0.0,0.0,0.0,0.0,0.0,0.0,0.0,0.0,0.0,0.0,0.0,0.0,0.0,0.0,0.0,0.0,0.0,0.0,0.0,0.0,0.0,0.0,0.0,0.0,0.0,0.0,0.0,0.0,0.0,0.0,0.0,0.0,-0.5466,-0.7217,-0.8741,-0.9343,-0.9102,-0.8514,-0.7547,-0.8006,-0.806,-0.7166,-0.2713,0.0,0.0,0.0,0.0,0.0,-0.3073,-0.6394,-0.9734,-0.9767,-0.815,-0.4913,-0.1552,0.0118,0.047,0.6162,0.8805,0.8792,0.5824,0.4578,0.479,0.7457,0.8329,0.7756,0.5099,0.5746,0.7711,0.5035,0.2382,0.0,0.0,0.0,-0.2442,-0.0384,0.0,0.0,0.0,-0.1484,-0.2498,-0.2244,-0.5569,-0.7991,-0.8047,-0.8642,-0.8803,-0.8328,-0.6656,-0.516,-0.3771,-0.3141,-0.336,-0.4435,-0.4649,-0.4821,-0.5006,-0.5894,-0.6614,-0.6999,-0.8796,-0.9763,-0.9974,-1.0888,-1.1021,-1.0409,-1.011,-0.9593,-0.8836,-0.8562,-0.8309,-0.7924,-0.7164,-0.6588,-0.5825,0.0,0.0,0.0,0.0,0.0,0.0,0.0,0.0,0.0,0.0,0.0,0.0,0.0,0.0,0.0,0.0,0.0,0.0,0.0,0.0,0.0,0.0,0.0,0.0,0.0,0.0,0.0,0.0,0.0,0.0,0.0,-0.3718,-0.5808,-0.7145,-0.6594,-0.6827,-0.8976,-0.9259,-0.9091,-0.8713,-0.6769,-0.6373,-0.8238,-0.3178,0.0,0.0,0.0,0.0,0.0,-0.0861,-0.4057,-0.9767,-0.9781,-0.8105,-0.4834,-0.1559,0.2245,0.6493,0.5956,0.692,0.889,0.7859,0.7471,0.7454,0.7954,0.8157,0.813,0.7244,0.7397,0.7925,0.7208,0.393,0.0,0.0,-0.3302,-0.2847,-0.1046,-0.0344,0.0,0.0,-0.2066,-0.3435,-0.2998,-0.6034,-0.8244,-0.8388,-0.9209,-0.9546,-0.901,-0.7118,-0.5766,-0.513,-0.3868,-0.3599,-0.4572,-0.4718,-0.4836,-0.5121,-0.631,-0.714,-0.766,-0.9493,-1.0598,-1.1066,-1.2168,-1.2462,-1.2044,-1.2004,-1.1774,-1.1352,-1.0964,-1.1175,-1.1778,-1.1449,-1.0161,-0.8135,-0.6101,-0.4937,-0.3996,-0.1478,0.0187,0.1208,0.0961,0.0,0.0,0.0,0.0,0.0,0.0,0.0,0.0,0.0,0.0,0.0,0.0,0.0,0.0,0.0,0.0,0.0,0.0,0.0,0.0,0.0,0.0,0.0,0.0,-0.1791,-0.419,-0.7339,-0.6469,-0.6516,-0.9104,-0.9566,-0.9578,-0.9493,-0.6588,-0.4794,-0.517,-0.1939,0.0,0.0,0.0,0.0,0.0,0.0,-0.246,-0.7649,-0.9161,-0.8842,-0.6861,-0.2269,0.1765,0.5177,0.593,0.7247,0.0,0.8702,0.8622,0.8595,0.8307,0.818,0.0,0.0,0.0,0.0,0.0,0.5982,0.303,0.0,-0.3062,-0.2775,-0.1902,-0.0796,0.0,0.0,-0.1932,-0.3527,-0.389,-0.6338,-0.8117,-0.8269,-0.8984,-0.9231,-0.8689,-0.7363,-0.6166,-0.5404,-0.4883,-0.4741,-0.4955,-0.4793,-0.4937,-0.5304,-0.6498,-0.7607,-0.8633,-0.9777,-1.0949,-1.2131,-1.2997,-1.3686,-1.4191,-1.4114,-1.4398,-1.4809,-1.3992,-1.4275,-1.5388,-1.5418,-1.3265,-0.9851,-0.827,-0.6871,-0.5597,-0.4579,-0.2569,-0.0911,-0.4273,0.0,0.0,0.0,0.0,0.0,0.0,0.0,0.0,0.0,0.0,0.0,0.0,0.0,0.0,0.0,0.0,0.0,0.0,0.0,0.0,0.0,0.0,0.0,0.0,0.0,-0.1546,-0.6157,-0.6565,-0.7295,-0.9573,-0.982,-0.9747,-0.9801,-0.7168,-0.3948,-0.0247,0.0,0.0,0.0,0.0,0.0,0.0,0.0,-0.1598,-0.4916,-0.8167,-0.9599,-0.9161,-0.368,-0.0701,0.0229,0.5881,0.8568,0.8883,0.8798,0.8703,0.8662,0.8384,0.8262,0.8241,0.7711,0.7366,0.7077,0.7095,0.7101,0.0,0.0,-0.2769,-0.2483,-0.1576,-0.0615,0.0,0.0,-0.121,-0.2506,-0.3554,-0.5558,-0.7063,-0.7443,-0.8436,-0.8783,-0.7995,-0.7532,-0.7101,-0.6712,-0.5988,-0.5686,-0.5926,-0.5348,-0.5567,-0.6697,-0.7834,-0.8943,-1.0041,-1.125,-1.2435,-1.3504,-1.399,-1.5209,-1.7113,-1.7096,-1.7533,-1.8457,-1.8708,-1.8581,-1.8291,-1.892,-1.6707,-1.294,-1.183,-0.989,-0.7337,-0.3906,-0.2743,-0.317,-0.4851,-0.4474,-0.3038,-0.1593,-0.0134,0.0,0.0,0.0,0.0,0.0,0.0,0.0,0.0,0.0,0.0,0.0,0.0,0.0,0.0,0.0,0.0,0.0,0.0,0.0,0.0,0.0,-0.0327,-0.1367,-0.5869,-0.9274,-0.9795,-0.9814,-0.979,-0.9817,-0.9206,-0.6424,-0.0503,0.0,0.0,0.0,0.0,0.0,0.0,0.0,-0.1602,-0.4916,-0.8167,-0.8424,-0.5898,0.0,0.0,0.0112,0.3743,0.6684,0.8856,0.8791,0.8642,0.8513,0.835,0.8235,0.7837,0.5646,0.3419,0.1513,0.1515,0.1515,0.1414,0.0,-0.2713,-0.239,-0.1457,-0.059,-0.0413,-0.16,-0.1811,-0.2267,-0.3557,-0.502,-0.6103,-0.6478,-0.7501,-0.7822,-0.6933,-0.6624,-0.6721,-0.7244,-0.6905,-0.6804,-0.7169,-0.7012,-0.7145,-0.7749,-0.9034,-1.0195,-1.1171,-1.2421,-1.387,-1.5585,-1.6275,-1.755,-1.935,-1.9819,-2.0585,-2.1602,-2.1837,-2.1673,-2.1273,-2.172,-1.9736,-1.6313,-1.4137,-1.1703,-0.8886,-0.5352,-0.3101,-0.2191,-0.4711,-0.5672,-0.5698,-0.47,-0.2458,0.0133,0.0,0.0,0.0,0.0,0.0,0.0,0.0,0.0,0.0,0.0,0.0,0.0,0.0,0.0,0.0,0.0,0.0,0.0,0.0,0.0,0.0,0.0,-0.2864,-0.6107,-0.9374,-0.9801,-0.9841,-0.9757,-0.9777,-0.7127,-0.0499,0.0,0.0,0.0,0.0,0.0,0.0,0.0,-0.074,-0.2459,-0.7306,-0.8927,-0.7311,-0.5704,-0.3137,0.0111,0.4613,0.7544,0.8866,0.8689,0.8574,0.8374,0.6805,0.6923,0.7818,0.657,0.3528,0.0,0.0,0.0,0.0,0.0,-0.2686,-0.2395,-0.1476,-0.0565,-0.0671,-0.2597,-0.2471,-0.2558,-0.3705,-0.4701,-0.5313,-0.5352,-0.6317,-0.6719,-0.6045,-0.5828,-0.6332,-0.78,-0.7817,-0.7992,-0.8452,-0.8575,-0.8612,-0.8627,-0.9938,-1.1125,-1.222,-1.3401,-1.5248,-1.7726,-1.8664,-1.9996,-2.1647,-2.2545,-2.3418,-2.4415,-2.4622,-2.4444,-2.4073,-2.3972,-2.225,-1.9482,-1.6109,-1.3117,-1.0324,-0.7397,-0.4201,-0.1851,-0.4608,-0.5865,-0.6215,-0.5938,-0.3818,-0.1336,-0.0801,0.1627,0.0,0.0,0.0,0.0,0.0,0.0,0.0,0.0,0.0933,-0.2096,-0.1471,-0.0644,0.0,0.0,0.0,0.0,0.0,0.0,0.0,0.0,0.0,-0.2447,-0.8964,-0.9741,-0.9781,-0.9821,-0.8694,-0.5702,-0.0372,0.0,0.0,0.0,0.0,0.0,0.0,0.0,0.0,0.0,-0.5193,-0.8569,-0.9731,-0.318,0.0,0.0219,0.5554,0.7987,0.7948,0.8329,0.8584,0.8465,0.5819,0.6057,0.8032,0.8032,0.4754,0.0,0.0,0.0,0.0,0.0,-0.2686,-0.2395,-0.1476,-0.0585,-0.0076,-0.0374,-0.2109,-0.3453,-0.3615,-0.4629,-0.4918,-0.3941,-0.4988,-0.5867,-0.5987,-0.6187,-0.7202,-0.933,-0.8933,-0.8919,-0.9519,-0.9023,-0.9044,-0.9522,-1.0231,-1.141,-1.3175,-1.4292,-1.6333,-1.9115,-2.0,-2.1848,-2.4543,-2.5134,-2.5925,-2.6959,-2.7928,-2.7483,-2.6119,-2.5721,-2.4104,-2.1578,-1.8136,-1.4866,-1.1728,-0.8651,-0.7149,-0.6506,-0.5352,-0.5459,-0.5954,-0.5379,-0.5179,-0.4694,-0.2333,-0.0578,0.1177,0.4094,0.3958,0.2554,0.0735,0.0323,0.0346,0.0,-0.3471,-0.7053,-0.6433,-0.297,0.0,0.0,0.0,0.0,0.0,0.0,0.0,0.0,0.0,-0.2411,-0.8992,-0.9841,-0.9738,-0.9843,-0.453,-0.0756,-0.0,0.0,0.0,0.0,0.0,0.0,0.0,0.0,0.0,0.0,-0.074,-0.4015,-0.9731,-0.318,0.0,0.011,0.3176,0.4557,0.468,0.7217,0.855,0.8791,0.7883,0.7724,0.7951,0.7951,0.4762,0.0,0.0,0.0,0.0,0.0,0.0,-0.2405,-0.1451,-0.057,0.0,0.0,-0.2065,-0.36,-0.3585,-0.341,-0.3158,-0.2908,-0.3962,-0.5014,-0.5926,-0.6228,-0.734,-0.9562,-0.9797,-1.011,-1.067,-1.075,-1.0861,-1.095,-1.1891,-1.3028,-1.4379,-1.6281,-1.8496,-2.1011,-2.2179,-2.4026,-2.6353,-2.6574,-2.7259,-2.8273,-2.8625,-2.8261,-2.7312,-2.6035,-2.439,-2.2229,-1.8392,-1.5577,-1.3172,-0.9976,-0.8048,0.0,-0.6409,-0.6316,-0.6262,-0.5975,-0.5698,-0.538,-0.4246,-0.2025,0.0674,0.3793,0.4436,0.3561,0.0708,0.0,-0.0808,-0.3951,-0.5173,-0.6016,-0.7327,-0.4631,-0.1622,-0.0299,0.0,0.0,0.0,0.0,0.0,0.0,0.0,-0.1054,-0.3749,-0.745,-0.8277,-0.4523,-0.1594,0.0,0.0,0.0,0.0,0.0,0.0,0.0,0.0,0.0,0.0,0.0,0.0,-0.1324,-0.4006,-0.1283,0.0,0.0108,0.2726,0.4851,0.6282,0.6122,0.6067,0.5916,0.4051,0.3335,0.3338,0.3338,0.2021,0.0,0.0,0.0,0.0,0.0,0.0,0.0,-0.1474,-0.0995,-0.0573,-0.0072,-0.1501,-0.2831,-0.3505,-0.2829,-0.2425,-0.2708,-0.3382,-0.4321,-0.5689,-0.6044,-0.7229,-0.959,-1.0338,-1.0925,-1.1532,-1.2417,-1.267,-1.2165,-1.3457,-1.4554,-1.5426,-1.7877,-2.0128,-2.2207,-2.3878,-2.5615,-2.7293,-2.7322,-2.7923,-2.8925,-2.8975,-2.8864,-2.8363,-2.6197,-2.4227,-2.2199,-1.8061,-1.5687,-1.4039,-1.0843,-0.8714,-0.7429,-0.74,-0.722,-0.6959,-0.65,-0.6077,-0.566,-0.5479,-0.2853,0.0483,0.2684,0.4215,0.4499,0.1903,0.0586,-0.1025,-0.4899,-0.5457,-0.5644,-0.7617,-0.6321,-0.3785,-0.0619,0.0,0.0,0.0,0.0,0.0,0.0,0.0,0.0,0.0,-0.4254,-0.598,-0.3041,-0.1064,0.0,0.0,0.0,0.0,0.0,0.0,0.0,0.0,0.0,0.0,0.0,0.0,0.0,0.0,0.0,0.0,0.0107,0.2033,0.4755,0.7955,0.6174,0.4482,0.2711,0.0806,0.0,0.0,0.0,0.0,0.0,0.0,0.0,0.0,0.0,0.0,0.0,0.0,-0.2017,-0.2036,-0.0253,-0.0073,-0.0963,-0.331,-0.3574,-0.3548,-0.3572,-0.3427,-0.3856,-0.5221,-0.5575,-0.6883,-0.9622,-1.0449,-1.1197,-1.197,-1.3577,-1.3934,-1.2863,-1.4391,-1.5479,-1.6048,-1.8677,-2.0722,-2.2275,-2.4511,-2.6189,-2.7293,-2.7478,-2.8051,-2.8976,-2.9528,-2.9745,-2.9469,-2.6456,-2.3864,-2.1487,-1.7225,-1.5094,-1.3945,-1.0785,-0.9674,-0.9472,-0.8066,-0.796,-0.8168,-0.6653,-0.6348,-0.6328,-0.5624,-0.2827,0.0,0.0122,0.2256,0.4475,0.442,0.2184,-0.0085,-0.0177,-0.4223,-0.7916,-0.7999,-0.7905,-0.629,-0.093,0.0,0.0,0.0,0.0,0.0,0.0,0.0,0.0,0.0,-0.0216,-0.2694,0.0,-0.3737,0.0,0.0,0.0,0.0,0.0,0.0,0.0,0.0,0.0,0.0,0.0,0.0,0.0,0.0,0.0,0.0,0.0,0.0103,0.3027,0.8032,0.7925,0.4947,0.0101,0.0,0.0,0.0,0.0,0.0,0.0,0.0,0.0,0.0,0.0,0.0,0.0,0.0,0.0,-0.249,-0.1869,-0.0759,-0.0278,-0.1098,-0.1205,0.0,0.0,0.0,0.0,0.0,-0.5507,-0.6672,-0.8941,-0.9986,-1.0831,-1.1596,-1.2948,-1.3461,-1.3089,-1.4765,-1.5769,-1.5963,-1.9323,-2.1039,-2.1369,-2.4256,-2.5977,-2.681,-2.7356,-2.8321,-2.9446,-2.8875,-2.885,-2.8675,-2.4141,-2.2133,-2.1279,-1.6586,-1.4279,-1.3311,0.0,-1.0805,-1.0407,-0.9864,-0.9245,-0.8528,-0.8003,-0.707,-0.5954,-0.5056,-0.3914,-0.257,-0.0513,0.2799,0.5795,0.6172,0.3049,0.0,0.0,-0.1365,-0.3676,-0.7271,-0.7952,-0.6401,-0.0947,0.0,0.0,0.0,0.0,0.0,0.0,0.0,0.0,0.0,0.0,0.0,0.0,0.0,0.0,0.0,0.0,0.0,0.0,0.0,0.0,0.0,-0.42,-0.4426,-0.0,0.0,0.0,0.0,0.0,0.0,0.0,0.0,0.191,0.5441,0.7196,0.5962,0.2511,0.0706,0.0,0.0,0.0,0.0,0.0,0.0,0.0,0.0,0.0,0.0,0.0,0.0,0.0,0.0,0.0,0.0,0.0,0.0,0.0,0.0,0.0,0.0,0.0,0.0,0.0,-0.6507,-0.8761,-0.9702,-1.0441,-1.1166,-1.2545,-1.3126,-1.2761,-1.4718,-1.5756,-1.5699,-1.8738,-2.0358,-2.0805,-2.4279,-2.6142,-2.6493,-2.7025,-2.8158,-2.9618,-2.7326,-2.6621,-2.6746,-2.2321,-2.0576,-2.0132,-1.5645,-1.3663,0.0,-1.2168,-1.1516,-1.1116,-1.0864,-1.0187,-0.9311,-0.8501,-0.6956,-0.5282,-0.4669,-0.3727,-0.248,-0.0554,0.3202,0.6741,0.7318,0.3709,0.0,0.0,0.0,-0.0977,-0.4434,-0.6179,-0.6054,-0.2559,-0.0881,0.0,0.0,0.0,0.0,0.0,0.0,0.0,0.0,0.0,0.0,0.0,0.0,0.0,0.0,0.0,0.0,0.0,0.0,0.0,0.0,-0.6363,-0.7812,-0.3595,-0.1175,0.0,0.0,0.0,0.0,0.0,0.0,0.0905,0.2812,0.638,0.6995,0.514,0.1513,0.0,0.0,0.0,0.0,0.0,0.0,0.0,0.0,0.0,0.0,0.0,0.0,0.0,0.0,0.0,0.0,0.0,0.0,0.0,0.0,0.0,0.0,0.0,0.0,0.0,0.0,-0.906,-0.9642,-1.0068,-1.0497,-1.2291,-1.285,-1.1914,-1.4077,-1.5268,-1.5353,-1.71,-1.8814,-2.0569,-2.4403,-2.6212,-2.6188,-2.6385,-2.7615,-2.9197,-2.4764,-2.3311,-2.3658,-2.102,-1.9349,-1.8103,-1.4437,-1.3231,-1.3316,-1.2208,-1.1864,-1.1765,-1.1065,-1.083,-1.0387,-0.8086,-0.6037,-0.4551,-0.4508,-0.2331,0.0066,0.0303,0.3649,0.7303,0.7891,0.3996,0.0,0.0,-0.0095,-0.0187,-0.027,-0.2889,-0.531,-0.5366,-0.2624,-0.025,-0.0,0.0,0.0,0.0,0.0,0.0,0.0,0.0,0.0,0.0,0.0,0.0,0.0,0.0,0.0,0.0,0.0,0.0,0.0,-0.635,-0.9765,-0.9752,-0.3238,0.0,0.0,0.0,0.0,0.0,0.0,0.0,0.0302,0.5372,0.7737,0.761,0.2221,0.0,0.0,0.0,0.0,0.0,0.0,0.0,0.0,0.0,0.0,0.0,0.0,0.0,0.0,0.0,0.0,0.0,0.0,0.0,0.0,0.0,0.0,0.0,0.0,0.0,0.0,-0.8281,-0.8926,-0.9316,-0.9537,-0.9924,-1.0561,-1.1523,-1.2749,-1.3828,-1.48,-1.6506,-1.7785,-1.8686,-2.1476,-2.2289,-2.1659,-2.5004,-2.5873,-2.4622,-2.1848,-1.9764,-1.8401,-1.8058,-1.7499,-1.658,-1.3981,-1.2976,-1.3027,-1.2695,-1.2608,-1.251,-1.1783,-1.1182,-1.0249,-0.7411,-0.5901,-0.506,-0.4616,-0.2336,0.0808,0.4353,0.6484,0.7771,0.797,0.3978,0.0,0.0,-0.175,-0.3332,-0.3385,-0.3385,-0.3742,-0.4798,-0.4869,-0.3687,-0.0501,0.0,0.0,0.0,0.0,0.0,0.0,0.0,0.0,0.0,0.0,0.0,0.0,0.0,0.0,0.0,0.0,0.0,0.0,-0.5924,-0.9118,-0.9116,-0.3075,0.0,0.0,0.0,0.0,0.0,0.0,0.0,0.0101,0.1412,0.4347,0.761,0.2221,0.0,0.0,0.0,0.0,0.0,0.0,0.0,0.0,0.0,0.0,0.0,0.0,0.0,0.0,0.0,0.0,0.0,0.0,0.0,0.0,0.0,0.0,0.0,0.0,0.0,0.0,0.0,-0.8411,-0.9115,-0.9653,-0.9155,-0.9398,-1.0549,-1.1639,-1.2394,-1.2715,-1.5495,-1.6522,-1.5952,-1.824,-1.8958,-1.8472,-2.0977,-2.1419,-2.0054,-1.8308,-1.6809,0.0,0.0,-1.5727,-1.5012,-1.3491,-1.2891,-1.2891,-1.2891,-1.251,-1.1904,-1.1437,-1.0848,-0.9841,-0.7547,-0.6091,-0.512,-0.4974,-0.2556,0.1038,0.5781,0.75,0.8044,0.8014,0.3936,0.0,0.0,-0.2376,-0.4463,-0.4523,-0.4099,-0.4003,-0.4829,-0.5493,-0.5247,-0.3091,-0.1202,0.0,0.0,0.0,0.0,0.0,0.0,0.0,0.0,0.0,0.0,0.0,-0.2442,-0.3936,-0.3865,-0.1394,0.0,0.0,-0.3246,-0.4973,-0.5013,-0.1678,0.0,0.0,0.0,0.0,0.0,0.0,0.0,0.0,0.0,0.1716,0.4243,0.1212,0.0,0.0,0.0,0.0,0.0,0.0,0.0,0.0,0.0,0.0,0.0,0.0,0.0,0.0,0.0,0.0,0.0,0.0,0.0,0.0,0.0,0.0,0.0,0.0,0.0,0.0,0.0,0.0,-0.9007,-1.0251,-0.9419,-0.9094,-0.9469,-1.074,-1.1083,-1.0483,-1.4247,-1.5247,-1.3696,-1.5579,-1.6471,-1.6478,-1.6164,-1.6025,-1.5939,-1.4927,-1.4466,-1.4453,-1.4496,-1.4173,-1.3647,0.0,-1.2891,-1.2891,-1.2891,-1.2116,-1.1047,-1.0902,-1.0322,-0.9479,-0.8227,-0.6798,-0.5525,-0.5123,-0.3017,0.0341,0.5759,0.7557,0.7784,0.7111,0.3946,0.0761,-0.0351,-0.2488,-0.426,-0.4466,-0.4797,-0.5068,-0.5051,-0.5277,-0.5623,-0.6136,-0.2973,-0.0341,-0.0,0.0,0.0,0.0,0.0,0.0,0.0,0.0,-0.0328,-0.0982,-0.5622,-0.8452,-0.8917,-0.4026,-0.0805,-0.0,0.0,0.0,0.0,0.0,0.0,-0.0,-0.0731,-0.1026,-0.101,-0.0301,0.0,0.0,0.0,0.0,0.0,0.0,0.0,0.0,0.0,0.0,0.0,0.0,0.0,0.0,0.0,0.0,0.0,0.0,0.0,0.0,0.0,0.0,0.0,0.0,0.0,-0.0574,0.0,0.0,0.0,0.0,0.0,0.0,0.0,0.0,0.0,-1.0192,-1.0115,-0.9802,-0.9275,-0.999,-1.0704,-1.1382,-1.2973,-1.4495,-1.5917,-1.6321,-1.6524,-1.6416,-1.4407,-1.351,-1.3528,-1.3289,-1.3226,-1.3253,-1.3736,-1.3587,-1.3065,-1.292,0.0,0.0,-1.2891,-1.2734,-1.2406,-1.1743,-1.1034,-1.0173,-0.8701,-0.8792,-0.8554,-0.4421,-0.4108,-0.3304,0.5447,0.7952,0.6985,0.2453,0.4028,0.4767,-0.21,-0.3158,-0.2945,-0.4221,-0.4752,-0.489,-0.4796,-0.5298,-0.5709,-0.561,-0.4129,-0.2299,-0.029,0.0,0.0,0.0,0.0,0.0,0.0,0.0,0.0,0.0,0.0,-0.6318,-0.8792,-0.7915,-0.515,-0.011,0.0,0.0,0.0,0.0,0.0,-0.0106,-0.4501,-0.66,-0.648,-0.198,0.0,0.0,0.0,0.0,0.0,0.0,0.0,0.0,0.0,0.0,0.0,0.0,0.0,0.0,0.0,0.0,0.0,0.0,0.0,0.0,0.0,0.0,0.0,0.0,0.1371,0.0954,-0.2781,-0.3161,-0.3468,0.0,0.0,0.0,0.0,0.0,0.0,0.0,-1.0018,-1.0134,-0.9767,-1.004,-1.0459,-1.091,0.0,-1.4221,-1.649,-1.6489,-1.6471,-1.6402,-1.3961,-1.2917,-1.2882,-1.2882,-1.2889,-1.2946,-1.323,-1.3153,-1.2891,0.0,0.0,0.0,-1.2918,-1.2915,-1.2749,-1.1589,-1.0755,-0.9945,-0.8852,-0.921,-0.91,-0.4545,-0.3078,-0.2013,0.255,0.3794,0.3169,0.0686,0.0471,-0.0354,-0.5553,-0.5498,-0.4455,-0.5092,-0.5327,-0.527,-0.4869,-0.5162,-0.5444,-0.539,-0.4274,-0.2563,-0.0277,0.0,0.0,0.0,0.0,0.0,0.0,-0.2549,-0.5222,0.0,0.0,-0.7034,-0.8534,-0.8649,-0.6084,-0.0215,0.0,0.0,0.0,0.0,-0.1366,-0.4201,-0.6719,-0.7932,-0.7595,-0.2378,0.0,0.0,0.0,0.0,0.0,0.0,0.0,0.0,0.0,0.0,0.0,0.0,0.0,0.0,0.0,0.0,0.0,0.0,0.0,0.0,-0.0619,-0.0237,0.0,0.0,0.2614,0.2887,-0.1411,-0.2913,-0.4168,0.0,0.0,0.0,0.0,0.0,0.0,0.0,0.0,-1.0273,-1.028,0.0,0.0,-1.0321,-1.2317,0.0,0.0,0.0,0.0,0.0,-1.3737,-1.292,-1.2909,-1.2887,-1.2878,0.0,0.0,-1.2909,0.0,0.0,0.0,0.0,0.0,-1.2642,-1.2657,-1.1281,-1.0205,-0.9408,-0.8706,-0.9045,-0.8965,-0.4861,-0.1855,0.0,0.0,0.0,0.0,0.0,-0.2702,-0.5912,-0.8008,-0.7303,-0.618,-0.6061,-0.594,-0.5769,-0.5262,-0.5199,-0.5212,-0.5351,-0.4349,-0.2752,-0.0349,0.0,0.0,0.0,0.0,0.0,0.0,-0.4299,0.0,0.0,0.0,0.0,-0.8289,-0.8513,-0.6469,-0.2007,-0.0634,0.0,0.0,-0.1145,-0.3827,-0.8027,-0.7965,-0.7925,-0.7524,-0.3474,-0.0992,0.0,0.0,0.0,0.0,0.0,0.0,0.0,0.0,0.0,0.0,0.0,0.0,0.0,0.0,0.0,0.0,0.0,0.0,0.0,-0.2214,-0.1061,0.0,0.0,0.2613,0.43,0.381,-0.0669,-0.4496,0.0,0.0,0.0,0.0,0.0,0.0,0.0,0.0,0.0,0.0,0.0,0.0,-1.0319,-1.3144,0.0,0.0,0.0,0.0,0.0,0.0,-1.2888,-1.2902,-1.287,0.0,0.0,0.0,0.0,0.0,0.0,0.0,0.0,0.0,-1.1797,-1.2672,-1.1258,-0.9953,-0.8764,-0.8161,-0.896,-0.9259,-0.4888,-0.1876,0.0,0.0,0.0,0.0,0.0,-0.2741,-0.5701,-0.6954,-0.6738,-0.6273,-0.6517,-0.6323,-0.6138,-0.6098,-0.5677,-0.5373,-0.5431,-0.5312,-0.3962,-0.0514,0.0,0.0,0.0,0.0,0.0,0.0,-0.264,0.0,0.0,0.0,0.0,-0.8472,-0.8394,-0.8138,-0.7711,-0.2695,0.0,0.0,-0.481,-0.7483,-0.8007,-0.7951,-0.7965,-0.7952,-0.7242,-0.4358,0.0,0.0,0.0,0.0,0.0,0.0,0.0,0.0,0.0,0.0,0.0,0.0,0.0,0.0,0.0,0.0,0.0,0.0,0.0,-0.0925,-0.1374,-0.1245,-0.0154,0.1041,0.2503,0.431,0.1758,-0.1428,-0.4657,0.0,0.0,0.0,0.0,0.0,0.0,0.0,0.0,0.0,0.0,-1.1133,-1.188,-1.4496,0.0,0.0,0.0,0.0,0.0,0.0,0.0,-1.2918,-1.29,0.0,0.0,0.0,0.0,0.0,0.0,0.0,0.0,0.0,0.0,-1.0331,-0.978,-0.9234,-0.8583,-0.7472,-0.6979,-0.6551,-0.5557,-0.2782,0.0,0.0,0.0,-0.07,-0.3566,-0.3218,-0.3092,-0.6822,-0.7372,-0.7274,-0.7816,-0.7509,-0.688,-0.6103,-0.5686,-0.5389,-0.525,-0.5172,-0.4292,-0.1961,-0.0718,0.0,0.0,0.0,0.0,0.0,0.0,0.0,0.0,0.0,0.0,-0.8208,-0.8119,-0.8113,-0.8174,-0.6012,-0.4786,-0.4794,-0.6911,-0.8039,-0.7965,-0.8006,-0.7925,-0.7838,-0.7786,-0.658,-0.4072,-0.1195,0.0,0.0,0.0,0.0,0.0,0.0,0.0,0.0,0.0,0.0,0.0,0.0,0.0,0.0,0.0,0.0,0.0387,-0.0404,-0.1294,-0.1464,-0.0152,0.0624,0.1937,0.4226,0.2943,0.0577,-0.2768,-0.4324,0.0,0.0,0.0,0.0,0.0,0.0,0.0,0.0,0.0,-1.1171,-1.291,-1.4586,-1.5447,0.0,0.0,0.0,0.0,0.0,0.0,0.0,0.0,0.0,0.0,0.0,0.0,0.0,0.0,0.0,0.0,0.0,0.0,0.0,0.0,0.0,-0.8483,-0.6588,-0.5313,-0.4569,-0.4986,-0.353,-0.192,-0.2024,-0.2062,-0.2735,-0.5303,-0.3992,-0.3132,-0.7048,-0.7881,-0.7958,-0.8657,-0.8366,-0.7746,-0.6865,-0.6192,-0.5793,-0.5709,-0.5301,-0.4656,-0.3674,-0.1482,0.0,0.0,0.0,0.0,0.0,-0.0702,0.0,0.0,0.0,0.0,0.0,-0.8038,-0.8052,-0.7972,-0.7979,-0.7985,-0.7992,-0.8006,-0.7999,-0.7972,-0.7965,-0.7912,-0.772,-0.7117,-0.703,-0.7075,0.0,0.0,0.0,0.0,0.0,0.0,0.0,0.0,0.0,0.0,0.0,0.0,0.0,0.0,0.0,0.0,0.0,0.0,-0.1584,-0.0775,-0.0,-0.0,0.2073,0.3818,0.4437,0.2534,0.0378,-0.166,-0.3584,0.0,0.0,0.0,0.0,0.0,0.0,0.0,0.0,0.0,-1.1135,-1.2914,-1.2929,-1.2923,-1.2991,-1.4155,-1.4082,-1.2909,0.0,0.0,0.0,0.0,0.0,0.0,0.0,0.0,-0.8804,0.0,0.0,0.0,0.0,0.0,0.0,0.0,0.0,0.0,0.0,-0.4532,-0.4212,-0.2715,-0.4122,-0.6369,-0.6848,-0.7,-0.6385,-0.3782,-0.51,-0.7199,-0.779,-0.7933,-0.8078,-0.8698,-0.8805,-0.8791,-0.8751,-0.7515,-0.6629,-0.7038,-0.6165,-0.5365,-0.5381,-0.2235,0.0,0.0,0.0,0.0,0.0,-0.2361,0.0,0.0,0.0,0.0,0.0,-0.8038,-0.8052,-0.7972,-0.7972,-0.7979,-0.7992,-0.7979,-0.7972,-0.7972,-0.7952,-0.7952,-0.7872,-0.5227,-0.5441,0.0,0.0,0.0,0.0,0.0,0.0,0.0,0.0,0.0,0.0,0.0,0.0,0.0,0.0,0.0,0.0,0.0,0.0,0.0,-0.0332,-0.1641,-0.1876,-0.0226,0.2089,0.3654,0.3843,0.2529,0.1276,0.0519,-0.1849,0.0,0.0,0.0,0.0,0.0,0.0,0.0,0.0,-1.0159,-1.1508,-1.2915,-1.2879,-1.3185,-1.371,-1.4106,-1.4036,-1.3496,-1.3496,0.0,0.0,0.0,0.0,0.0,0.0,-0.9068,-0.8804,0.0,0.0,0.0,0.0,0.0,0.0,0.0,0.0,0.0,0.0,0.0,0.0,-0.3897,-0.4359,-0.5098,-0.5253,-0.5726,-0.5958,-0.4914,-0.6023,-0.7482,-0.7987,-0.8339,-0.8587,-0.8778,-0.8818,-0.8513,-0.7473,-0.6884,-0.634,-0.5675,-0.425,-0.3296,-0.3555,-0.1505,0.0,0.0,0.0,0.0,0.0,0.0,0.0,0.0,0.0,0.0,0.0,-0.8038,-0.8045,-0.8052,-0.7965,-0.7965,-0.7959,-0.7965,-0.7965,-0.8052,-0.7959,-0.7972,-0.7985,-0.7077,0.0,0.0,0.0,0.0,0.0,0.0,0.0,0.0,0.0,0.0,0.0,0.0,0.0,0.0,0.0,0.0,0.0,0.0,0.0,0.0,0.0216,-0.1875,-0.2651,-0.0889,0.1107,0.2692,0.3531,0.2934,0.2055,0.1038,-0.0272,0.0,0.0,0.0,0.0,0.0,0.0,0.0,-0.8334,-0.9917,-1.135,-1.2567,-1.2775,-1.3137,-1.3662,-1.3632,-1.3585,-1.3457,-1.3457,-1.3238,0.0,0.0,0.0,0.0,-0.9263,-0.8804,-0.8804,0.0,0.0,0.0,0.0,0.0,0.0,0.0,0.0,0.0,0.0,0.0,0.0,0.0,-0.4507,-0.4544,-0.4801,-0.5081,-0.5327,-0.5596,-0.647,-0.7388,-0.7829,-0.836,-0.8805,-0.8818,-0.8804,-0.854,-0.761,-0.6975,-0.6519,-0.6425,-0.4681,-0.2975,-0.1836,-0.0693,0.0,0.0,0.0,0.0,0.0,0.0,0.0,0.0,0.0,0.0,0.0,-0.8038,-0.8038,-0.8038,-0.7952,-0.7952,-0.8038,-0.7952,-0.7952,-0.8038,-0.7965,-0.7666,-0.7059,-0.7691,0.0,0.0,0.0,0.0,0.0,0.0,0.0,0.0,0.0,0.0,0.0,0.0,0.0,0.0,0.0,0.0,0.0,0.0,0.0,0.0,0.0,-0.1631,-0.2503,-0.1948,-0.057,0.1152,0.3138,0.3475,0.2693,0.0472,0.1285,0.0,0.0,0.0,0.0,0.0,0.0,0.0,-0.8716,-0.9629,-1.0714,-1.2007,-1.2614,-1.293,-1.293,-1.2949,-1.2949,-1.2978,-1.2978,-1.291,0.0,0.0,0.0,0.0,-0.9187,-0.8804,0.0,0.0,0.0,0.0,0.0,0.0,0.0,0.0,0.0,0.0,0.0,0.0,0.0,0.0,0.0,0.0,0.0,-0.497,-0.4813,-0.5745,-0.6432,-0.6993,-0.7436,-0.8213,0.0,-0.8804,-0.8804,-0.8818,-0.8778,-0.7576,-0.7033,-0.8408,-0.6763,-0.4174,-0.0839,-0.0136,0.0,0.0,0.0,0.0,0.0,0.0,0.0,0.0,0.0,0.0,0.0,-0.8038,-0.8038,-0.8038,-0.8038,-0.8038,-0.8038,-0.8038,-0.8038,-0.8045,-0.7965,-0.7147,-0.5613,-0.7266,0.0,0.0,0.0,0.0,0.0,0.0,0.0,0.0,0.0,0.0,0.0,0.0,0.0,0.0,0.0,0.0,0.0,0.0,0.0,0.0,0.0,0.0,0.0,0.0,-0.0937,0.0511,0.0799,0.2484,0.3357,0.0,0.0,0.0,0.0,0.0,0.0,0.0,0.0,0.0,-0.9122,-0.9686,-1.0668,-1.2135,-1.2949,-1.3359,-1.3359,-1.3691,-1.3723,-1.35,-1.35,-1.3312,0.0,0.0,0.0,0.0,-0.9306,-0.8804,0.0,0.0,0.0,0.0,-0.4504,-0.4477,0.0,0.0,0.0,0.0,0.0,0.0,0.0,0.0,-0.4519,-0.465,-0.5321,0.0,-0.5347,-0.5578,-0.6539,-0.7522,0.0,-0.8242,-0.8804,-0.8804,-0.8804,-0.8711,-0.8373,-0.74,-0.666,-0.6936,-0.5686,-0.4565,-0.4169,-0.1762,0.0,0.0,0.0,0.0,0.0,0.0,0.0,0.0,0.0,0.0,0.0,-0.8038,-0.8045,-0.7965,-0.8045,-0.8038,-0.8038,-0.8038,-0.8045,-0.7965,-0.7979,-0.7726,-0.7125,-0.7753,0.0,0.0,0.0,0.0,0.0,0.0,0.0,0.0,0.0,0.0,0.0,0.0,0.0,0.0,0.0,0.0,0.0,0.0,0.0,0.0,0.0,0.0,0.0,0.0,-0.2011,-0.0978,-0.0089,0.1158,0.2398,0.0,0.0,0.0,0.0,0.0,0.0,0.0,0.0,-0.6761,-0.8822,-0.9558,-1.0521,-1.1724,-1.2744,-1.325,-1.3253,-1.3821,-1.4017,-1.385,-1.35,-1.2695,0.0,0.0,0.0,-0.9806,-0.9081,0.0,0.0,0.0,0.0,0.0,-0.4477,-0.4505,0.0,-0.4519,-0.4519,-0.4519,0.0,0.0,0.0,0.0,-0.4519,-0.4629,-0.5328,-0.5716,-0.6063,-0.6498,-0.7104,-0.7652,-0.81,-0.8511,-0.8804,-0.8804,-0.8804,-0.8513,-0.7652,-0.7215,-0.6693,-0.5696,-0.5168,-0.4433,-0.3115,0.0,0.0,0.0,0.0,0.0,0.0,0.0,0.0,0.0,0.0,0.0,0.0,-0.8052,-0.7959,-0.7959,-0.683,-0.6725,-0.7952,-0.7977,-0.7943,-0.7851,-0.7095,-0.7064,-0.7654,-0.7851,-0.7885,0.0,0.0,0.0,0.0,0.0,0.0,0.0,0.0,0.0,0.0,0.0,0.0,0.0,0.0,0.0,0.0,0.0,0.0,0.0,0.0,0.0,0.0,0.0,0.0,0.0,0.0,0.0,0.0,0.0,0.0,0.0,0.0,0.0,0.0,0.0,-0.5033,-0.6252,-0.8238,-0.935,-1.0355,-1.125,-1.2453,-1.3003,-1.2913,-1.3893,-1.4304,-1.4255,-1.289,-1.1436,-1.0007,0.0,0.0,-0.8804,-0.8646,0.0,0.0,0.0,0.0,0.0,0.0,0.0,0.0,-0.4622,-0.4567,-0.4519,-0.4622,0.0,0.0,0.0,0.0,0.0,-0.5437,-0.6155,-0.6845,-0.7667,-0.7733,-0.7833,-0.8631,-0.8803,-0.8804,-0.8804,-0.8699,-0.8262,-0.7063,-0.7074,-0.6693,-0.5107,-0.5154,-0.4148,-0.049,0.0,0.0,0.0,0.0,0.0,0.0,0.0,0.0,0.0,0.0,0.0,0.0,-0.7925,-0.7925,-0.7912,-0.5678,-0.5674,-0.7905,-0.7875,-0.7814,-0.7814,-0.6239,-0.6339,-0.7814,-0.7738,-0.7811,0.0,0.0,0.0,-0.0804,-0.0202,0.0,0.0,0.0,0.0,0.0,0.0,0.0,0.0,0.0,0.0,0.0,0.0,0.0,0.0,0.0,0.0,0.0,0.0,0.0,0.0,0.0,0.0,0.0,0.0,0.0,0.0,0.0,0.0,0.0,-0.3733,-0.4771,-0.6201,-0.8115,-0.9281,-1.0433,-1.1451,-1.2898,-1.3359,-1.2915,-1.4486,-1.5203,-1.5016,-1.1186,-0.9287,-0.902,-0.9079,0.0,-0.8752,-0.7931,0.0,0.0,0.0,0.0,0.0,0.0,0.0,0.0,-0.5164,-0.4952,-0.4629,-0.5164,0.0,0.0,0.0,0.0,0.0,-0.61,-0.6889,-0.7401,-0.7663,-0.8164,-0.8645,-0.8751,-0.8778,-0.8804,-0.8804,-0.8315,-0.7895,-0.7944,-0.6915,-0.6142,0.0,0.0,-0.4152,0.0,0.0,0.0,0.0,0.0,0.0,0.0,0.0,0.0,0.0,0.0,0.0,0.0,-0.7862,-0.757,-0.7205,-0.7164,-0.719,-0.7495,-0.7671,-0.7821,-0.7738,-0.7421,-0.7427,-0.7738,-0.7744,-0.7751,0.0,0.0,-0.6645,-0.4314,-0.1306,0.0,0.0,0.0,0.0,0.0,0.0,0.0,0.0,0.0,0.0,0.0,0.0,0.0,0.0,0.0,0.0,0.0,0.0,0.0,0.0,0.0,0.0,0.0,0.0,0.0,0.0,0.0,0.0,-0.1827,-0.3986,-0.4423,-0.5528,-0.7462,-0.8372,-0.9557,-1.1121,-1.2555,-1.3149,-1.2923,-1.3663,-1.3239,-1.1754,-0.9708,-0.8799,-0.8813,-0.8817,-0.8804,-0.8752,0.0,0.0,0.0,0.0,0.0,0.0,0.0,0.0,0.0,0.0,-0.4732,-0.4574,-0.4842,0.0,0.0,0.0,0.0,0.0,-0.6209,-0.6794,-0.7231,-0.8057,-0.8773,-0.9232,-0.9085,-0.859,-0.8209,-0.8209,-0.761,-0.7052,-0.6764,0.0,-0.5799,-0.5588,0.0,-0.1887,-0.0226,0.0,0.0,0.0,0.0,0.0,0.0,0.0,0.0,0.0,0.0,0.0,0.0,0.0,-0.7337,-0.7248,-0.7455,-0.747,-0.7389,-0.7543,-0.7617,-0.7617,-0.7537,-0.7537,-0.7617,-0.7691,-0.7724,-0.7814,0.0,-0.7502,-0.6642,-0.5031,-0.3519,-0.2009,-0.0604,0.0,0.0,0.0,0.0,0.0,0.0,0.0,0.0,0.0,0.0,0.0,0.0,0.0,0.0,0.0,0.0,0.0,0.0,0.0,0.0,0.0,0.0,0.0,0.0,0.0214,-0.1327,-0.4378,-0.4242,-0.498,-0.6772,-0.7522,-0.8699,-1.0354,-1.2058,-1.274,-1.2381,-1.2086,-1.0966,-0.9243,-0.8923,-0.8786,-0.8788,-0.883,-0.8699,-0.8487,0.0,0.0,0.0,0.0,0.0,0.0,0.0,0.0,0.0,0.0,0.0,0.0,0.0,0.0,0.0,-0.4519,-0.4519,-0.4794,-0.6209,-0.6683,-0.703,-0.8447,-0.9152,-0.9459,-0.9365,-0.8546,-0.7862,-0.7921,-0.72,-0.6332,-0.5742,-0.5596,0.0,-0.4786,-0.2089,0.0,0.0,0.0,0.0,0.0,0.0,0.0,0.0,0.0,0.0,0.0,0.0,0.0,0.0,0.0,-0.6813,-0.7282,-0.7336,-0.7349,-0.7319,-0.7319,-0.7394,-0.7543,-0.7461,-0.7502,-0.7651,-0.776,-0.7828,-0.7868,-0.797,-0.7932,-0.7965,-0.7979,-0.6753,-0.4722,-0.2714,-0.1507,-0.0907,-0.1029,-0.0635,0.0,0.0,0.0,0.0,0.0,0.0,0.0,0.0,0.0,0.0,0.0,0.0,0.0,0.0,0.0,0.0,0.0,0.0,0.0,0.0,0.0763,-0.1331,-0.4353,-0.447,-0.5046,-0.625,-0.7344,-0.823,-0.8932,-1.1589,-1.2193,-1.0728,-0.9604,-0.965,-1.0605,-0.9371,-0.8791,-0.8791,-0.8804,-0.8421,-0.7729,-0.6966,0.0,0.0,0.0,0.0,0.0,0.0,0.0,0.0,0.0,0.0,0.0,0.0,0.0,-0.4519,-0.4519,-0.4519,-0.4794,-0.6209,-0.6849,-0.7354,-0.8498,-0.8844,-0.9005,-0.9539,-0.8866,-0.8257,-0.8667,0.0,0.0,0.0,-0.5304,-0.4736,-0.5237,-0.2341,0.0,0.0,0.0,0.0,0.0,0.0,0.0,0.0,0.0,0.0,0.0,0.0,0.0,0.0,0.0,0.0,-0.7047,-0.7078,-0.7081,-0.7156,-0.7156,-0.7238,-0.7387,-0.7522,-0.7658,-0.7794,-0.7807,-0.7889,-0.8018,-0.7889,-0.7909,-0.8045,-0.7965,-0.7872,-0.7666,-0.7472,-0.5942,-0.3723,-0.4102,-0.2406,0.0,0.0,0.0,0.0,0.0,0.0,0.0,0.0,0.0,0.0,0.0,0.0,-0.1343,-0.1361,0.0,0.0,0.0,0.0,0.0,0.0,0.1367,-0.1337,-0.4379,-0.4505,-0.5534,-0.7789,-0.8951,-0.9713,-0.9945,-1.0594,-1.0792,-1.0594,-0.9951,-0.9771,-0.9907,-0.9573,-0.9201,-0.8804,-0.8804,-0.8368,-0.761,-0.6912,-0.6308,0.0,0.0,0.0,0.0,0.0,0.0,0.0,0.0,-0.4519,-0.4519,-0.4787,-0.4677,-0.4519,-0.4519,-0.4519,-0.4684,-0.5655,-0.5982,-0.6404,-0.7794,-0.7783,-0.7804,0.0,-0.8551,-0.76,-0.8065,-0.6849,0.0,0.0,0.0,-0.2849,-0.2182,-0.0897,0.0,0.0,0.0,0.0,0.0,0.0,0.0,0.0,0.0,0.0,0.0,0.0,0.0,0.0,0.0,0.0,-0.6939,-0.7041,-0.7095,-0.7007,-0.7095,-0.7122,-0.7102,-0.7441,-0.7577,-0.755,-0.7828,-0.7882,-0.7773,-0.7896,-0.7984,-0.8038,-0.8045,-0.7952,-0.7952,-0.7972,-0.7477,-0.6791,-0.6945,-0.6333,-0.5052,0.0,0.0,0.0,0.0,0.0,0.0,0.0,0.0,0.0,0.0,0.0,0.0,0.0,0.0,0.0,0.0,0.0,0.0,0.4167,0.2481,-0.033,-0.4324,-0.4519,-0.5448,-0.7421,-0.8771,-0.9734,-1.0335,-0.991,-0.9847,-1.0199,-1.0052,-0.9757,-0.9517,-0.9575,-0.9351,-0.8938,-0.8844,-0.8262,-0.7289,-0.6804,-0.6046,0.0,0.0,0.0,0.0,0.0,0.0,0.0,0.0,-0.4477,-0.4525,-0.4519,-0.4519,-0.4519,-0.4519,-0.4519,-0.4615,-0.5263,-0.5441,-0.5801,-0.6977,-0.6966,-0.721,-0.9204,-0.8182,-0.7135,-0.7992,-0.6798,-0.5036,-0.3529,0.0,0.0,0.0,0.0,0.0,0.0,0.0,0.0,0.0,0.0,0.0,0.0,0.0,0.0,0.0,0.0,0.0,0.0,0.0,0.0,0.0,-0.6867,-0.6953,-0.6858,-0.6953,-0.6973,-0.6932,-0.7285,-0.7428,-0.7387,-0.7787,-0.7855,-0.7678,-0.7929,-0.8038,-0.8038,-0.8038,-0.8038,-0.8038,-0.7959,-0.8093,-0.8397,-0.8492,-0.8669,-0.8194,0.0,0.0,0.0,0.0,0.0,0.0,0.0,0.0,0.0,0.0,0.0,0.0,0.0,0.0,0.0,0.0,0.0,0.0,0.3592,0.4147,0.1779,-0.4262,-0.4497,-0.4525,-0.4525,-0.6209,-0.7925,-0.9686,-0.9686,-0.9615,-0.9414,-0.9414,-0.9485,-0.9659,-0.9379,-0.919,-0.9163,-0.8925,-0.7943,-0.6588,-0.6588,-0.5727,-0.4477,0.0,0.0,0.0,0.0,0.0,0.0,0.0,-0.449,-0.4477,-0.4519,-0.4519,-0.4519,-0.4519,-0.4519,-0.4594,-0.5177,-0.5411,-0.5658,-0.6256,-0.6642,-0.737,-0.908,-0.7892,-0.6941,-0.8886,-0.7436,-0.57,-0.5484,-0.2467,0.0,0.0,0.0,0.0,0.0,0.0,0.0,0.0,0.0,0.0,0.0,0.0,0.0,0.0,0.0,0.0,0.0,0.0,0.0,0.0,-0.6702,-0.6702,-0.6702,-0.6702,-0.6776,-0.6926,-0.7068,-0.7217,-0.738,-0.7678,-0.7814,-0.7821,-0.797,-0.8038,-0.8038,-0.8038,-0.8038,-0.8038,-0.8038,-0.8038,-0.8079,-0.8377,-0.8499,-0.8673,0.0,0.0,0.0,0.0,0.0,0.0,0.0,0.0,0.0,0.0,0.0,0.0,0.0,0.0,0.0,0.0,0.0,0.0,0.362,0.2167,-0.0431,-0.433,-0.4504,-0.4477,-0.4477,-0.5981,-0.7354,-0.8655,-0.8741,-0.9078,-0.9615,-0.9345,-0.9309,-0.9365,-0.923,-0.907,-0.8871,-0.83,-0.745,-0.6534,-0.6036,-0.5281,-0.4366,0.0,0.0,0.0,0.0,0.0,0.0,0.0,0.0,0.0,-0.4519,-0.4525,-0.447,-0.4519,-0.4525,-0.4519,-0.4682,-0.4751,-0.4967,-0.5759,-0.6244,-0.7079,-0.9156,-0.7946,0.0,0.0,-0.6288,-0.5779,-0.6015,0.0,0.0,0.0,0.0,0.0,0.0,0.0,0.0,0.0,0.0,0.0,0.0,0.0,0.0,0.0,0.0,0.0,0.0,0.0,0.0,0.0,-0.6647,-0.6647,-0.6539,-0.6647,-0.6722,-0.677,-0.6919,-0.7122,-0.738,-0.7678,-0.7814,-0.7821,-0.797,-0.8038,-0.8038,-0.8038,-0.8038,-0.8038,-0.8038,-0.8106,-0.8221,-0.8411,-0.8554,-0.8682,0.0,0.0,0.0,0.0,0.0,0.0,0.0,0.0,0.0,0.0,0.0,0.0,0.0,0.0,0.0,0.1325,0.2962,0.0,0.3752,0.1421,-0.0808,-0.2627,-0.3249,-0.3878,-0.4587,-0.5433,-0.6445,-0.7687,-0.8005,-0.8401,-0.8933,-0.9223,-0.9419,-0.9419,-0.9539,-0.9432,-0.9097,-0.8257,-0.7378,-0.6534,-0.5937,-0.5187,-0.4373,0.0,0.0,0.0,0.0,0.0,0.0,0.0,0.0,0.0,-0.4525,-0.4525,-0.4463,-0.4395,-0.4382,-0.4375,-0.4307,-0.4328,-0.4518,-0.5113,-0.5565,-0.6287,-0.7769,-0.784,0.0,0.0,-0.5494,-0.5259,-0.6432,-0.4798,0.0,0.0,0.0,0.0,0.0,0.0,0.0,0.0,0.0,0.0,0.0,0.0,0.0,0.0,0.0,0.0,0.0,0.0,0.0,0.0,-0.6478,-0.6478,-0.639,-0.6478,-0.6586,-0.6702,-0.6797,-0.7027,-0.7373,-0.7556,-0.7638,-0.7645,-0.7862,-0.7984,-0.8038,-0.8038,-0.8038,-0.8038,-0.8038,-0.8099,-0.8194,-0.8343,-0.8459,-0.856,0.0,0.0,0.3595,0.3619,0.0,0.0,0.0,0.0,0.0,0.0,0.0,0.0,0.0,0.0,0.0,0.3446,0.4179,0.4349,0.407,0.1772,0.0215,-0.0167,-0.1615,-0.3114,-0.4667,-0.4667,-0.535,-0.6766,-0.7356,-0.7687,-0.7836,-0.9123,-0.9673,-0.9659,-0.994,-0.9913,-0.9562,-0.8526,-0.7489,-0.6534,-0.6009,-0.5203,-0.4324,-0.4448,0.0,0.0,0.0,0.0,0.0,0.0,0.0,0.0,-0.4525,-0.4519,-0.4436,-0.4307,-0.4207,-0.4167,-0.4097,-0.4113,-0.4254,-0.4463,-0.491,-0.5394,-0.5679,-0.7655,-0.8862,-0.69,0.0,-0.437,-0.6112,-0.2948,0.0,0.0,0.0,0.0,0.0,0.0,0.0,0.0,0.0,0.0,0.0,0.0,0.0,0.0,0.0,0.0,0.0,0.0,0.0,-0.624,-0.6254,-0.6338,-0.6338,-0.6338,-0.6403,0.0,-0.6695,-0.6919,-0.7333,-0.736,-0.7387,-0.7428,-0.7692,-0.7896,-0.8038,-0.8024,-0.8024,-0.8038,-0.8038,-0.8038,-0.8058,-0.8214,-0.8269,-0.8296,0.0,0.0,0.3591,0.3588,0.0,0.0,0.0,0.0,0.0,0.0,0.0,0.0,0.0,0.0,0.0,0.4038,0.4445,0.4447,0.4415,0.3827,0.1943,-0.1562,-0.3193,-0.4157,-0.4511,-0.4567,-0.4949,-0.5817,-0.6657,-0.7576,-0.8606,-0.9349,-0.9552,-0.9352,-0.9646,-0.9606,-0.92,-0.7631,-0.6792,-0.648,-0.5297,-0.3965,-0.285,-0.4051,-0.2639,0.0,0.0,0.0,0.0,0.0,0.0,0.0,-0.4477,-0.4477,-0.447,-0.4429,-0.4341,-0.422,-0.4348,-0.4389,-0.4484,-0.4755,-0.5819,-0.6843,-0.6925,-0.7779,-0.8096,-0.6295,-0.5835,-0.4844,-0.2032,0.0,0.0,0.0,0.0,0.0,0.0,0.0,0.0,0.0,0.0,0.0,0.0,0.0,0.0,0.0,0.0,0.0,0.0,0.0,0.0,-0.6084,-0.62,-0.6338,-0.6338,-0.6338,-0.6349,0.0,-0.6641,-0.6817,-0.7034,-0.7265,-0.7495,-0.7719,-0.778,-0.7896,-0.8031,-0.7909,-0.7929,-0.8038,-0.8038,-0.8038,-0.8058,-0.8214,-0.8269,-0.8289,0.0,0.0,0.0,0.0,0.0,0.0,0.0,0.0,0.0,0.0,0.0,0.0,0.0,0.0,0.0,0.0,0.4499,0.4429,0.4254,0.4389,0.2802,-0.1004,-0.3304,-0.449,-0.4525,-0.4519,-0.5007,-0.6036,-0.6533,-0.7302,-0.8275,-0.9092,-0.9392,-0.9203,-0.9552,-0.9512,-0.9121,-0.7522,-0.6918,-0.6836,-0.5195,-0.4039,-0.3254,-0.2579,-0.0448,0.1964,0.0505,0.0,0.0,0.0,0.0,0.0,0.0,0.0,-0.4457,-0.4389,-0.4261,-0.422,-0.4234,-0.4308,-0.4463,-0.4911,-0.5756,-0.6464,-0.6542,-0.6841,-0.6817,-0.5797,-0.5994,-0.5041,-0.079,0.0,0.0,0.0,0.0,0.0,0.0,0.0,0.0,0.0,0.0,0.0,0.0,0.0,0.0,0.0,0.0,0.0,0.0,-0.4858,-0.6064,-0.603,-0.6179,-0.6338,-0.6338,-0.6338,-0.6329,-0.6471,-0.6552,-0.6709,-0.6939,-0.7156,-0.7387,-0.7604,-0.7678,-0.7794,-0.7929,-0.7923,-0.797,-0.8038,-0.8038,-0.8038,-0.8052,-0.8133,-0.816,-0.8174,0.0,0.0,0.0,0.0,0.0,0.0,0.0,0.0,0.0,0.0,0.0,0.0,0.0,0.0,0.1016,0.0,0.0,0.0,0.4094,0.432,0.3137,0.0112,-0.2627,-0.4206,-0.4477,-0.4525,-0.5171,-0.6588,-0.6588,-0.7041,-0.7961,-0.8673,-0.9066,-0.919,-0.9258,-0.9175,-0.8955,-0.7442,-0.6935,-0.6965,-0.4927,-0.4274,-0.4169,-0.1177,0.1852,0.4169,0.1681,0.0446,0.0,0.0,0.0,0.0,0.0,0.0,-0.4409,-0.4274,-0.4207,-0.4121,-0.4015,-0.4147,-0.4401,-0.4992,-0.5345,-0.5555,-0.5638,-0.5768,-0.581,-0.544,-0.5269,-0.4128,0.0,0.0,0.0,0.0,0.0,0.0,0.0,0.0,0.0,0.0,0.0,0.0,0.0,0.0,0.0,0.0,0.0,0.0,-0.2577,-0.4646,-0.5761,-0.5956,-0.6098,-0.6179,-0.6179,-0.6207,-0.6281,-0.6396,-0.6471,-0.6661,-0.6932,-0.7075,-0.7224,-0.738,-0.7536,-0.7678,-0.7821,-0.795,-0.8018,-0.8038,-0.8038,-0.8038,-0.8038,-0.8038,-0.8038,-0.8045,0.0,0.0,0.0,0.0,0.0,0.0,0.0,0.0,0.0,0.0,0.0,0.0,0.0,0.0,0.0144,0.0548,0.3012,0.4481,0.4457,0.0,0.0,0.0112,-0.1618,-0.3128,-0.4477,-0.4525,-0.5171,-0.6588,-0.6588,-0.74,-0.9013,-0.854,-0.8621,-0.9134,-0.7971,-0.7802,-0.8205,-0.6478,-0.5854,-0.5909,-0.3456,-0.3304,-0.4169,-0.1177,0.1852,0.4455,0.4058,0.2199,0.0,0.0,-0.0107,0.0,0.0,0.0,-0.4261,-0.4416,-0.4214,-0.4015,-0.4328,-0.4538,-0.4714,-0.5047,-0.527,-0.5406,-0.5406,-0.583,-0.6087,0.0,-0.2995,0.0,0.0,0.0,0.0,0.0,0.0,0.0,0.0,0.0,0.0,0.0,0.0,0.0,0.0,0.0,0.0,0.0,0.0,0.0,-0.2572,-0.4463,-0.553,-0.565,-0.5786,-0.5861,-0.5861,-0.5996,-0.6071,-0.6091,-0.6485,-0.6763,-0.6932,-0.7075,-0.7224,-0.738,-0.7536,-0.7678,-0.7814,-0.7834,-0.7923,-0.8038,-0.8038,-0.8038,-0.8038,-0.8038,-0.8038,-0.8045,0.0,0.0,0.0,0.0,0.0,0.0,0.0,0.0,0.0,0.0,0.0,0.0,0.0,0.0,0.0,0.0,0.1229,0.2702,0.4379,0.2919,0.1401,0.0056,-0.1395,-0.2905,-0.449,-0.4525,-0.5007,-0.5982,-0.6426,-0.7302,-0.8621,-0.8486,-0.8558,-0.8718,-0.8201,-0.7777,-0.7408,-0.6064,-0.5791,-0.6046,-0.3289,-0.2099,-0.1856,-0.0501,0.1327,0.3333,0.4193,0.3671,0.224,0.0546,0.0,-0.0546,-0.3566,0.0,0.0,0.0,-0.3784,-0.3174,-0.4216,-0.4585,-0.4721,-0.4924,-0.5075,-0.5269,-0.5346,-0.561,-0.5704,-0.5438,-0.2513,0.0,0.0,0.0,0.0,0.0,0.0,0.0,0.0,0.0,0.0,0.0,0.0,0.0,0.0,0.0,0.0,0.0,0.0,-0.0336,-0.1137,-0.3861,-0.5401,-0.5458,-0.5661,-0.5806,-0.5885,-0.5956,-0.6071,-0.6166,-0.6525,-0.6736,-0.681,-0.7034,-0.7177,-0.7258,-0.7495,-0.7638,-0.7706,-0.7868,-0.7977,-0.8038,-0.8038,-0.8038,-0.8038,-0.8038,-0.8038,-0.8045,0.0,0.0,0.0,0.0,0.0,0.0,0.0,0.0,0.0,0.0,0.0,0.0,0.0,0.0,0.0,0.0,0.0,0.0954,0.3193,0.1233,0.0,0.0,-0.1397,-0.2905,-0.4442,-0.4477,-0.4842,-0.5483,-0.6253,-0.717,-0.8324,-0.8762,-0.8741,-0.8308,-0.8192,-0.7581,-0.6559,-0.5673,-0.5592,-0.5849,-0.3219,-0.1302,0.0,0.0,0.0701,0.1912,0.379,0.4505,0.0,0.0,0.0331,-0.0387,-0.2654,-0.3886,0.0,0.0,0.0,-0.2063,-0.3971,-0.4558,-0.4653,-0.4701,-0.4862,-0.5026,-0.5341,0.0,-0.4025,0.0,0.0,0.0,0.0,0.0,0.0,0.0,0.0,0.0,0.0,0.0,0.0,0.0,0.0,0.0,0.0,0.0,0.0,0.0,0.0,0.0,0.0,-0.301,-0.4924,-0.5405,-0.5574,-0.5768,-0.5853,-0.5961,-0.6071,-0.6268,-0.6559,-0.6702,-0.6709,-0.7007,-0.7143,-0.7156,-0.7428,-0.7563,-0.7617,-0.7875,-0.8004,-0.8038,-0.8038,-0.8038,-0.8038,-0.8038,-0.8038,-0.8045,0.0,0.0,0.0,0.0,0.0,0.0,0.0,0.0,0.0,0.0,0.0,0.0,0.0,0.0,0.0,0.0,0.0,0.0056,0.0224,0.0112,0.0,0.0,-0.1397,0.0,-0.4442,-0.4477,-0.4842,-0.5483,-0.6253,-0.7255,-0.8598,-0.9594,-0.9296,-0.7981,-0.7138,-0.6466,-0.5825,-0.5078,-0.4687,-0.4449,-0.2839,-0.1329,0.0,0.0,0.0052,0.0477,0.3467,0.0,0.0,0.0,0.0,0.0,0.0,0.0,-0.4502,0.0,0.0,0.0,-0.3699,-0.4504,-0.4482,-0.4507,-0.45,-0.467,0.0,0.0,-0.0306,0.0,0.0,0.0,0.0,0.0,0.0,0.0,0.0,0.0,0.0,0.0,0.0,0.0,0.0,0.0,0.0,0.0,0.0,0.0,0.0,0.0,0.0,-0.181,-0.3627,-0.5319,-0.5399,-0.5399,-0.5399,-0.5832,-0.6124,-0.6268,-0.6559,-0.6702,-0.6709,-0.7007,-0.7143,-0.7149,-0.7312,-0.7468,-0.7611,-0.776,-0.7909,-0.8038,-0.8038,-0.8038,-0.8038,-0.8038,-0.8038,-0.8065,0.0,0.0,0.0,0.0,0.0,0.0,0.0,0.0,0.0,0.0,0.0,0.0,0.0,0.0,0.0,0.0,0.0,0.0,0.0,0.0,0.0,0.0,-0.0503,-0.1955,-0.4442,-0.4484,-0.4636,-0.4842,-0.5546,-0.623,-0.6962,-0.7962,-0.7811,-0.6741,-0.7296,-0.6678,-0.5173,-0.4741,-0.4558,-0.4395,-0.2824,-0.1335,0.0,0.0,0.0459,0.0,0.0,0.0,0.0,0.0,0.0,0.0,0.0,0.0,0.0,0.0,-0.2244,-0.2691,-0.1843,-0.2289,-0.3254,-0.4226,-0.4478,-0.4029,-0.2318,-0.093,0.0,0.0,0.0,0.0,0.0,0.0,0.0,0.0,0.0,0.0,0.0,0.0,0.0,0.0,0.0,0.0,0.0,0.0,0.0,0.0,0.0,0.0,0.0,-0.2824,-0.4718,-0.5399,-0.5393,-0.4857,-0.367,-0.535,-0.6268,-0.6503,-0.6614,-0.6749,-0.6851,-0.7048,-0.7143,-0.7143,-0.7197,-0.7366,-0.7617,-0.7862,-0.7991,-0.8038,-0.8038,-0.8038,-0.8038,-0.8038,-0.8038,-0.8045,0.0,0.0,0.0,0.4199,0.0,0.4292,0.4306,0.3385,0.2043,0.0252,0.0,0.0,0.0,0.0,0.0,0.0,0.0,0.0449,0.1457,0.1513,0.1065,0.0056,0.0,-0.1172,-0.3699,-0.4255,-0.4477,-0.4519,-0.5164,-0.5695,-0.5988,-0.6944,-0.6915,-0.611,-0.6952,-0.6371,0.0,0.0,0.0,-0.4509,-0.2883,-0.1337,0.0,0.0,0.0,0.0,0.0,0.0,0.0,0.0,0.0,0.0,0.0,0.0,0.0,0.0,0.0,-0.1285,-0.0279,-0.0334,-0.1114,-0.2631,-0.2974,-0.2467,-0.0449,0.0785,0.1513,0.1513,0.0,0.0,0.0,0.0,0.0,0.0,0.0,0.0,0.0,0.0,0.0,0.0,0.0,0.0,0.0,0.0,0.0,0.0,0.0,0.0,0.0,-0.2287,-0.4177,-0.5346,-0.5386,-0.4255,-0.1814,-0.404,-0.5632,-0.651,-0.6559,-0.6702,-0.6858,-0.7,-0.7095,-0.7143,-0.7197,-0.7333,-0.7543,-0.7787,-0.7923,-0.797,-0.8018,-0.8038,-0.8038,-0.8038,-0.8072,-0.8126,0.4484,0.4525,0.4519,0.4512,0.4512,0.4477,0.4506,0.4485,0.3365,0.0457,0.0,0.0,0.0,0.0,0.0,0.0,0.0,0.1289,0.4287,0.4511,0.3198,0.0279,0.0056,-0.0668,-0.2119,-0.3688,-0.4477,-0.4519,-0.5164,-0.5631,-0.598,-0.6672,-0.6731,-0.6139,-0.6009,-0.5473,-0.468,0.0,-0.4759,-0.4752,0.0,-0.1327,0.0,0.0,0.0,0.0,0.3799,0.3977,0.0,0.4488,0.0,0.0,0.0,0.0,0.0,0.0,0.0,0.0,0.0,0.0,0.0,0.0502,0.0112,0.0056,0.0056,0.2355,0.4455,0.4511,0.0,0.0,0.0,0.0,0.0,0.0,0.0,0.0,0.0,0.0,0.0,0.0,0.0,0.0,0.0,0.0,0.0,0.0,0.0,0.0,0.0,0.0,-0.1611,-0.5145,-0.5218,-0.3555,-0.0,-0.2087,-0.4204,-0.6288,-0.641,-0.6552,-0.6709,-0.6858,-0.7007,-0.7143,-0.7299,-0.7366,-0.7373,-0.7536,-0.7685,-0.7828,-0.7977,-0.8038,-0.8038,-0.8038,-0.8133,-0.8282,0.4311,0.4525,0.4429,0.4328,0.4395,0.447,0.4333,0.3451,0.256,0.0,0.0,0.0,0.0,0.0,0.0,0.0,0.0,0.1289,0.4287,0.4511,0.4113,0.3314,0.1174,-0.0167,-0.0614,-0.3188,-0.4484,-0.4477,-0.4684,-0.4809,-0.4908,-0.5131,-0.5154,-0.4975,-0.493,-0.4797,-0.458,-0.458,0.0,-0.4495,-0.2832,-0.1302,0.0,0.0,0.0,0.0,0.0,0.4246,0.4328,0.0,0.3923,0.2874,0.0,0.0,0.0,0.0,0.0,0.0,0.3482,0.0,0.0,0.0,0.0,0.0,0.1618,0.2233,0.3169,0.0,0.0,0.0,0.0,0.0,0.0,0.0,0.0,0.0,0.0,0.0,0.0,0.0,0.0,0.0,0.0,0.0,0.0,0.0,0.0,0.0,0.0,0.0,-0.0486,-0.1458,-0.1494,-0.1021,-0.0,-0.2031,-0.4169,-0.6291,-0.6464,-0.6552,-0.6709,-0.6858,-0.6953,-0.6993,-0.7143,-0.7204,-0.7224,-0.7489,-0.7685,-0.7814,-0.7862,-0.7943,-0.8038,-0.8038,-0.8065,-0.8106,0.42,0.4746,0.4812,0.4402,0.4674,0.4758,0.4409,0.3636,0.273,0.0,0.0,0.0,0.0,0.0,0.0,0.0,0.1177,0.2355,0.3477,0.4157,0.4497,0.4497,0.2178,0.0614,0.0,-0.2345,-0.386,-0.4477,-0.4525,-0.4519,-0.4519,-0.4519,-0.4519,-0.4519,-0.4519,-0.4519,-0.4519,0.0,0.0,0.0,-0.285,0.0,0.0,0.1958,0.2848,0.0,0.0,0.0,0.4429,0.4395,0.4149,0.0,0.0,0.0,0.0,0.0,0.0,0.0,0.0,0.0,0.0,0.0,0.0,0.0,0.2966,0.3011,0.3253,0.0,0.0,0.0,0.0,0.0,0.0,0.0,0.0,0.0,0.0,0.0,0.0,0.0,0.0,0.0,0.0,0.0,0.0,0.0,0.0,0.0,0.0,0.0,0.0,0.0,0.0,0.0,0.0,-0.1221,-0.3344,-0.6265,-0.6403,-0.6498,-0.6702,-0.6797,-0.6898,-0.7021,-0.7102,-0.7143,-0.7156,-0.7407,-0.759,-0.7733,-0.7862,-0.7963,-0.8038,-0.8038,-0.8079,-0.8133,0.0,0.5132,0.5328,0.4732,0.5109,0.5273,0.4588,0.449,0.3471,0.0,0.0112,0.0,0.0,0.0,0.0,0.0,0.2751,0.3934,0.2567,0.3744,0.4477,0.4477,0.3183,0.1671,0.0056,-0.1281,-0.279,-0.4484,-0.4525,-0.4519,-0.4519,-0.4519,-0.4519,-0.4519,-0.4519,-0.4519,-0.4519,0.0,0.0,-0.4379,-0.285,-0.1341,0.0,0.0,0.1902,0.4249,0.4462,0.4574,0.4626,0.4308,0.3755,0.0,0.0,0.0,0.0,0.0,0.3405,0.0,0.0,0.0,0.0,0.0,0.0,0.0,0.4113,0.4134,0.4194,0.3989,0.0,0.0,0.0,0.0,0.0,0.0,0.0,0.0,0.0,0.0,0.0,0.0,0.0,0.0,0.0,0.0,0.0,0.0,0.0,0.0,0.0,0.0,0.0,0.0,0.0,0.0,0.0,0.0,-0.2035,-0.5977,-0.6217,-0.6437,-0.6675,-0.6709,-0.6871,-0.7115,-0.7136,-0.7149,-0.7177,-0.7333,-0.7475,-0.7631,-0.7902,-0.8024,-0.8038,-0.8038,-0.8126,-0.8248,0.5187,0.5563,0.5483,0.5328,0.5437,0.5273,0.4629,0.4484,0.3866,0.2007,0.0727,0.0,0.0,0.0,0.0,0.0,0.2751,0.4392,0.4095,0.4317,0.4477,0.4477,0.4206,0.2794,0.0056,-0.0279,-0.1788,-0.449,-0.4484,-0.4525,-0.4519,-0.4519,-0.4519,-0.4519,-0.4519,-0.4519,-0.4519,0.0,0.0,-0.4379,-0.285,0.0,0.0112,0.1341,0.2122,0.279,0.4045,0.4519,0.4553,0.445,0.434,0.4193,0.0,0.0,0.0,0.0,0.0,0.0,0.0,0.0,0.0,0.0,0.0,0.0,0.4429,0.4423,0.4382,0.0,0.3997,0.0,0.0,0.0,0.0,0.0,0.0,0.0,0.0,0.0,0.0,0.0,0.0,0.0,0.0,0.0,0.0,0.0,0.0,0.0,0.0,0.0,0.0,0.0,0.0,0.0,0.0,0.0,-0.1251,-0.3752,-0.5671,-0.6565,-0.6525,-0.677,-0.6912,-0.6973,-0.7088,-0.721,-0.7339,-0.7495,-0.757,-0.7617,-0.7787,-0.7929,-0.8038,-0.8038,-0.8058,-0.8099,0.5572,0.5673,0.5483,0.5483,0.5483,0.5273,0.4629,0.4484,0.3928,0.24,0.0894,0.0,0.0,0.0,0.0617,0.2132,0.2914,0.3699,0.4428,0.4477,0.4525,0.4525,0.449,0.3416,0.1172,0.0391,-0.1116,-0.3355,-0.4144,-0.4477,-0.4519,-0.4519,-0.4423,-0.4362,-0.4429,-0.4423,-0.4362,0.0,-0.4477,-0.4379,-0.285,0.0,0.2303,0.3086,0.336,0.3466,0.4249,0.4525,0.4532,0.4558,0.4531,0.0,0.0,0.4477,0.4477,0.0,0.4746,0.5014,0.0,0.0,0.0,0.5555,0.0,0.0,0.0,0.4617,0.4314,0.4113,0.408,0.0,0.0,0.0,0.0,0.0,0.0,0.0,0.0,0.0,0.0,0.0,0.0,0.0,0.0,0.0,0.0,0.0,0.0,0.0,0.0,0.0,0.0,0.0,0.0,0.0,0.0,0.0,-0.1102,-0.3342,-0.5577,-0.6668,-0.6709,-0.6858,-0.6966,-0.7041,-0.7109,-0.7224,-0.7387,-0.7536,-0.7645,-0.7719,-0.7868,-0.797,-0.8038,-0.8038,-0.8038,-0.8052,0.5845,0.5882,0.5756,0.5873,0.5647,0.5273,0.4629,0.4484,0.3822,0.2026,0.0734,0.0,0.0,0.0,0.0,0.0,0.3586,0.3207,0.4599,0.4573,0.4519,0.4519,0.4484,0.3755,0.223,0.0781,-0.0558,-0.1785,-0.3583,-0.4477,-0.4525,-0.4525,-0.4402,-0.4247,-0.4409,-0.4395,0.0,0.0,0.0,-0.4379,0.0,0.0335,0.407,0.4058,0.4219,0.4497,0.4484,0.4525,0.4539,0.4606,0.4565,0.4519,0.4519,0.4519,0.0,0.0,0.0,0.0,0.0,0.0,0.0,0.0,0.0,0.571,0.0,0.0,0.0,0.4131,0.4104,0.0,0.0,0.0,0.0,0.0,0.0,0.0,0.0,0.0,0.0,0.0,0.0,0.0,0.0,0.0,0.0,0.0,0.0,0.0,0.0,0.0,0.0,0.0,0.0,0.0,0.0,0.0,-0.1198,-0.3587,-0.5758,-0.6812,-0.6932,-0.6959,-0.7034,-0.7143,-0.717,-0.7272,-0.7428,-0.7577,-0.7726,-0.7868,-0.7991,-0.8038,-0.8038,-0.8038,-0.8038,-0.8045,0.6372,0.648,0.6642,0.7074,0.6253,0.5273,0.4629,0.4484,0.3457,0.0641,0.0117,0.0,0.0,0.0,0.0,0.0,0.0,0.0,0.5241,0.0,0.4519,0.4519,0.4477,0.3799,0.223,0.0781,-0.0056,-0.0223,-0.3086,-0.4504,-0.449,-0.4484,-0.447,-0.445,-0.4519,0.0,0.0,0.0,-0.4477,0.0,-0.285,-0.0335,0.0,0.246,0.3304,0.449,0.447,0.4519,0.4519,0.0,0.4532,0.4519,0.0,0.4519,0.4622,0.5218,0.0,0.0,0.0,0.0,0.0,0.0,0.6285,0.0,0.0,0.0,0.5186,0.458,0.0,0.0,0.0,0.0,0.0,0.0,0.0,0.0,0.0,0.0,0.0,0.0,0.0,0.0,0.0,0.0,0.0,0.0,0.0,0.0,0.0,0.0,0.0,0.0,0.0,0.0,0.0,0.0,-0.1227,-0.359,-0.5905,-0.7018,-0.6932,-0.7061,-0.7122,-0.7149,-0.7285,-0.7434,-0.7584,-0.7726,-0.7875,-0.8018,-0.8031,-0.8038,-0.8038,-0.8038,-0.8038,-0.8079,0.7074,0.6912,0.6696,0.6912,0.6145,0.5273,0.4629,0.3744,0.2413,0.0286,0.0,0.0,0.0,0.0,0.0,0.0,0.0,0.5159,0.0,0.0,0.456,0.4592,0.4518,0.4182,0.3571,0.1241,0.0,-0.0,-0.1285,-0.2348,-0.3188,-0.3183,-0.3655,-0.4523,-0.4491,0.0,-0.4341,0.0,-0.4477,0.0,0.0,0.0,0.0,0.2181,0.3183,0.4477,0.4519,0.4519,0.4519,0.0,0.4519,0.0,0.0,0.0,0.0,0.0,0.0,0.0,0.0,0.0,0.0,0.0,0.0,0.0,0.6544,0.0,0.5429,0.0,0.0,0.0,0.0,0.0,0.0,0.0,0.4436,0.0,0.0,0.0,0.0,0.0,0.0,0.0,0.0,0.0,0.0,0.0,0.0,0.0,0.0,0.0,0.0,0.0,0.0,0.0,0.0,0.0,-0.1173,-0.3589,-0.5981,-0.7094,-0.7054,-0.7115,-0.719,-0.7278,-0.7346,-0.7502,-0.7726,-0.7787,-0.7902,-0.8038,-0.8038,-0.8038,-0.8038,-0.8038,-0.8038,-0.8072,0.7557,0.7289,0.6858,0.6804,0.6091,0.5289,0.4685,0.3582,0.2167,0.0233,0.0,0.0,0.0,0.0599,0.0,0.0,0.5165,0.5476,0.0,0.0,0.4599,0.4626,0.4613,0.4562,0.448,0.194,0.0394,0.0,0.0,-0.0559,-0.1618,-0.1618,-0.2426,-0.3893,-0.4366,-0.4457,-0.4314,0.0,-0.4518,-0.4379,-0.285,-0.0446,0.2244,0.2683,0.3516,0.4519,0.4519,0.4519,0.4519,0.4519,0.4519,0.0,0.4519,0.0,0.0,0.0,0.0,0.0,0.6956,0.0,0.0,0.0,0.0,0.0,0.0,0.0,0.0,0.0,0.0,0.0,0.0,0.0,0.0,0.0,0.0,0.4463,0.0,0.0,0.0,0.0,0.0,0.0,0.0,0.0,0.0,0.0,0.0,0.0,0.0,0.0,0.0,0.0,0.0,0.0,0.0,0.0,-0.12,-0.3667,-0.597,-0.7095,-0.7204,-0.7204,-0.7285,-0.7434,-0.7475,-0.7611,-0.7814,-0.7855,-0.7936,-0.8038,-0.8038,-0.8038,-0.8038,-0.8038,-0.8065,-0.8126,0.7557,0.7676,0.761,0.7408,0.6362,0.5337,0.4847,0.4598,0.3366,0.0381,0.0,0.0,0.0,0.0,0.0,0.0,0.0,0.5473,0.5549,0.0,0.4775,0.4539,0.4748,0.4775,0.0,0.2941,0.144,0.0,0.0,-0.0,-0.0056,-0.0056,-0.0836,-0.2341,-0.4047,-0.467,-0.4519,-0.4619,-0.4613,-0.4379,-0.285,-0.0445,0.2345,0.0,0.4484,0.4519,0.4519,0.0,0.0,0.4519,0.4519,0.0,0.0,0.0,0.0,0.0,0.0,0.0,0.0,0.0,0.0,0.7245,0.0,0.0,0.0,0.0,0.6604,0.0,0.0,0.0,0.0,0.0,0.0,0.0,0.0,0.0,0.0,0.0,0.0,0.0,0.0,0.0,0.0,0.0,0.0,0.0,0.0,0.0,0.0,0.0,0.0,0.0,0.0,0.0,0.0,0.0,-0.1228,-0.3657,-0.6002,-0.7155,-0.7366,-0.7366,-0.7448,-0.7597,-0.774,-0.7801,-0.7821,-0.797,-0.8031,-0.8038,-0.8038,-0.8038,-0.8038,-0.8038,-0.8133,-0.8282,0.6912,0.7771,0.8262,0.7676,0.7128,0.6282,0.4818,0.4545,0.4135,0.0,0.0,0.0,0.0,0.3534,0.5885,0.0,0.0,0.5752,0.5603,0.5352,0.0,0.0,0.0,0.5185,0.0,0.0,0.2502,0.0,0.0,0.0,0.0,0.0,-0.028,-0.0837,-0.3462,-0.4657,0.0,0.0,0.0,0.0,0.0,0.0566,0.2649,0.0,0.0,0.4519,0.4519,0.4519,0.0,0.4519,0.4519,0.4519,0.4519,0.4519,0.4622,0.5328,0.6018,0.0,0.0,0.0,0.8953,0.88,0.0,0.0,0.0,0.0,0.0,0.0,0.0,0.0,0.0,0.0,0.0,0.0,0.0,0.0,0.0,0.0,0.0,0.0,0.0,0.0,0.0,0.0,0.0,0.0,0.0,0.0,0.0,0.0,0.0,0.0,0.0,0.0,0.0,0.0,-0.1345,-0.3919,-0.6048,-0.7222,-0.7436,-0.725,-0.7336,-0.7664,-0.7711,-0.7784,-0.7963,-0.8018,-0.8038,-0.8038,-0.8038,-0.8038,-0.8052,-0.8153,-0.8228,-0.8303,0.6588,0.7783,0.8593,0.7824,0.7235,0.6308,0.4732,0.4492,0.0,0.0,0.1994,0.0,0.0,0.0,0.6222,0.0,0.6534,0.6071,0.5766,0.5603,0.0,0.5142,0.5332,0.0,0.0,0.0,0.0,0.0,0.0515,0.0,0.0,0.0,0.0,-0.0112,-0.278,-0.4032,-0.4193,-0.4482,-0.4594,0.0,0.0,0.102,0.0,0.0,0.4629,0.4594,0.0,0.4519,0.4519,0.4519,0.4519,0.4519,0.4519,0.4519,0.4622,0.5328,0.6018,0.6697,0.7509,0.8345,0.0,0.9215,0.8649,0.0,0.8222,0.0,0.0,0.0,0.0,0.0,0.0,0.0,0.0,0.0,0.0,0.0,0.0,0.4282,0.0,0.0,0.0,0.0,0.0,0.0,0.0,0.0,0.0,0.0,0.0,0.0,0.0,0.0,0.0,0.0,0.0,0.0,-0.0913,-0.258,-0.5893,-0.7396,-0.7222,-0.6267,-0.6239,-0.6923,-0.7524,-0.7872,-0.8038,-0.8038,-0.8038,-0.8038,-0.8038,-0.8072,-0.8133,-0.8235,-0.8336,-0.8472,0.6642,0.7783,0.8553,0.7889,0.6794,0.0,0.0,0.0,0.4511,0.0,0.232,0.0315,0.0316,0.238,0.4678,0.6905,0.6723,0.6363,0.6071,0.5908,0.0,0.0,0.5447,0.5332,0.4735,0.0,0.0,0.0,0.0,0.0116,0.0,0.0,0.0,-0.0056,-0.2026,0.0,-0.3128,-0.4352,-0.4747,-0.4212,-0.1231,0.0896,0.2404,0.4212,0.4812,0.4674,0.4573,0.4519,0.4519,0.4519,0.4519,0.4519,0.4519,0.4525,0.4636,0.5328,0.5555,0.5826,0.6736,0.7821,0.861,0.8434,0.0,0.0,0.0,0.0,0.6091,0.0,0.0,0.0,0.0,0.0,0.0,0.0,0.0,0.0,0.0,0.0,0.0,0.0,0.0,0.0,0.0,0.0,0.0,0.0,0.0,0.0,0.0,0.0,0.0,0.0,0.0,0.0,0.0,0.0,0.0,-0.0093,-0.5209,-0.7465,-0.7088,-0.4801,-0.4245,-0.5218,-0.7153,-0.7959,-0.8038,-0.8038,-0.8038,-0.8038,-0.8038,-0.814,-0.8282,-0.8289,-0.8479,-0.8771,0.7289,0.7816,0.8215,0.0,0.8262,0.7411,0.0,0.0,0.0,0.0,0.3665,0.5306,0.5282,0.5841,0.6428,0.7014,0.6817,0.0,0.0,0.0,0.0,0.5488,0.5759,0.5691,0.5196,0.5226,0.0,0.3162,0.0,0.1482,0.0,0.0,0.0,-0.0,-0.0565,-0.2035,-0.4163,-0.4495,-0.4545,-0.4225,-0.1233,0.0908,0.0,0.0,0.4635,0.4674,0.4573,0.4519,0.4519,0.4519,0.4519,0.4519,0.4519,0.4594,0.489,0.5973,0.6585,0.7097,0.8297,0.8991,0.9317,0.8836,0.8177,0.7521,0.0,0.0,0.0,0.0,0.0,0.0,0.0,0.0,0.0,0.0,0.0,0.0,0.0,0.0,0.0,0.5387,0.0,0.0,0.0266,0.0,0.0,0.0,0.0,0.0,0.0,0.0,0.0,0.0,0.0,0.0,0.0,0.0,0.0,-0.0,-0.1433,-0.4075,-0.7753,-0.6645,-0.4461,-0.1607,-0.6047,-0.7979,-0.7965,-0.8045,-0.8038,-0.8038,-0.8038,-0.8201,-0.8438,-0.8554,-0.8784,-0.9049,0.745,0.7943,0.0,0.8725,0.0,0.0,0.5567,0.0,0.0,0.0,0.2363,0.0,0.6903,0.7115,0.7088,0.7074,0.6878,0.0,0.6566,0.0,0.0,0.5698,0.584,0.5691,0.5182,0.5148,0.0,0.3645,0.0,0.242,0.1939,0.0624,0.0,0.0,0.0,-0.096,-0.2634,-0.3915,-0.3738,-0.2405,-0.0677,0.0,0.0,0.3896,0.4538,0.4579,0.4553,0.4519,0.4519,0.4519,0.4519,0.4519,0.4519,0.4565,0.4948,0.6211,0.6946,0.7592,0.8864,0.9552,0.9722,0.9004,0.822,0.7427,0.6667,0.5944,0.5338,0.0,0.0,0.0,0.0,0.0,0.0,0.0,0.0,0.0,0.0,0.0,0.0,0.0,0.5477,0.0,0.1473,0.0463,0.0,0.0,0.0,0.0,0.0,0.0,0.0,0.0,0.0,0.0,0.0,0.0,0.0,0.0,0.0,-0.1581,-0.4448,-0.42,-0.2496,-0.0201,-0.4425,-0.6954,-0.7972,-0.8052,-0.8038,-0.8052,-0.818,-0.8377,-0.8601,-0.8757,-0.892,-0.9076,0.7583,0.8362,0.0,0.0,0.0,0.0,0.0,0.2877,0.0,0.0682,0.0,0.2319,0.6524,0.7041,0.7041,0.7143,0.0,0.6647,0.6532,0.6335,0.6105,0.5833,0.5793,0.5515,0.4958,0.4998,0.4992,0.0,0.0,0.3217,0.4422,0.1815,0.0391,0.0,0.0,0.0,0.0,-0.2809,-0.2401,0.0,0.0,0.0894,0.2345,0.3922,0.4484,0.4519,0.4629,0.4622,0.4622,0.4622,0.4643,0.4657,0.4657,0.472,0.5006,0.6295,0.7037,0.7687,0.8966,0.9753,0.9984,0.91,0.8513,0.7892,0.6915,0.6137,0.5557,0.5425,0.5425,0.5432,0.0,0.0,0.0,0.0,0.0,0.0,0.0,0.0,0.0,0.0,0.0,0.0,0.2927,0.1082,0.0,0.0,0.0,0.0,0.0,0.0,0.0,0.0,0.0,0.0,0.0,0.0,0.0,0.0,0.0,0.0,0.0,0.0,0.0,-0.0201,-0.3215,-0.5837,-0.7972,-0.7952,-0.8058,-0.8099,-0.8397,-0.8594,-0.873,-0.8879,-0.8954,-0.9008,0.892,0.0,0.0,0.0,0.0,0.5597,0.6105,0.5569,0.5024,0.4496,0.4463,0.4956,0.6291,0.6647,0.6878,0.7122,0.6871,0.0,0.0,0.0,0.0,0.5935,0.5739,0.546,0.5101,0.5006,0.4877,0.0,0.0,0.0,0.4481,0.3981,0.2397,0.0,0.0,0.0,-0.0057,-0.0565,0.0,0.0,0.0,0.0894,0.2345,0.3922,0.4484,0.4574,0.5109,0.5328,0.5328,0.5328,0.5425,0.5555,0.5555,0.5307,0.533,0.6766,0.7492,0.8175,0.9551,1.0221,1.0286,0.9452,0.9169,0.8678,0.7046,0.6588,0.6268,0.5557,0.5425,0.5466,0.5528,0.0,0.0,0.0,0.0,0.0,0.0,0.0,0.0,0.0,0.0,0.4865,0.0,0.0,0.0,0.0,0.0,0.0,0.0,0.0,0.0,0.0,0.0,0.0,0.0,0.0,0.0,0.0,0.0,0.0,0.0,0.0,0.0,-0.0303,-0.5153,-0.7591,-0.7985,-0.7985,-0.8147,-0.8275,-0.856,-0.8689,-0.873,-0.8879,-0.9015,-0.9144,0.0,0.0,0.0,0.0,0.0,0.0,0.0,0.6338,0.0,0.594,0.5899,0.6009,0.6304,0.639,0.6654,0.7102,0.6729,0.6342,0.6044,0.5935,0.5847,0.5772,0.565,0.0,0.5026,0.4952,0.4823,0.475,0.0,0.0,0.4584,0.4551,0.3744,0.2289,0.0682,0.0,0.0,0.0,0.0,0.0,0.0,0.0894,0.2345,0.3922,0.4531,0.4692,0.5466,0.5737,0.5634,0.5634,0.5693,0.5735,0.5424,0.5197,0.5409,0.687,0.7613,0.8302,0.9691,1.0327,1.0364,0.9524,0.8947,0.8322,0.7114,0.6398,0.5926,0.5693,0.5528,0.5528,0.5671,0.5752,0.0,0.0,0.0,0.0,0.0,0.0,0.0,0.0,0.0,0.0,0.0,0.0,0.0,0.0,0.0,0.0,0.0,0.0,0.0,0.0,0.0,0.0,0.0,0.0,0.0,0.0,0.0,0.0,0.0,0.0,0.0,-0.0101,-0.2723,-0.545,-0.7912,-0.7131,-0.748,-0.8428,-0.8662,-0.8757,-0.8845,-0.8994,-0.915,-0.9185,0.0,1.0848,0.0,0.0,0.5858,0.0,0.6263,0.6338,0.6338,0.6338,0.6338,0.6338,0.6338,0.6338,0.6444,0.6912,0.5711,0.5231,0.5842,0.5779,0.5657,0.5549,0.5542,0.5359,0.4972,0.4938,0.4843,0.0,0.0,0.0,0.0,0.4531,0.4477,0.0,0.0,0.0,0.0,0.0,0.0,0.0,0.0,0.0898,0.2479,0.3934,0.4706,0.5137,0.5948,0.6196,0.6125,0.6169,0.6035,0.5752,0.5336,0.5185,0.5467,0.6993,0.7684,0.8313,0.9829,1.0381,1.0428,0.9728,0.911,0.8406,0.7373,0.6587,0.5992,0.5823,0.5739,0.5718,0.5827,0.5874,0.0,0.0,0.0,0.0,0.0,0.0,0.0,0.0,0.0,0.0,0.3622,0.0,0.0,0.0,0.0,0.0,0.0,0.0,0.0,0.0,0.0,0.0,0.0,0.0,0.0,0.0,0.0,0.0,0.0,0.0,0.0,0.0,0.0,-0.2425,-0.622,-0.5574,-0.6674,-0.8649,-0.8764,-0.8838,-0.896,-0.911,-0.9151,-0.9182,0.0,0.0,0.0,0.0,0.0,0.0,0.0,0.6338,0.6338,0.6338,0.6338,0.6338,0.6338,0.6338,0.6281,0.6335,0.2829,0.2187,0.5983,0.5705,0.5466,0.5452,0.5452,0.5298,0.5114,0.4986,0.4843,0.0,0.0,0.0,0.0,0.0,0.0,0.0,0.0,0.0,0.0,0.0,0.0,0.0,0.0,0.1081,0.2793,0.4026,0.517,0.6113,0.675,0.7039,0.7171,0.7318,0.6712,0.6001,0.6051,0.5724,0.5727,0.7455,0.7991,0.8345,1.0072,1.0604,1.0568,1.0491,1.0626,1.0284,0.8493,0.8157,0.7803,0.6151,0.5901,0.5989,0.6003,0.6125,0.622,0.0,0.0,0.0,0.0,0.0,0.0,0.6234,0.0,0.0,0.0,0.234,0.0,0.0,0.0,0.0,0.0,0.0,0.0,0.0,0.0,0.0,0.0,0.0,0.0,0.0,0.0,0.0,0.0,0.0,0.0,0.0,0.0,-0.0306,-0.0933,-0.3258,-0.6017,-0.8825,-0.8913,-0.8843,-0.8876,-0.8897,-0.9043,-0.9202,0.0,0.0,0.0,0.0,0.0,0.0,0.0,0.6338,0.6338,0.6338,0.6338,0.6338,0.6338,0.6338,0.6338,0.6338,0.2426,0.1605,0.5525,0.5562,0.5425,0.5425,0.5425,0.5277,0.5094,0.5155,0.4979,0.0,0.0,0.0,0.0,0.0,0.0,0.0,0.0,0.1128,0.0,0.0,0.0,0.0,0.0,0.1077,0.2895,0.4427,0.5547,0.645,0.721,0.7179,0.6855,0.7565,0.7056,0.6059,0.5796,0.5567,0.5756,0.7512,0.8021,0.8355,1.011,1.0618,1.0618,1.0618,1.038,0.9892,0.859,0.8065,0.7494,0.6336,0.6125,0.6193,0.6281,0.6274,0.6288,0.0,0.0,0.0,0.0,0.0,0.0,0.0,0.0,0.6322,0.0,0.0,0.0,0.0,0.0,0.0,0.0,0.0,0.0,0.0,0.0,0.0,0.0,0.0,0.0,0.0,0.0,0.0,0.0,0.0,0.0,0.0,0.0,0.0,-0.0106,-0.1179,-0.2397,-0.3775,-0.5522,-0.7387,-0.8917,-0.8916,-0.8927,-0.901,1.0346,0.0,0.7702,0.0,0.6338,0.6338,0.6338,0.6338,0.6338,0.6338,0.6338,0.6338,0.6338,0.6338,0.6338,0.6338,0.2426,0.1503,0.5132,0.5425,0.5425,0.5425,0.5425,0.0,0.5219,0.5356,0.5171,0.4599,0.4704,0.0,0.0,0.0,0.0,0.0,0.3795,0.2711,0.1368,0.0416,0.0,0.0123,0.1172,0.2043,0.2915,0.4645,0.5934,0.6913,0.7216,0.71,0.6931,0.7455,0.6892,0.5917,0.5522,0.5425,0.5756,0.7512,0.8021,0.8355,1.011,1.0618,1.0618,1.0618,1.0379,0.9876,0.8653,0.8146,0.7604,0.6521,0.6295,0.6342,0.6396,0.6396,0.641,0.6464,0.0,0.0,0.0,0.0,0.0,0.0,0.5454,0.5078,0.4491,0.1739,0.0,0.0,0.0,0.0,0.0,0.0,0.0,0.0,0.0,0.0,0.0,0.0,0.0,0.0,0.0,0.0,0.0,0.0,0.0,0.0,0.0,0.0,0.0,0.0,0.0,-0.0225,-0.2392,-0.4478,-0.6498,-0.8254,-0.8865,-0.8933,1.1996,1.2231,1.0944,0.7019,0.6338,0.6338,0.6338,0.6338,0.6338,0.6338,0.6338,0.6338,0.6338,0.6338,0.6338,0.6338,0.2426,0.1503,0.5132,0.5425,0.5425,0.0,0.0,0.5425,0.5425,0.5425,0.5216,0.4911,0.0,0.0,0.4911,0.0,0.4608,0.4766,0.4584,0.4618,0.4639,0.1353,0.0,0.0308,0.3902,0.4261,0.2849,0.4473,0.6312,0.7847,0.6777,0.7076,0.7827,0.6981,0.6137,0.5425,0.5425,0.5425,0.5756,0.7512,0.8021,0.8355,1.011,1.0618,1.0618,1.0618,1.0995,1.0861,0.8824,0.8895,0.8685,0.6718,0.6369,0.643,0.6288,0.6498,0.6647,0.6498,0.0,0.0,0.0,0.0,0.0,0.0,0.3588,0.2324,0.0314,0.0,0.0,0.0,0.0,0.0,0.0,0.0,0.0,0.0,0.0,0.0,0.0,0.0,0.0,0.0,0.0,0.0,0.0,0.0,0.0,0.0,0.0,0.0,0.0,0.0,0.0,-0.0,-0.0,-0.0116,-0.0823,-0.6727,-0.8933,-0.8952,1.1922,1.011,0.7778,0.6493,0.6338,0.6338,0.6338,0.6338,0.6187,0.5775,0.572,0.572,0.572,0.6091,0.6338,0.0,0.2426,0.17,0.0,0.605,0.5864,0.5446,0.5425,0.5425,0.5425,0.5425,0.5114,0.4606,0.0,0.0,0.0,0.4884,0.4836,0.4759,0.4684,0.4816,0.4955,0.3804,0.2046,0.0196,0.2611,0.3946,0.4701,0.5971,0.6742,0.7175,0.738,0.7316,0.7093,0.6776,0.6137,0.5425,0.5425,0.5425,0.5756,0.7512,0.8021,0.8355,1.011,1.0701,1.0862,1.0862,1.1289,1.1224,0.9124,0.7965,0.7134,0.6541,0.6437,0.6519,0.6688,0.6709,0.6715,0.6776,0.6607,0.0,0.0,0.0,0.0,0.0,0.5433,0.392,0.0,0.0,0.0,0.0,0.0,0.0,0.0,0.0,0.0,0.0,0.0,0.0,0.0,0.0,0.0,0.0,0.0,0.0,0.0,0.0,0.0,0.0,0.0,0.0,0.0,0.0,0.0,0.0,0.0,0.0,-0.024,-0.2096,-0.2872,-0.289,0.9809,0.9216,0.8084,0.6563,0.6338,0.6263,0.6029,0.5995,0.5858,0.548,0.5425,0.5425,0.5425,0.5974,0.0,0.6338,0.2426,0.1097,0.3752,0.5395,0.6064,0.5452,0.5425,0.5425,0.5425,0.0,0.0,0.4519,0.4745,0.4924,0.5054,0.5067,0.502,0.4857,0.4829,0.4955,0.523,0.51,0.3891,0.2142,0.328,0.4367,0.554,0.6523,0.7025,0.7242,0.7466,0.7381,0.7111,0.6473,0.5911,0.5386,0.5508,0.5488,0.5628,0.6719,0.7493,0.8291,0.9716,1.0574,1.0995,1.0995,1.1436,1.1416,0.9522,0.7642,0.6383,0.6525,0.6607,0.6681,0.6817,0.6858,0.6858,0.6844,0.6681,0.6539,0.6478,0.0,0.0,0.0,0.0,0.0,0.0,0.092,0.0,0.0,0.0,0.0,0.0,0.0,0.0,0.0,0.0,0.0,0.0,0.0,0.0,0.0,0.0,0.0,0.0,0.0,0.0,0.0,0.0,0.0,0.0,0.0,0.0,0.0,0.0,0.0,0.0,0.0,0.0,0.0,0.6338,0.9291,0.0,0.0,0.6304,0.0,0.5514,0.5425,0.5425,0.5425,0.5425,0.5425,0.5425,0.5974,0.6261,0.6268,0.0,0.0,0.0,0.3986,0.6064,0.5452,0.5425,0.5425,0.5425,0.5425,0.513,0.4519,0.5109,0.5411,0.5425,0.5233,0.5101,0.5065,0.5008,0.5094,0.5425,0.5372,0.5379,0.5379,0.5379,0.5386,0.5526,0.6465,0.7288,0.7805,0.7073,0.7306,0.769,0.615,0.5527,0.5484,0.561,0.5557,0.5411,0.5432,0.6628,0.8161,0.9163,1.0211,1.1022,1.1049,1.1421,1.1326,0.9746,0.7899,0.6532,0.6681,0.6831,0.6892,0.6756,0.6953,0.7048,0.6776,0.6715,0.6654,0.6505,0.0,0.0,0.0,0.0,0.0,0.0,0.249,0.0,0.0,0.0,0.0,0.0,0.0,0.0,0.0,0.0,0.0,0.0,0.0,0.0,0.0,0.0,0.0,0.0,0.0,0.0,0.0,0.0,0.0,0.0,0.0,0.0,0.0,0.0,0.0,0.0,0.0,0.0,0.0,0.0,0.0,0.7395,0.6486,0.5954,0.5597,0.5452,0.5425,0.5425,0.5425,0.5425,0.5425,0.5425,0.5974,0.6281,0.6322,0.2434,0.0,0.0,0.3986,0.6064,0.5452,0.5425,0.5425,0.5425,0.5425,0.513,0.4519,0.4836,0.5142,0.5425,0.5377,0.5237,0.5135,0.5257,0.5325,0.5425,0.5432,0.5372,0.5379,0.5365,0.5379,0.5593,0.7082,0.7426,0.7049,0.7529,0.7446,0.6992,0.5928,0.5587,0.561,0.5714,0.5775,0.5645,0.5488,0.6316,0.7772,1.0036,1.0955,1.1383,1.161,1.0839,0.9792,0.8654,0.7442,0.6688,0.6844,0.6905,0.6953,0.7021,0.7095,0.7115,0.7048,0.6844,0.6688,0.6654,0.6519,0.0,0.0,0.5341,0.5221,0.7155,0.2905,0.0,0.0,0.0,0.0,0.0,0.0,0.0,0.0,0.0,0.0,0.0,0.0,0.0,0.0,0.0,0.0,0.0,0.0,0.0,0.0,0.0,0.0,0.0,0.0,0.0,0.0,0.0,0.0,0.0,0.0,0.0,0.0,0.6338,0.6338,0.6249,0.5967,0.5645,0.5425,0.5425,0.5425,0.5425,0.5425,0.5425,0.5535,0.5816,0.6139,0.5485,0.362,0.1335,0.0,0.0,0.3986,0.6064,0.5452,0.5425,0.5425,0.5425,0.5425,0.5267,0.4931,0.504,0.5203,0.5425,0.5425,0.5318,0.5237,0.5325,0.5425,0.5425,0.5425,0.5432,0.5372,0.5432,0.5365,0.5586,0.7465,0.7579,0.692,0.7952,0.7743,0.683,0.6058,0.584,0.5842,0.5989,0.6061,0.6373,0.8037,0.7971,0.7787,0.9773,1.0942,1.173,1.2231,1.0977,0.9547,0.909,0.7891,0.6844,0.6993,0.7027,0.7048,0.7129,0.7143,0.7095,0.6959,0.6803,0.6675,0.6607,0.6525,0.0,0.6719,0.602,0.6168,0.7485,0.5075,0.253,0.0187,0.0,0.0,0.0,0.0,0.0,0.0,0.0,0.0,0.0,0.0,0.0,0.0,0.0,0.0,0.0,0.0,0.0,0.0,0.0,0.0,0.0,0.0,0.0,0.0,0.0,0.0,0.0,0.0,0.0,0.0,0.6338,0.6795,0.7061,0.6539,0.6281,0.6013,0.5491,0.5425,0.5425,0.5425,0.5425,0.5658,0.627,0.6256,0.4461,0.0392,0.0,0.0,0.0,0.3986,0.6064,0.5452,0.5425,0.5425,0.5425,0.5425,0.5425,0.5425,0.5425,0.5425,0.5425,0.5425,0.5425,0.5425,0.5425,0.5425,0.5425,0.5425,0.5439,0.5459,0.5593,0.56,0.5635,0.7678,0.7891,0.7199,0.8093,0.7843,0.7001,0.6279,0.6044,0.6091,0.622,0.6311,0.6954,1.0404,0.9873,0.8442,0.9522,1.0941,1.2058,1.2285,1.1101,0.9886,0.9779,0.8333,0.7034,0.7177,0.721,0.7204,0.7177,0.7177,0.7088,0.681,0.6749,0.6688,0.6559,0.0,0.6647,0.6853,0.69,0.7129,0.7554,0.7567,0.581,0.1527,0.0477,0.0,0.0,0.0,0.0,0.0,0.0,0.0,0.0,0.0,0.0,0.0,0.0,0.0,0.0,0.0,0.0,0.0,0.0,0.0,0.0,0.0,0.0,0.0,0.0,0.0,0.0,0.0,0.0,0.0,0.6338,0.9054,1.1341,1.124,1.0454,0.8807,0.5822,0.5425,0.5425,0.5425,0.5425,0.5658,0.627,0.5878,0.406,0.0312,0.0,0.0,0.0,0.3986,0.6064,0.5452,0.5425,0.5425,0.5425,0.5425,0.5425,0.5425,0.5425,0.5425,0.5425,0.5425,0.5425,0.5425,0.5425,0.5425,0.5425,0.5425,0.544,0.5624,0.6499,0.6348,0.5888,0.7855,0.8234,0.7794,0.7442,0.7339,0.7155,0.6314,0.6118,0.6227,0.6254,0.6311,0.6432,0.7071,0.876,1.0592,1.1611,1.2265,1.2298,1.0704,1.0223,0.9704,0.7933,0.7471,0.7346,0.7495,0.7529,0.7489,0.736,0.7333,0.7278,0.7102,0.6973,0.6885,0.6865,0.0,0.6919,0.7001,0.7224,0.7428,0.765,0.7678,0.7393,0.6754,0.2599,0.0,0.0,0.0,0.0,0.0,0.0,0.0,0.0,0.0,0.0,0.0,0.0,0.0,0.0,0.0,0.0,0.0,0.0,0.0,0.0,0.0,0.0,0.0,0.0,0.0,0.0,0.0,0.0,0.0,0.9508,1.0563,1.1356,1.1356,0.9374,0.7251,0.5624,0.5425,0.5425,0.5425,0.5425,0.5658,0.627,0.6084,0.4313,0.0313,0.0,0.0,0.0,0.3986,0.6064,0.5452,0.5425,0.4489,0.2549,0.4422,0.5425,0.5425,0.7891,0.896,0.8648,0.8648,0.7952,0.6773,0.672,0.6287,0.5596,0.5515,0.5569,0.5705,0.6191,0.6149,0.5994,0.7457,0.7573,0.7009,0.7565,0.7285,0.667,0.6304,0.62,0.6338,0.6338,0.6423,0.6669,0.7344,0.9164,1.1218,1.2424,1.3024,1.2894,1.1415,1.0815,1.0086,0.8599,0.7894,0.7516,0.7584,0.7597,0.7577,0.7509,0.7428,0.7346,0.7278,0.7075,0.0,0.0,0.7041,0.7095,0.7244,0.74,0.7584,0.7704,0.6316,0.5557,0.5867,0.2172,0.0,0.0,0.0,0.0,0.0,0.0,0.0,0.0,0.0,0.0,0.0,0.0,0.0,0.0,0.0,0.0,0.0,0.0,0.0,0.0,0.0,0.0,0.0,0.0,0.0,0.0,0.0,0.0,0.0,1.1891,1.1182,1.0618,1.0618,0.7707,0.5425,0.5425,0.5425,0.5425,0.5425,0.5425,0.5658,0.627,0.6338,0.5002,0.1722,0.0549,0.0,0.0,0.3839,0.5854,0.5386,0.5425,0.4084,0.1344,0.3951,0.5659,0.6194,0.9723,1.1377,1.1076,1.1076,1.0008,0.7961,0.7724,0.6909,0.5793,0.5684,0.586,0.6136,0.6208,0.615,0.6186,0.7204,0.6962,0.6235,0.7439,0.7188,0.6338,0.6338,0.6359,0.6386,0.6386,0.6489,0.6936,0.7893,0.9218,1.085,1.2519,1.2908,1.272,1.2095,1.1165,1.0176,0.9181,0.8298,0.7658,0.7692,0.7699,0.7692,0.7658,0.755,0.7461,0.7428,0.0,0.0,0.0,0.7244,0.7305,0.7455,0.7577,0.7706,0.7855,0.5904,0.4157,0.311,0.1209,0.0,0.0,0.0,0.0,0.0,0.0,0.0,0.0,0.0,0.0,0.0,0.0,0.0,0.0,0.0,0.0,0.0,0.0,0.0,0.0,0.0,0.0,0.0,0.0,0.0,0.0,0.0,0.0,0.0,1.0752,1.0685,1.0618,1.0618,0.7707,0.5425,0.5425,0.5425,0.5425,0.5425,0.5425,0.5658,0.627,0.6338,0.6183,0.5867,0.227,0.0,0.0,0.3463,0.5432,0.5386,0.5425,0.5292,0.5027,0.5292,0.6435,0.8563,0.8915,0.9433,1.0124,1.0124,0.9339,0.797,0.7539,0.6777,0.58,0.5793,0.6375,0.74,0.74,0.6931,0.6414,0.7415,0.7126,0.6263,0.6395,0.6416,0.6338,0.6338,0.6428,0.6537,0.6537,0.6647,0.6771,0.6847,0.7889,0.9511,1.1753,1.1519,1.0784,1.1212,1.0416,0.9189,0.8137,0.789,0.7834,0.7977,0.8011,0.7963,0.7821,0.7787,0.7733,0.7604,0.0,0.0,0.7563,0.7563,0.7617,0.776,0.7787,0.7862,0.7939,0.7759,0.5636,0.0704,0.0101,0.0,0.0,0.0,0.0,0.0,0.0,0.0,0.0,0.0,0.0,0.0,0.0,0.0,0.0,0.0,0.0,0.0,0.0,0.0,0.0,0.0,0.0,0.0,0.0,0.0,0.0,0.0,0.0,0.0,1.0618,1.0618,1.0618,1.0618,0.7707,0.5425,0.5425,0.5425,0.5425,0.5425,0.5425,0.5514,0.5748,0.6112,0.6338,0.6338,0.4846,0.2817,0.0157,0.1257,0.2031,0.2023,0.4217,0.5425,0.5425,0.5425,0.6511,0.8824,1.0265,1.0743,1.0372,1.1118,1.0815,0.969,0.8844,0.8253,0.7921,0.7147,0.7573,0.8646,0.8646,0.8063,0.7271,0.7693,0.7227,0.6448,0.6469,0.6531,0.6532,0.6532,0.6566,0.6716,0.6812,0.7027,0.7187,0.7204,0.7695,0.8627,1.1192,1.1393,1.091,1.1311,1.0453,0.9188,0.8112,0.795,0.797,0.8024,0.8038,0.8024,0.7963,0.7875,0.7828,0.7868,0.0,0.7631,0.7719,0.7733,0.7753,0.7801,0.7896,0.7977,0.7945,0.7965,0.6753,0.3613,0.3048,0.2764,0.2764,0.1053,0.0,0.0,0.0,0.0,0.0,0.0,0.0,0.0,0.0,0.0,0.0,0.0,0.0,0.0,0.0,0.0,0.0,0.0,0.0,0.0,0.0,0.0,0.0,0.0,0.0,0.0,1.0362,1.0618,1.0238,0.9128,0.699,0.5425,0.5425,0.5425,0.5425,0.5425,0.5425,0.5425,0.5425,0.5974,0.6338,0.6338,0.6338,0.5085,0.2192,0.0706,0.0,0.0,0.2348,0.436,0.5637,0.5549,0.6741,0.9257,1.0609,1.1217,1.113,1.1905,1.1774,1.0783,0.9649,0.9224,0.9216,0.8085,0.8403,0.9755,0.9525,0.9019,0.8335,0.8476,0.7953,0.7185,0.7185,0.7171,0.7184,0.6778,0.6763,0.6858,0.7052,0.7312,0.7521,0.759,0.7665,0.8167,1.0514,1.0659,1.0386,1.1382,1.028,0.8878,0.811,0.8038,0.8038,0.8038,0.8038,0.8038,0.8038,0.7957,0.7916,0.8024,0.7868,0.7773,0.7868,0.7882,0.7882,0.7882,0.7977,0.8038,0.8038,0.8099,0.7623,0.639,0.599,0.5756,0.5894,0.2162,0.0,0.0,0.0,0.0,0.0,0.0,0.0,0.0,0.0,0.0,0.0,0.0,0.0,0.0,0.0,0.0,0.0,0.0,0.0,0.0,0.0,0.0,0.0,0.0,0.0,0.0,0.9756,1.0568,0.9524,0.6013,0.5425,0.5425,0.5425,0.5425,0.5359,0.5359,0.5365,0.5365,0.5365,0.5901,0.6338,0.6338,0.6338,0.6261,0.6261,0.2348,0.0,0.0,0.0,0.1979,0.6247,0.5962,0.7252,1.0271,0.9511,1.0171,1.2305,1.2305,1.1774,1.0783,0.9744,0.9301,0.9226,0.8246,0.8988,1.0732,0.9999,0.9625,0.9556,1.0028,0.9461,0.8401,0.8401,0.8401,0.8246,0.7116,0.6905,0.7143,0.7143,0.7353,0.7631,0.7773,0.7814,0.8132,0.9559,0.9015,0.8627,1.1268,0.9895,0.8038,0.8038,0.8038,0.8038,0.8038,0.8038,0.8038,0.8038,0.8045,0.8045,0.8045,0.8045,0.8045,0.8045,0.8045,0.8045,0.8045,0.8045,0.8045,0.8045,0.8194,0.8289,0.8289,0.8452,0.8621,0.8886,0.3326,0.0,0.0,0.0,0.0,0.0,0.0,0.0,0.0,0.0,0.0,0.0,0.0,0.0,0.0,0.0,0.0,0.0,0.0,0.0,0.0,0.0,0.0,0.0,0.0,0.0,0.0,0.6647,0.8935,0.9524,0.6013,0.5425,0.5425,0.5425,0.5425,0.4489,0.1946,0.4222,0.4882,0.1963,0.4421,0.6338,0.6338,0.6338,0.5002,0.2035,0.0706,0.0,0.0,0.0,0.1975,0.6177,0.6173,0.6616,0.748,0.9145,1.0724,1.2305,1.2305,1.2263,1.2144,1.1077,1.1077,1.1701,1.0874,1.1163,1.217,1.2154,1.1702,1.1067,1.1227,1.0621,0.9692,0.9007,0.8801,0.8752,0.7645,0.7387,0.7482,0.7577,0.7746,0.7916,0.7957,0.797,0.8273,0.9592,0.9015,0.8435,1.0092,0.9312,0.8038,0.8038,0.8038,0.8038,0.8038,0.8126,0.8201,0.8201,0.8282,0.835,0.835,0.835,0.835,0.835,0.835,0.835,0.835,0.835,0.835,0.835,0.8397,0.8425,0.8425,0.8669,0.8893,0.9055,0.7464,0.4425,0.0118,0.0,0.0,0.0,0.0,0.0,0.0,0.0,0.0,0.0,0.0,0.0,0.0,0.0,0.0,0.0,0.0,0.0,0.0,0.0,0.0,0.0,0.0,0.0,0.0,0.4748,0.6967,0.7892,0.5756,0.5425,0.5425,0.5425,0.5425,0.4622,0.2415,0.4328,0.5051,0.272,0.4803,0.6338,0.6338,0.6338,0.524,0.266,0.0941,0.0,0.0,0.1566,0.3675,0.6261,0.6338,0.6338,0.6338,0.8988,1.1019,1.2305,1.2305,1.2398,1.2572,1.1609,1.1812,1.2759,1.2031,1.2213,1.2959,1.3253,1.2717,1.1816,1.2425,1.1721,1.0434,0.9883,0.9509,0.91,0.8009,0.7638,0.7706,0.7855,0.7963,0.8038,0.8038,0.8038,0.8137,0.9023,0.8627,0.8237,0.9023,0.8627,0.8038,0.8038,0.8085,0.8133,0.8133,0.8248,0.835,0.835,0.8425,0.8479,0.8479,0.8479,0.8479,0.8479,0.8479,0.8479,0.8479,0.8479,0.8479,0.8479,0.8533,0.8621,0.8737,0.8974,0.9157,0.9259,0.9298,0.7622,0.3845,0.133,0.0,0.0,0.0,0.0,0.0,0.0,0.0,0.0,0.0,0.0,0.0,0.0,0.0,0.0,0.0,0.0,0.0,0.0,0.0,0.0,0.0,0.0,0.0,0.3564,0.4794,0.5425,0.5425,0.5425,0.5425,0.5425,0.5425,0.5425,0.5425,0.5425,0.5607,0.6218,0.6271,0.6338,0.6338,0.6338,0.6338,0.6338,0.2348,0.0157,0.0549,0.4219,0.6338,0.6338,0.6338,0.6493,0.6872,0.914,1.1019,1.2305,1.2305,1.2331,1.2324,1.1661,1.1939,1.2852,1.2184,1.2456,1.328,1.3587,1.3035,1.2302,1.3522,1.2673,1.0784,1.0751,1.021,0.9349,0.8052,0.7726,0.7855,0.7997,0.8038,0.8038,0.8038,0.8038,0.8038,0.8038,0.8038,0.8045,0.8058,0.8058,0.8058,0.8058,0.818,0.8289,0.8289,0.8404,0.8506,0.8506,0.8513,0.852,0.852,0.852,0.852,0.852,0.852,0.852,0.852,0.852,0.8526,0.854,0.8682,0.8879,0.915,0.9313,0.9401,0.9401,0.9446,0.9546,0.9453,0.3542,0.0246,0.0,0.0,0.0,0.0,0.0,0.0,0.0,0.0,0.0,0.0,0.0,0.0,0.0,0.0,0.0,0.0,0.0,0.0,0.0,0.0,0.0,0.0,0.0827,0.3361,0.5425,0.5425,0.5425,0.5425,0.5425,0.5425,0.5425,0.5425,0.5425,0.5617,0.6261,0.627,0.6338,0.6338,0.6338,0.6338,0.6338,0.2348,0.1488,0.4768,0.5789,0.6338,0.6338,0.6338,0.7855,1.1019,1.0496,1.1019,1.2305,1.2305,1.2559,1.3013,1.2844,1.3002,1.3467,1.3513,1.3513,1.3601,1.4122,1.415,1.3918,1.3383,1.2944,1.2248,1.0464,0.9897,0.975,0.8376,0.7963,0.7997,0.8031,0.8038,0.8038,0.8038,0.8038,0.8038,0.8038,0.8038,0.8065,0.8187,0.8221,0.8221,0.8221,0.833,0.8438,0.8438,0.8554,0.8662,0.8662,0.8757,0.8838,0.8838,0.8838,0.8838,0.8838,0.8838,0.8838,0.8838,0.8838,0.8886,0.8994,0.9144,0.9266,0.9327,0.9476,0.9557,0.9557,0.97,0.968,0.9734,0.59,0.2583,0.0,0.0,0.0,0.0,0.0,0.0,0.0,0.0,0.0,0.0,0.0,0.0,0.0,0.0,0.0,0.0,0.0,0.0,0.0,0.0,0.0,0.0,-0.0333,0.2883,0.5425,0.5425,0.5425,0.5425,0.5425,0.5672,0.5864,0.5864,0.5864,0.5981,0.6304,0.6338,0.6338,0.6338,0.6519,0.6559,0.6281,0.4219,0.4068,0.6585,0.6681,0.6552,0.6345,0.8763,1.074,1.2305,1.0944,1.1019,1.2305,1.1915,1.2222,1.2999,1.3293,1.3507,1.3585,1.3961,1.4082,1.4095,1.4389,1.4603,1.4648,1.3423,1.2655,1.2038,1.0867,1.0359,1.0087,0.8506,0.8038,0.8038,0.8038,0.8038,0.8038,0.8038,0.8038,0.8038,0.8038,0.8092,0.8167,0.8248,0.8377,0.8459,0.8391,0.8486,0.8587,0.8587,0.8771,0.8899,0.8832,0.9001,0.9123,0.9055,0.9103,0.915,0.915,0.915,0.915,0.915,0.915,0.9178,0.9252,0.9401,0.949,0.949,0.9625,0.9741,0.9815,0.9822,0.9781,0.9968,0.6616,0.3364,0.0,0.0,0.0,0.0,0.0,0.0,0.0,0.0,0.0,0.0,0.0,0.0,0.0,0.0,0.0,0.0,0.0,0.0,0.0,0.0,0.0,0.0,-0.074,0.2415,0.4688,0.5292,0.5425,0.5425,0.5425,0.5947,0.6338,0.6338,0.6338,0.6338,0.6338,0.6349,0.641,0.641,0.6858,0.6932,0.6444,0.641,0.6627,0.7122,0.7489,0.7502,0.7051,1.1407,1.3239,1.2305,1.1016,1.0929,1.1935,1.1459,1.1682,1.2608,1.332,1.3585,1.3734,1.4028,1.4295,1.4522,1.4629,1.4816,1.4953,1.3592,1.2595,1.1693,1.1397,1.0738,0.992,0.8535,0.8038,0.8038,0.8038,0.8038,0.8045,0.8072,0.8079,0.8085,0.8106,0.8208,0.8316,0.8336,0.8526,0.8689,0.8615,0.8696,0.8777,0.8757,0.8988,0.9144,0.9001,0.9198,0.934,0.9211,0.93,0.9381,0.9381,0.9381,0.9381,0.9381,0.9401,0.9422,0.9422,0.9578,0.9686,0.9686,0.9815,0.9958,1.008,0.9971,0.9901,1.0042,0.7365,0.3931,0.0,0.0,0.0,0.0,0.0,0.0,0.0,0.0,0.0,0.0,0.0,0.0,0.0,0.0,0.0,0.0,0.0,0.0,0.0,0.0,0.0,0.0,-0.074,0.0404,0.1745,0.4821,0.5425,0.5425,0.5425,0.5947,0.6338,0.6338,0.6338,0.6338,0.6338,0.6715,0.7021,0.7021,0.7095,0.7109,0.7027,0.7021,0.7054,0.7136,0.9052,1.0125,1.0008,1.1336,1.2114,1.2305,1.133,1.0704,1.0582,1.0988,1.139,1.1866,1.3076,1.3788,1.4041,1.4335,1.4482,1.4563,1.507,1.5297,1.5272,1.4169,1.3671,1.329,1.1016,0.9395,0.8336,0.8038,0.8038,0.8038,0.8038,0.8038,0.8065,0.8201,0.8241,0.8269,0.8391,0.8438,0.8486,0.8615,0.8682,0.8771,0.9008,0.9076,0.9055,0.8933,0.9144,0.9306,0.915,0.9266,0.9374,0.9354,0.9367,0.9381,0.9381,0.9381,0.9381,0.9381,0.9496,0.9578,0.9578,0.9829,0.9992,0.9992,1.0134,1.0229,1.0249,1.0229,1.0249,1.0055,0.9774,0.6541,0.0,0.0,0.0,0.0,0.0,0.0,0.0,0.0,0.0,0.0,0.0,0.0,0.0,0.0,0.0,0.0,0.0,0.0,0.0,0.0,0.0,0.0,-0.3351,-0.1412,0.0471,0.208,0.4367,0.594,0.594,0.6167,0.6338,0.6338,0.6338,0.6338,0.6338,0.679,0.7143,0.7143,0.7143,0.7143,0.7143,0.7143,0.7143,0.7143,1.0605,1.2174,1.1305,1.2182,1.2338,1.1685,1.074,1.0319,1.0571,0.9948,1.0338,1.1766,1.2502,1.3438,1.4335,1.4469,1.471,1.503,1.5284,1.5498,1.5457,1.4315,1.3392,1.2425,0.9797,0.9122,0.9327,0.8336,0.8038,0.8058,0.814,0.8167,0.8201,0.8343,0.8391,0.8404,0.8465,0.8547,0.8628,0.8696,0.8832,0.8994,0.9123,0.9286,0.9367,0.9218,0.9361,0.9462,0.9306,0.9469,0.9598,0.9523,0.9578,0.9625,0.9625,0.9625,0.9659,0.9741,0.9815,0.989,0.9978,1.01,1.0181,1.0181,1.0243,1.0317,1.0392,1.0324,1.0358,1.0404,1.0344,0.9021,0.6046,0.397,0.1993,0.0,0.0,0.0,0.0,0.0,0.0,0.0,0.0,0.0,0.0,0.0,0.0,0.0,0.0,0.0,0.0,0.0,0.0,0.0]}]]